[[{"header":{"parameterUnit":"m.s-1","parameterCategory":1,"la1":30.6,"la2":28.766,"lo1":-90.7593,"lo2":-88.6598,"dy":0.0162,"dx":0.0183,"nx":116,"ny":114,"refTime":"2023-08-01T00:00:00:Z","depth":0,"parameterNumber":2,"parameterNumberName":"U-component_of_WINDS"},"data":[0.0,0.0,0.0,0.0,0.0,0.0,0.0,0.0,0.0,0.0,0.0,0.0,0.0,0.0,0.0,0.0,0.0,0.0,0.0,0.0,0.0,0.0,0.0,0.0,0.0,0.0,0.0,0.0,0.0,0.0,0.0,0.0,0.0,0.0,0.0,0.0,0.0,0.0,0.0,0.0,0.0,0.0,0.0,0.0,0.0,0.0,0.0,0.0,0.0,0.0,0.0,0.0,0.0,0.0,0.0,0.0,0.0,0.0,0.0,0.0,0.0,0.0,0.0,0.0,0.0,0.0,0.0,0.0,0.0,0.0,0.0,0.0,0.0,0.0,0.0,0.0,0.0,0.0,0.0,0.0,0.0,0.0,0.0,0.0,0.0,0.0,0.0,0.0,0.0,0.0,0.0,0.0,0.0,0.0,0.0,0.0,0.0,0.0,0.0,0.0,0.0,0.0,0.0,0.0,0.0,0.0,0.0,0.0,0.0,0.0,0.0,0.0,0.0,0.0,0.0,0.0,0.0,0.0,0.0,0.0,0.0,0.0,0.0,0.0,0.0,0.0,0.0,0.0,0.0,0.0,0.0,0.0,0.0,0.0,0.0,0.0,0.0,0.0,0.0,0.0,0.0,0.0,0.0,0.0,0.0,0.0,0.0,0.0,0.0,0.0,0.0,0.0,0.0,0.0,0.0,0.0,0.0,0.0,0.0,0.0,0.0,0.0,0.0,0.0,0.0,0.0,0.0,0.0,0.0,0.0,0.0,0.0,0.0,0.0,0.0,0.0,0.0,0.0,0.0,0.0,0.0,0.0,0.0,0.0,0.0,0.0,0.0,0.0,0.0,0.0,0.0,0.0,0.0,0.0,0.0,0.0,0.0,0.0,0.0,0.0,0.0,0.0,0.0,0.0,0.0,0.0,0.0,0.0,0.0,0.0,0.0,0.0,0.0,0.0,0.0,0.0,0.0,0.0,0.0,0.0,0.0,0.0,0.0,0.0,0.0,0.0,0.0,0.0,0.0,0.0,0.0,0.0,0.0,0.0,0.0,0.0,0.0,0.0,0.0,0.0,0.0,0.0,0.0,0.0,0.0,0.0,0.0,0.0,0.0,0.0,0.0,0.0,0.0,0.0,0.0,0.0,0.0,0.0,0.0,0.0,0.0,0.0,0.0,0.0,0.0,0.0,0.0,0.0,0.0,0.0,0.0,0.0,0.0,0.0,0.0,0.0,0.0,0.0,0.0,0.0,0.0,0.0,0.0,0.0,0.0,0.0,0.0,0.0,0.0,0.0,0.0,0.0,0.0,0.0,0.0,0.0,0.0,0.0,0.0,0.0,0.0,0.0,0.0,0.0,0.0,0.0,0.0,0.0,0.0,0.0,0.0,0.0,0.0,0.0,0.0,0.0,0.0,0.0,0.0,0.0,0.0,0.0,0.0,0.0,0.0,0.0,0.0,0.0,0.0,0.0,0.0,0.0,0.0,0.0,0.0,0.0,0.0,0.0,0.0,0.0,0.0,0.0,0.0,0.0,0.0,0.0,0.0,0.0,0.0,0.0,0.0,0.0,0.0,0.0,0.0,0.0,0.0,0.0,0.0,0.0,0.0,0.0,0.0,0.0,0.0,0.0,0.0,0.0,0.0,0.0,0.0,0.0,0.0,0.0,0.0,0.0,0.0,0.0,0.0,0.0,0.0,0.0,0.0,0.0,0.0,0.0,0.0,0.0,0.0,0.0,0.0,0.0,0.0,0.0,0.0,0.0,0.0,0.0,0.0,0.0,0.0,0.0,0.0,0.0,0.0,0.0,0.0,0.0,0.0,0.0,0.0,0.0,0.0,0.0,0.0,0.0,0.0,0.0,0.0,0.0,0.0,0.0,0.0,0.0,0.0,0.0,0.0,0.0,0.0,0.0,0.0,0.0,0.0,0.0,0.0,0.0,0.0,0.0,0.0,0.0,0.0,0.0,0.0,0.0,0.0,0.0,0.0,0.0,0.0,0.0,0.0,0.0,0.0,0.0,0.0,0.0,0.0,0.0,0.0,0.0,0.0,0.0,0.0,0.0,0.0,0.0,0.0,0.0,0.0,0.0,0.0,0.0,0.0,0.0,0.0,0.0,0.0,0.0,0.0,0.0,0.0,0.0,0.0,0.0,0.0,0.0,0.0,0.0,0.0,0.0,0.0,0.0,0.0,0.0,0.0,0.0,0.0,0.0,0.0,0.0,0.0,0.0,0.0,0.0,0.0,0.0,0.0,0.0,0.0,0.0,0.0,0.0,0.0,0.0,0.0,0.0,0.0,0.0,0.0,0.0,0.0,0.0,0.0,0.0,0.0,0.0,0.0,0.0,0.0,0.0,0.0,0.0,0.0,0.0,0.0,0.0,0.0,0.0,0.0,0.0,0.0,0.0,0.0,0.0,0.0,0.0,0.0,0.0,0.0,0.0,0.0,0.0,0.0,0.0,0.0,0.0,0.0,0.0,0.0,0.0,0.0,0.0,0.0,0.0,0.0,0.0,0.0,0.0,0.0,0.0,0.0,0.0,0.0,0.0,0.0,0.0,0.0,0.0,0.0,0.0,0.0,0.0,0.0,0.0,0.0,0.0,0.0,0.0,0.0,0.0,0.0,0.0,0.0,0.0,0.0,0.0,0.0,0.0,0.0,0.0,0.0,0.0,0.0,0.0,0.0,0.0,0.0,0.0,0.0,0.0,0.0,0.0,0.0,0.0,0.0,0.0,0.0,0.0,0.0,0.0,0.0,0.0,0.0,0.0,0.0,0.0,0.0,0.0,0.0,0.0,0.0,0.0,0.0,0.0,0.0,0.0,0.0,0.0,0.0,0.0,0.0,0.0,0.0,0.0,0.0,0.0,0.0,0.0,0.0,0.0,0.0,0.0,0.0,0.0,0.0,0.0,0.0,0.0,0.0,0.0,0.0,0.0,0.0,0.0,0.0,0.0,0.0,0.0,0.0,0.0,0.0,0.0,0.0,0.0,0.0,0.0,0.0,0.0,0.0,0.0,0.0,0.0,0.0,0.0,0.0,0.0,0.0,0.0,0.0,0.0,0.0,0.0,0.0,0.0,0.0,0.0,0.0,0.0,0.0,0.0,0.0,0.0,0.0,0.0,0.0,0.0,0.0,0.0,0.0,0.0,0.0,0.0,0.0,0.0,0.0,0.0,0.0,0.0,0.0,0.0,0.0,0.0,0.0,0.0,0.0,0.0,0.0,0.0,0.0,0.0,0.0,0.0,0.0,0.0,0.0,0.0,0.0,0.0,0.0,0.0,0.0,0.0,0.0,0.0,0.0,0.0,0.0,0.0,0.0,0.0,0.0,0.0,0.0,0.0,0.0,0.0,0.0,0.0,0.0,0.0,0.0,0.0,0.0,0.0,0.0,0.0,0.0,0.0,0.0,0.0,0.0,0.0,0.0,0.0,0.0,0.0,0.0,0.0,0.0,0.0,0.0,0.0,0.0,0.0,0.0,0.0,0.0,0.0,0.0,0.0,0.0,0.0,0.0,0.0,0.0,0.0,0.0,0.0,0.0,0.0,0.0,0.0,0.0,0.0,0.0,0.0,0.0,0.0,0.0,0.0,0.0,0.0,0.0,0.0,0.0,0.0,0.0,0.0,0.0,0.0,0.0,0.0,0.0,0.0,0.0,0.0,0.0,0.0,0.0,0.0,0.0,0.0,0.0,0.0,0.0,0.0,0.0,0.0,0.0,0.0,0.0,0.0,0.0,0.0,0.0,0.0,0.0,0.0,0.0,0.0,0.0,0.0,0.0,0.0,0.0,0.0,0.0,0.0,0.0,0.0,0.0,0.0,0.0,0.0,0.0,0.0,0.0,0.0,0.0,0.0,0.0,0.0,0.0,0.0,0.0,0.0,0.0,0.0,0.0,0.0,0.0,0.0,0.0,0.0,0.0,0.0,0.0,0.0,0.0,0.0,0.0,0.0,0.0,0.0,0.0,0.0,0.0,0.0,0.0,0.0,0.0,0.0,0.0,0.0,0.0,0.0,0.0,0.0,0.0,0.0,0.0,0.0,0.0,0.0,0.0,0.0,0.0,0.0,0.0,0.0,0.0,0.0,0.0,0.0,0.0,0.0,0.0,0.0,0.0,0.0,0.0,0.0,0.0,0.0,0.0,0.0,0.0,0.0,0.0,0.0,0.0,0.0,0.0,0.0,0.0,0.0,0.0,0.0,0.0,0.0,0.0,0.0,0.0,0.0,0.0,0.0,0.0,0.0,0.0,0.0,0.0,0.0,0.0,0.0,0.0,0.0,0.0,0.0,0.0,0.0,0.0,0.0,0.0,0.0,0.0,0.0,0.0,0.0,0.0,0.0,0.0,0.0,0.0,0.0,0.0,0.0,0.0,0.0,0.0,0.0,0.0,0.0,0.0,0.0,0.0,0.0,0.0,0.0,0.0,0.0,0.0,0.0,0.0,0.0,0.0,0.0,0.0,0.0,0.0,0.0,0.0,0.0,0.0,0.0,0.0,0.0,0.0,0.0,0.0,0.0,0.0,0.0,0.0,0.0,0.0,0.0,0.0,0.0,0.0,0.0,0.0,0.0,0.0,0.0,0.0,0.0,0.0,0.0,0.0,0.0,0.0,0.0,0.0,0.0,0.0,0.0,0.0,0.0,0.0,0.0,0.0,0.0,0.0,0.0,0.0,0.0,0.0,0.0,0.0,0.0,0.0,0.0,0.0,0.0,0.0,0.0,0.0,0.0,0.0,0.0,0.0,0.0,0.0,0.0,0.0,0.0,0.0,0.0,0.0,0.0,0.0,0.0,0.0,0.0,0.0,0.0,0.0,0.0,0.0,0.0,0.0,0.0,0.0,0.0,0.0,0.0,0.0,0.0,0.0,0.0,0.0,0.0,0.0,0.0,0.0,0.0,0.0,0.0,0.0,0.0,0.0,0.0,0.0,0.0,0.0,0.0,0.0,0.0,0.0,0.0,0.0,0.0,0.0,0.0,0.0,0.0,0.0,0.0,0.0,0.0,0.0,0.0,0.0,0.0,0.0,0.0,0.0,0.0,0.0,0.0,0.0,0.0,0.0,0.0,0.0,0.0,0.0,0.0,0.0,0.0,0.0,0.0,0.0,0.0,0.0,0.0,0.0,0.0,0.0,0.0,0.0,0.0,0.0,0.0,0.0,0.0,0.0,0.0,0.0,0.0,0.0,0.0,0.0,0.0,0.0,0.0,0.0,0.0,0.0,0.0,0.0,0.0,0.0,0.0,0.0,0.0,0.0,0.0,0.0,0.0,0.0,0.0,0.0,0.0,0.0,0.0,0.0,0.0,0.0,0.0,0.0,0.0,0.0,0.0,0.0,0.0,0.0,0.0,0.0,0.0,0.0,0.0,0.0,0.0,0.0,0.0,0.0,0.0,0.0,0.0,0.0,0.0,0.0,0.0,0.0,0.0,0.0,0.0,0.0,0.0,0.0,0.0,0.0,0.0,0.0,0.0,0.0,0.0,0.0,0.0,0.0,0.0,0.0,0.0,0.0,0.0,0.0,0.0,0.0,0.0,0.0,0.0,0.0,0.0,0.0,0.0,0.0,0.0,0.0,0.0,0.0,0.0,0.0,0.0,0.0,0.0,0.0,0.0,0.0,0.0,0.0,0.0,0.0,0.0,0.0,0.0,0.0,0.0,0.0,0.0,0.0,0.0,0.0,0.0,0.0,0.0,0.0,0.0,0.0,0.0,0.0,0.0,0.0,0.0,0.0,0.0,0.0,0.0,0.0,0.0,0.0,0.0,0.0,0.0,0.0,0.0,0.0,0.0,0.0,0.0,0.0,0.0,0.0,0.0,0.0,0.0,0.0,0.0,0.0,0.0,0.0,0.0,0.0,0.0,0.0,0.0,0.0,0.0,0.0,0.0,0.0,0.0,0.0,0.0,0.0,0.0,0.0,0.0,0.0,0.0,0.0,0.0,0.0,0.0,0.0,0.0,0.0,0.0,0.0,0.0,0.0,0.0,0.0,0.0,0.0,0.0,0.0,0.0,0.0,0.0,0.0,0.0,0.0,0.0,0.0,0.0,0.0,0.0,0.0,0.0,0.0,0.0,0.0,0.0,0.0,0.0,0.0,0.0,0.0,0.0,1.7973,2.0224,0.0,0.0,0.0,0.0,0.0,0.0,0.0,0.0,0.0,0.0,0.0,0.0,0.0,0.0,0.0,0.0,0.0,0.0,0.0,0.0,0.0,0.0,0.0,0.0,0.0,0.0,0.0,0.0,0.0,0.0,0.0,0.0,0.0,0.0,0.0,0.0,0.0,0.0,0.0,0.0,0.0,0.0,0.0,0.0,0.0,0.0,0.0,0.0,0.0,0.0,0.0,0.0,0.0,0.0,0.0,0.0,0.0,0.0,0.0,0.0,0.0,0.0,0.0,0.0,0.0,0.0,0.0,0.0,0.0,0.0,0.0,0.0,0.0,0.0,0.0,0.0,0.0,0.0,0.0,0.0,0.0,0.0,0.0,0.0,0.0,0.0,0.0,0.0,0.0,0.0,0.0,0.0,0.0,0.0,0.0,0.0,0.0,0.0,0.0,0.0,0.0,0.0,0.0,0.0,0.0,0.0,0.0,0.0,0.0,0.0,0.0,0.0,0.0,0.0,1.8711,1.9868,0.0,0.0,0.0,0.0,0.0,0.0,0.0,0.0,0.0,0.0,0.0,0.0,0.0,0.0,0.0,0.0,0.0,0.0,0.0,0.0,0.0,0.0,0.0,0.0,0.0,0.0,0.0,0.0,0.0,0.0,0.0,0.0,0.0,0.0,0.0,0.0,0.0,0.0,0.0,0.0,0.0,0.0,0.0,0.0,0.0,0.0,0.0,0.0,0.0,0.0,0.0,0.0,0.0,0.0,0.0,0.0,0.0,0.0,0.0,0.0,0.0,0.0,0.0,0.0,0.0,0.0,0.0,0.0,0.0,0.0,0.0,0.0,0.0,0.0,0.0,0.0,0.0,0.0,0.0,0.0,0.0,0.0,0.0,0.0,0.0,0.0,0.0,0.0,0.0,0.0,0.0,0.0,0.0,0.0,0.0,0.0,0.0,0.0,0.0,0.0,0.0,0.0,0.0,0.0,0.0,0.0,0.0,0.0,2.0831,2.1427,2.1331,2.2043,2.2043,2.1427,2.0108,1.9896,2.0611,2.2064,0.0,0.0,0.0,0.0,0.0,0.0,0.0,0.0,0.0,0.0,0.0,0.0,0.0,0.0,0.0,0.0,0.0,0.0,0.0,0.0,0.0,0.0,0.6415,0.666,0.7225,0.0,0.0,0.0,0.0,0.0,0.0,0.0,0.0,0.0,0.0,0.0,0.0,0.0,0.9773,1.1392,1.2246,1.2343,1.0852,0.0,0.0,0.0,0.0,0.0,0.0,0.0,0.0,0.0,0.0,0.0,0.0,0.0,0.0,0.0,0.0,0.0,0.0,0.0,0.0,0.0,0.0,0.0,0.0,0.0,0.0,0.0,0.0,0.0,0.0,0.0,0.0,0.0,0.0,0.0,0.0,0.0,0.0,0.0,0.0,0.0,0.0,0.0,1.4667,1.5306,0.0,0.0,0.0,0.0,0.0,0.0,0.0,0.0,0.0,0.0,0.0,0.0,0.0,2.1062,2.085,2.1812,2.1908,2.1177,2.1389,2.1139,2.0465,2.0581,2.0946,2.1485,2.1273,0.0,2.137,2.16,0.0,0.0,0.0,0.0,0.0,0.0,0.0,0.0,0.0,0.0,0.0,0.0,0.0,0.0,0.0,0.0,0.0,0.0,0.0,0.0,0.0,0.0,0.6584,0.6939,0.7545,0.793,0.0,0.0,0.0,0.0,0.0,0.0,0.0,0.0,0.0,0.0,0.9377,0.9863,1.0101,1.1373,1.2237,1.2681,1.1914,1.2085,1.2953,1.2913,0.0,0.0,0.0,0.0,0.0,0.0,0.0,0.0,0.0,0.0,0.0,0.0,0.0,0.0,0.0,0.0,0.0,0.0,0.0,0.0,0.0,0.0,0.0,0.0,0.0,0.0,0.0,0.0,0.0,0.0,0.0,0.0,0.0,0.0,0.0,0.0,0.0,0.0,0.0,1.5319,1.539,1.522,1.5971,1.6869,0.0,0.0,0.0,0.0,0.0,0.0,0.0,0.0,0.0,1.9754,2.0889,2.1273,2.0831,2.1658,2.1889,2.1504,2.2485,2.2774,2.2447,2.2908,2.3303,2.3639,2.3639,2.3389,2.2947,2.2947,2.3417,2.412,0.0,0.0,0.0,0.0,2.5065,2.5122,0.0,0.0,0.0,0.0,0.0,0.0,0.0,0.0,0.0,0.0,0.0,0.0,0.4847,0.5969,0.6941,0.7439,0.8046,0.8368,0.8302,0.0,0.0,0.0,0.0,0.0,0.0,0.0,0.0,0.0,1.0186,1.0471,1.0554,1.1644,1.2488,1.3153,1.3574,1.3688,1.3558,1.3775,1.3468,0.0,0.0,0.0,0.0,0.0,0.0,0.0,0.0,0.0,0.0,0.0,0.0,0.0,0.0,0.0,0.0,0.0,0.0,0.0,0.0,0.0,0.0,0.0,0.0,0.0,0.0,0.0,0.0,0.0,0.0,0.0,0.0,0.0,0.0,0.0,0.0,0.0,0.0,1.5276,1.5445,1.5234,1.558,1.6407,0.0,0.0,0.0,0.0,0.0,0.0,1.9338,2.0927,2.1466,2.0639,2.162,2.1889,2.1273,2.2081,2.2466,2.2485,2.3793,2.4409,2.4428,2.5024,2.5303,2.5303,2.5303,2.5101,2.4707,2.4283,2.411,2.4139,2.4596,2.4996,2.5304,2.5075,2.5265,2.5621,0.0,0.0,0.0,0.0,0.0,0.0,0.0,0.0,0.0,0.0,0.0,0.4838,0.5143,0.6647,0.7879,0.8467,0.9139,0.9099,0.8083,0.0,0.0,0.0,0.0,0.0,0.0,0.0,0.0,0.9886,1.0916,1.1423,1.1461,1.3112,1.3938,1.4095,1.57,1.5884,1.4934,1.4134,1.4071,1.448,0.0,0.0,0.0,0.0,0.0,0.0,0.0,0.0,0.0,0.0,0.0,0.0,0.0,0.0,0.0,0.0,0.0,0.0,0.0,0.0,0.0,0.0,0.0,0.0,0.0,0.0,0.0,0.0,0.0,0.0,0.0,0.0,0.0,0.0,0.0,0.0,0.0,0.0,0.0,1.5022,1.4516,0.0,0.0,0.0,0.0,1.7702,1.9985,2.1043,2.0273,2.1812,2.2331,2.1466,2.3081,2.3956,2.3918,2.4716,2.5111,2.5111,2.5187,2.5245,2.5245,2.5284,2.5303,2.5303,2.5303,2.5755,2.6351,2.4764,2.411,2.411,2.412,2.4998,2.6136,2.5304,2.6009,2.7273,0.0,0.0,0.0,0.0,0.0,0.0,0.0,0.0,0.0,0.4037,0.4571,0.5153,0.5651,0.7013,0.8157,0.8807,0.9546,0.9809,0.9374,0.0,0.0,0.0,0.0,0.0,0.0,0.0,1.0021,1.0732,1.1243,1.1758,1.2308,1.4022,1.484,1.495,1.6672,1.7244,1.6838,1.5931,1.4998,1.4152,1.4109,1.4298,0.0,0.0,0.0,0.0,0.0,0.0,0.0,0.0,0.0,0.0,0.0,0.0,0.0,0.0,0.0,0.0,0.0,0.0,0.0,0.0,0.0,0.0,0.0,0.0,0.0,0.0,0.0,0.0,0.0,0.0,0.0,0.0,0.0,0.0,0.0,0.0,0.0,1.6599,1.6522,0.0,1.835,1.9023,1.9369,1.9369,2.0696,2.137,2.11,2.2697,2.3494,2.3186,2.4274,2.487,2.487,2.5159,2.5303,2.5303,2.5303,2.5303,2.5303,2.5303,2.5303,2.5303,2.5303,2.5793,2.6544,2.5967,2.6043,2.6524,2.6389,2.6568,2.6858,2.6727,2.6934,2.738,0.0,0.0,0.0,0.0,0.0,0.0,0.0,0.0,0.0,0.4167,0.5001,0.5776,0.6282,0.7494,0.8527,0.9146,0.9746,0.9974,0.9653,0.0,0.0,0.0,0.0,0.0,0.0,0.981,1.0518,1.1092,1.1725,1.235,1.293,1.4661,1.5518,1.5715,1.7435,1.8079,1.7859,1.7532,1.64,1.4811,1.4769,1.5004,1.5252,0.0,0.0,0.0,0.0,0.0,0.0,0.0,0.0,0.0,0.0,0.0,0.0,0.0,0.0,0.0,0.0,0.0,0.0,0.0,0.0,0.0,0.0,0.0,0.0,0.0,0.0,0.0,0.0,0.0,0.0,0.0,0.0,0.0,0.0,1.6963,1.7162,1.9177,1.8927,1.9138,2.0581,2.0696,2.0696,2.0696,2.1735,2.237,2.237,2.3735,2.4505,2.4505,2.5024,2.5303,2.5303,2.5303,2.5303,2.5303,2.5303,2.5437,2.5726,2.5418,2.561,2.6159,2.587,2.639,2.7448,2.7448,2.7967,2.8668,2.7961,2.7883,2.8123,2.8128,2.8488,2.9156,0.0,0.0,0.0,0.0,0.0,0.0,0.0,0.0,0.0,0.4626,0.569,0.659,0.6939,0.8072,0.9008,0.9551,0.976,0.9544,0.878,0.899,0.0,0.0,0.0,0.0,0.9203,1.0294,1.0893,1.0923,1.2364,1.3152,1.3375,1.5025,1.5988,1.6407,1.8064,1.8434,1.79,1.883,1.823,1.6659,1.6623,1.6522,1.6318,0.0,0.0,0.0,0.0,0.0,0.0,0.0,0.0,0.0,0.0,0.0,0.0,0.0,0.0,0.0,0.0,0.0,0.0,0.0,0.0,0.0,0.0,0.0,0.0,0.0,0.0,0.0,0.0,0.0,0.0,0.0,0.0,0.0,1.9697,1.9362,1.9809,2.2438,2.137,2.0716,2.1504,2.16,2.162,2.162,2.3178,2.4149,2.4149,2.4889,2.5303,2.5303,2.5303,2.5303,2.5303,2.5303,2.5303,2.5341,2.5341,2.5813,2.6621,2.5774,2.6294,2.7852,2.7005,2.7582,2.9102,2.9102,2.9602,3.0225,2.8602,2.8804,2.9932,2.937,3.0657,3.2688,0.0,0.0,0.0,0.0,0.0,0.0,0.0,0.0,0.0,0.2973,0.4412,0.5807,0.6611,0.7794,0.8803,0.953,0.9257,0.9157,0.9481,0.0,0.0,0.0,0.0,0.0,0.9271,0.9905,1.0581,1.1257,1.2063,1.3032,1.4193,1.5282,1.6244,1.7073,1.816,1.8699,1.8773,1.9379,1.899,1.7906,1.7012,1.6561,1.6317,0.0,0.0,0.0,0.0,0.0,0.0,0.0,0.0,0.0,0.0,0.0,0.0,0.0,0.0,0.0,0.0,0.0,0.0,0.0,0.0,0.0,0.0,0.0,0.0,0.0,0.0,0.0,0.0,0.0,0.0,0.0,1.6547,1.6703,1.8868,1.9458,2.0212,2.1688,2.2562,2.3148,2.336,2.3908,2.4265,2.4265,2.4697,2.4966,2.4966,2.5168,2.5303,2.5303,2.5303,2.5303,2.5303,2.5303,2.561,2.6236,2.6236,2.6697,2.7525,2.7294,2.7448,2.789,2.764,2.814,2.9102,2.9102,2.9602,3.034,2.989,2.9819,3.0085,3.0733,3.2154,3.378,0.0,0.0,0.0,0.0,0.0,0.0,0.0,0.0,0.0,0.0,0.4797,0.5952,0.7116,0.7885,0.8471,0.8848,0.8368,0.8373,0.9198,0.0,0.0,0.0,0.0,0.8724,0.9121,0.9749,1.0346,1.0913,1.1751,1.2656,1.3633,1.4722,1.5624,1.6378,1.7483,1.8129,1.8435,1.9044,1.9068,1.8673,1.8187,1.7829,1.7486,1.6679,1.6355,1.6279,1.5906,1.5913,1.6017,1.5509,0.0,0.0,0.0,0.0,0.0,0.0,0.0,0.0,0.0,0.0,0.0,0.0,0.0,0.0,0.0,0.0,0.0,0.0,0.0,0.0,0.0,0.0,0.0,0.0,1.6972,1.7609,1.9832,2.0622,2.149,2.2929,2.3985,2.4601,2.4601,2.5024,2.5303,2.5303,2.5303,2.5303,2.5303,2.5303,2.5303,2.5303,2.5303,2.5303,2.5303,2.5649,2.6101,2.6601,2.6967,2.7582,2.839,2.8044,2.8275,2.8929,2.8563,2.8871,2.9679,3.0044,3.0275,3.0436,0.0,0.0,0.0,0.0,3.391,3.4737,0.0,0.0,0.0,0.0,0.0,0.0,0.0,0.0,0.0,0.0,0.0,0.6284,0.7575,0.7661,0.7691,0.7812,0.7454,0.7522,0.0,0.0,0.0,0.7876,0.7889,0.8158,0.8674,0.9662,1.0122,1.0045,1.1343,1.2143,1.2455,1.364,1.4487,1.5054,1.6303,1.7019,1.7305,1.8069,1.858,1.8919,1.9487,1.9483,1.9081,1.8397,1.8065,1.789,1.7108,1.6385,1.5799,1.5702,0.0,0.0,0.0,0.0,0.0,0.0,0.0,0.0,0.0,0.0,0.0,0.0,0.0,0.0,0.0,0.0,0.0,0.0,0.0,0.0,0.0,0.0,0.0,0.0,1.7923,1.9251,2.179,2.2374,2.3221,2.502,2.5253,2.5264,2.5243,2.5243,2.5243,2.5243,2.5243,2.5253,2.5264,2.5264,0.0,0.0,0.0,2.5437,2.5437,2.6313,2.6755,2.6755,2.7621,2.8448,2.9217,2.8506,2.9044,3.0494,2.9737,2.9871,3.0737,3.1525,3.1448,3.0891,3.1468,3.2256,3.3237,3.4776,3.543,3.5493,0.0,0.0,0.0,0.0,0.0,0.0,0.0,0.0,0.0,0.2052,0.3083,0.4275,0.5187,0.4664,0.5084,0.7153,0.7788,0.7631,0.0,0.0,0.7459,0.6452,0.7429,0.778,0.7373,0.9066,0.9691,0.9147,1.0484,1.1646,1.2635,1.2915,1.3733,1.5,1.5266,1.579,1.6451,1.6938,1.7508,1.8164,1.8869,1.909,1.8948,1.891,1.8459,1.7813,1.7654,1.793,1.8283,1.7576,1.78,1.8134,1.6715,0.0,0.0,0.0,0.0,0.0,0.0,0.0,0.0,0.0,0.0,0.0,0.0,0.0,0.0,0.0,0.0,0.0,0.0,0.0,0.0,1.8536,1.9525,2.0747,2.2747,2.363,2.4264,2.4818,2.4993,2.5018,2.4915,2.4902,2.4902,2.4902,2.4902,2.4949,2.5046,2.5065,2.5447,2.6322,2.6351,2.6351,2.6351,2.7217,2.764,2.7659,2.8467,0.0,3.014,2.9987,3.0487,3.1448,3.1275,3.166,3.2429,3.2602,3.2987,3.3353,3.216,3.2622,3.3987,3.4334,3.4911,3.5493,0.0,0.0,0.0,0.0,0.0,0.0,0.0,0.0,0.0,0.0,0.274,0.2823,0.2341,0.3767,0.3885,0.1728,0.3973,0.0,0.0,0.6181,0.6808,0.6277,0.6668,0.6846,0.6753,0.8082,0.8624,0.8303,0.9517,1.0405,1.1001,1.1513,1.2173,1.2909,1.3695,1.4255,1.4722,1.5771,1.6488,1.705,1.8037,1.8507,1.8666,1.9303,1.9004,1.8252,1.8252,1.7987,1.7631,1.7612,1.7623,1.7581,1.7175,1.6443,1.5763,0.0,0.0,0.0,0.0,0.0,0.0,0.0,0.0,0.0,0.0,0.0,0.0,0.0,0.0,1.6759,0.0,0.0,1.8716,2.0296,2.1235,2.2224,2.3563,2.4185,2.4559,2.4775,2.4869,2.4864,2.4804,2.4804,2.4804,2.4804,2.4804,2.4828,2.4891,2.4904,2.5329,2.6282,2.6301,2.6479,2.6898,2.7731,2.8223,2.837,2.947,3.029,3.0852,3.1134,3.1489,3.1924,3.2048,3.2244,3.2515,3.2641,3.3485,3.4553,3.339,3.3737,3.4853,3.4853,3.5141,3.5565,0.0,0.0,0.0,0.0,0.0,0.0,0.0,0.0,0.0,0.0,0.2662,0.1564,0.0153,0.2988,0.3304,0.0,0.0,0.0,0.0,0.5323,0.6229,0.6148,0.5995,0.6007,0.6218,0.7167,0.7632,0.7565,0.8504,0.9112,0.9359,1.0193,1.068,1.0868,1.2237,1.2936,1.3183,1.4536,1.549,1.6196,1.7156,1.7824,1.8364,1.9081,1.9095,1.8733,1.8553,1.7528,1.6399,1.6951,1.6638,1.6149,1.6897,1.6544,1.5884,1.6087,1.5562,0.0,0.0,0.0,0.0,0.0,0.0,0.0,0.0,0.0,1.6965,1.7764,1.8278,1.8821,1.9618,2.0303,2.1033,2.1877,2.2648,2.3399,2.4098,2.4266,2.4442,2.4654,2.4716,2.4731,2.4685,2.4685,2.4685,2.4685,2.4685,2.47,2.4746,2.4881,2.5367,2.6211,2.6381,2.6777,2.742,2.8228,2.8742,2.8969,3.0275,3.1105,3.1466,3.1901,3.2184,3.2373,3.2764,3.2785,3.2618,3.284,3.3762,3.4977,3.4489,3.4721,3.5354,3.546,3.5603,3.5834,0.0,0.0,0.0,0.0,0.0,0.0,0.0,0.0,0.0,0.0,0.0,0.0,0.0,0.0,0.0,0.0,0.0,0.0,0.4865,0.5681,0.5764,0.4933,0.5765,0.5938,0.5281,0.6748,0.7383,0.707,0.7553,0.8378,0.9499,0.9702,1.0193,1.0899,1.1611,1.2378,1.3094,1.3318,1.4603,1.6518,1.6297,1.702,1.8136,1.7274,1.7807,1.8838,1.7943,1.7238,1.667,1.6287,1.5814,1.5398,1.544,1.4873,1.4263,1.4756,0.0,1.3772,1.4903,1.5209,1.5407,1.6176,1.6426,1.6869,0.0,0.0,1.8693,1.8743,1.9219,1.9618,1.9613,2.0729,2.1914,2.274,2.33,2.3767,2.4133,2.3958,2.3919,2.4228,2.4409,2.4461,2.4284,2.4284,2.4284,2.4284,2.4284,2.4358,2.4528,2.5201,2.6051,2.7019,2.7754,2.8188,2.8246,2.9112,2.9545,2.9526,3.0451,3.1299,3.2015,3.2072,3.2524,3.3296,3.411,3.4431,3.4411,3.4431,3.4564,3.4734,3.4679,3.4698,3.4851,3.532,3.5949,3.6584,0.0,0.0,0.0,0.0,0.0,0.0,0.0,0.0,0.0,0.0,0.0,0.0,0.0,0.0,0.0,0.0,0.0,0.0,0.6064,0.5485,0.5036,0.5166,0.5452,0.5442,0.5117,0.6023,0.6554,0.6657,0.7077,0.7591,0.8131,0.8928,0.9357,0.9502,1.0767,1.186,1.2827,1.3383,1.4515,1.5965,1.591,1.5965,1.5968,1.5128,1.4881,1.5107,1.6063,1.5515,0.0,0.0,1.4539,1.3793,1.4104,1.3993,1.3795,1.4136,1.4072,0.0,1.4725,1.5735,1.6692,1.7112,1.7965,1.8866,1.9456,1.9888,2.0285,2.0725,2.1282,2.1853,2.2511,2.2924,2.3272,0.0,2.3644,2.3692,2.3628,2.35,2.3298,2.3019,2.343,2.3862,2.417,2.419,2.419,2.419,2.419,2.4247,2.4321,2.5078,2.593,2.6823,2.7621,2.8272,2.8734,2.9572,3.0044,3.0205,3.1325,3.2147,3.2614,3.246,3.2672,3.3181,3.3399,3.3832,3.4401,3.4401,3.4701,3.5136,3.4821,3.4996,3.5432,3.5666,3.5949,3.6405,0.0,0.0,0.0,0.0,0.0,0.0,0.0,0.0,0.0,0.0,0.0,0.0,0.0,0.0,0.0,0.0,0.0,0.0,0.0,0.5392,0.4862,0.5358,0.5214,0.5108,0.5108,0.5439,0.5869,0.6406,0.6508,0.673,0.7068,0.8019,0.836,0.8263,0.9893,1.1132,1.2034,1.2837,1.3865,1.4911,1.4735,1.4397,1.3894,1.2858,1.1875,1.1324,1.3446,1.3206,0.0,0.0,1.253,1.174,1.2489,1.2822,1.3051,1.3637,1.428,1.4758,1.4743,1.6194,1.7757,1.7792,1.9153,2.0509,2.0595,2.1166,2.1915,2.2749,2.3191,2.369,2.4557,2.4426,2.4134,2.3966,2.3723,2.3477,2.3236,2.2941,2.2676,2.2433,2.2698,2.316,2.3858,2.3917,2.3917,2.3917,2.4016,2.4165,2.4365,2.5232,2.6098,2.6906,2.7714,2.8521,2.9305,2.9916,3.053,3.1158,3.2145,3.2808,3.321,3.3029,3.3036,3.3221,3.3011,3.3368,3.4074,3.4074,3.4445,3.4996,3.4596,3.4948,3.5675,3.5918,3.6107,3.647,0.0,0.0,0.0,0.0,0.0,0.0,0.0,0.0,0.0,0.0,0.0,0.0,0.0,0.0,0.0,0.0,0.0,0.0,0.0,0.553,0.5558,0.5127,0.5108,0.5108,0.5108,0.5127,0.5545,0.6406,0.5625,0.5828,0.6901,0.709,0.7332,0.769,0.9048,0.9939,1.0481,1.0925,1.202,1.3374,1.2249,1.2209,1.2533,1.0571,0.9206,0.8538,1.0174,0.0,0.0,0.9956,0.957,0.9296,1.0423,1.0997,0.0,1.3151,1.4727,1.5778,1.5008,1.6409,1.8091,1.8091,1.9556,2.1185,2.1951,2.2806,2.3681,2.4544,2.4582,2.4476,2.4493,2.4339,2.4094,2.3756,2.3437,2.3212,2.3189,2.2317,2.2028,2.3041,2.2557,2.2437,2.3141,2.3212,2.3212,2.3212,2.3522,2.4057,2.4852,2.595,2.6924,2.7732,2.8539,2.9365,3.0173,3.0191,3.0999,3.254,3.2596,3.3018,3.3797,3.377,3.377,3.3797,3.377,3.377,3.3815,3.3815,3.3834,3.3852,3.3834,3.433,3.5138,3.5983,3.6626,3.7165,0.0,0.0,0.0,0.0,0.0,0.0,0.0,0.0,0.0,0.0,0.0,0.0,0.0,0.0,0.0,0.0,0.0,0.0,0.0,0.4968,0.4887,0.5339,0.503,0.501,0.5349,0.5185,0.5471,0.6276,0.5644,0.5606,0.6182,0.6904,0.7111,0.6941,0.8494,0.952,1.0065,1.0193,1.1344,1.2843,1.1222,1.058,1.0375,0.8477,0.7003,0.6015,0.0,0.0,0.0,0.806,0.7751,0.7285,0.8506,0.9046,0.9639,1.1828,1.3627,1.4986,1.5138,1.671,1.8528,1.9507,2.0875,2.2182,2.2905,2.2905,2.2813,2.2974,2.217,2.148,2.162,2.148,2.1432,2.1742,2.1774,2.1841,2.2101,2.1582,2.1247,2.1387,2.1617,2.181,2.1885,2.2667,2.3189,2.3189,2.3282,2.3684,2.4462,2.5368,2.6327,2.7356,2.8432,2.9385,3.0191,3.0685,3.1366,3.22,3.2754,3.2863,3.2627,3.2627,3.2627,3.2627,3.2627,3.2918,3.3473,3.4265,3.4614,3.4669,3.5238,3.5275,3.5155,3.6578,3.6878,3.679,0.0,0.0,0.0,0.0,0.0,0.0,0.0,0.0,0.0,0.0,0.0,0.0,0.0,0.0,0.0,0.0,0.0,0.0,0.0,0.0,0.4622,0.5319,0.4932,0.4912,0.5349,0.5195,0.5402,0.6052,0.5574,0.5435,0.5667,0.6412,0.652,0.6171,0.7553,0.8385,0.8756,0.8807,0.9496,1.0449,0.906,0.8259,0.7705,0.6395,0.5331,0.0,0.0,0.0,0.5356,0.6493,0.6702,0.6659,0.7759,0.8717,0.9746,1.1361,1.3039,1.4472,1.5053,1.6659,1.8463,1.9606,2.0945,2.2043,2.2211,2.2153,2.1886,2.1273,2.0489,1.9844,1.9597,1.945,1.9418,1.9598,1.9698,1.9956,2.0586,2.0226,2.0104,2.0606,2.0983,2.1238,2.1329,2.2271,2.2883,2.2883,2.2965,2.3478,2.4524,2.5164,2.6108,2.7404,2.8443,2.9405,3.0196,3.0927,3.1586,3.2169,3.2701,3.2683,3.2169,3.2169,3.2169,3.2169,3.2169,3.2547,3.325,3.4058,3.4603,3.5045,3.5624,3.5862,3.6028,3.7092,3.7349,3.7323,0.0,0.0,0.0,0.0,0.0,0.0,0.0,0.0,0.0,0.0,0.0,0.0,0.0,0.0,0.0,0.0,0.0,0.0,0.0,0.0,0.0,0.5088,0.4853,0.4834,0.5108,0.5088,0.5292,0.5795,0.5338,0.5229,0.5399,0.5648,0.5615,0.539,0.626,0.6619,0.6574,0.6721,0.6675,0.6511,0.594,0.5404,0.4892,0.4412,0.0,0.0,0.0,0.0,0.0,0.5244,0.6403,0.7327,0.8055,0.981,1.1649,1.1751,1.2936,1.4306,1.4766,1.6261,1.7858,1.8416,1.9774,2.0784,2.012,2.0639,2.0876,1.9547,1.9459,1.9332,0.0,0.0,1.8096,1.7609,1.7522,1.7888,1.8921,1.8443,1.8751,0.0,0.0,0.0,0.0,0.0,2.2327,2.2361,2.2588,2.344,2.5045,2.5384,2.6233,2.7816,2.8564,2.9324,3.0145,3.0879,3.1674,3.2417,3.2451,3.2451,3.2451,3.2451,3.2451,3.2451,3.2451,3.2713,3.3154,3.319,3.3898,3.4962,3.5054,3.6036,3.7441,3.7514,3.7991,3.8652,0.0,0.0,0.0,0.0,0.0,0.0,0.0,0.0,0.0,0.0,0.0,0.0,0.0,0.0,0.0,0.0,0.0,0.0,0.0,0.0,0.0,0.0,0.0,0.0,0.0,0.0,0.0,0.0,0.0,0.4562,0.5189,0.5406,0.5169,0.4627,0.5501,0.5457,0.4757,0.48,0.5212,0.5784,0.0,0.4823,0.5203,0.0,0.0,0.0,0.0,0.0,0.0,0.0,0.0,0.0,0.8121,0.9832,1.1979,1.1793,1.2777,1.4088,1.4614,1.5632,1.6784,1.7766,1.8529,1.909,1.9338,1.8713,1.798,1.76,1.6723,1.5956,0.0,0.0,0.0,1.7585,1.7896,0.0,1.9781,1.9531,0.0,2.0863,0.0,2.1203,2.2061,2.2237,2.253,2.3071,2.3175,2.3879,2.5377,2.5538,2.6165,2.7422,2.7887,2.8533,2.9361,3.0372,3.108,3.1524,3.1842,3.1986,3.1986,3.1986,3.1986,3.1986,3.1986,3.2057,3.2231,3.3186,3.397,3.4655,3.5882,3.6468,3.6696,3.7503,3.7817,3.7772,0.0,0.0,0.0,0.0,0.0,0.0,0.0,0.0,0.0,0.0,0.0,0.0,0.0,0.0,0.0,0.0,0.0,0.0,0.0,0.0,0.0,0.0,0.0,0.0,0.0,0.0,0.0,0.0,0.0,0.0,0.0,0.4704,0.452,0.3799,0.4283,0.4183,0.3641,0.3535,0.0,0.0,0.0,0.0,0.0,0.0,0.0,0.0,0.0,0.0,0.0,0.0,0.0,0.8721,0.8573,0.9667,1.1039,1.1049,0.0,1.2428,1.3215,1.4038,1.484,1.572,1.6517,1.7064,1.6822,1.6531,1.6171,1.5603,1.5066,1.4658,1.4498,1.4554,1.4915,0.0,0.0,0.0,1.8478,1.8797,1.9224,0.0,2.0866,0.0,2.1401,2.2128,2.2892,2.3558,2.3489,2.4036,2.5524,2.5609,2.618,2.7499,2.8049,2.8851,3.0004,3.0609,3.1022,3.119,3.1411,3.1545,3.1545,3.1545,3.1545,3.1545,3.1545,3.1829,3.2345,3.2703,3.3722,3.5126,3.5697,3.6227,3.6754,3.738,3.7485,3.7368,0.0,0.0,0.0,0.0,0.0,0.0,0.0,0.0,0.0,0.0,0.0,0.0,0.0,0.0,0.0,0.0,0.0,0.0,0.0,0.0,0.0,0.0,0.0,0.0,0.0,0.0,0.0,0.0,0.0,0.0,0.0,0.0,0.0,0.0,0.0,0.0,0.0,0.0,0.0,0.0,0.0,0.0,0.0,0.0,0.0,0.0,0.0,0.0,0.0,0.0,0.5792,0.818,0.9003,0.9484,0.978,1.0214,1.0322,1.0488,1.1416,1.2168,1.2799,1.3276,1.4278,1.4912,1.3857,1.4418,1.4827,1.3775,0.0,1.4437,1.4135,1.3673,1.3496,1.3985,0.0,1.4725,1.6697,1.7458,1.8313,1.9632,2.061,2.0965,2.0429,2.1881,2.3095,2.3687,2.3641,2.4228,2.5676,2.5761,2.6387,2.7739,2.8569,2.9651,3.1038,3.1055,3.1106,3.119,3.119,3.119,3.119,3.119,3.119,3.1207,3.1292,3.1957,3.2838,3.2147,3.3432,3.5751,3.4994,3.5738,3.7173,3.7114,3.7152,3.7173,0.0,0.0,0.0,0.0,0.0,0.0,0.0,0.0,0.0,0.0,0.0,0.0,0.0,0.0,0.0,0.0,0.0,0.0,0.0,0.0,0.0,0.0,0.0,0.0,0.0,0.0,0.0,0.0,0.0,0.0,0.0,0.0,0.0,0.0,0.0,0.0,0.0,0.0,0.0,0.0,0.0,0.0,0.0,0.0,0.0,0.0,0.0,0.0,0.0,0.0,0.6755,0.8685,0.8311,0.9267,1.0582,1.0673,1.0723,1.0722,1.0906,1.1446,1.2122,1.2752,1.2915,1.3031,1.3606,1.322,0.0,0.0,1.3333,1.3643,1.3414,1.3699,1.429,1.5293,1.5454,1.6114,1.8089,1.8463,1.8944,0.0,2.0354,2.0574,2.0829,2.1676,2.2391,2.288,2.3935,2.5146,2.6454,2.6505,2.6911,2.7755,2.8569,2.9414,3.0294,3.0294,3.0598,3.119,3.119,3.119,3.119,3.119,3.119,3.1224,3.1833,3.2235,3.2417,3.2281,3.347,3.5344,3.4579,3.5475,3.7152,3.6684,3.6803,3.7058,0.0,0.0,0.0,0.0,0.0,0.0,0.0,0.0,0.0,0.0,0.7837,0.8521,0.0,0.0,0.0,0.0,0.0,0.0,0.0,0.0,0.0,0.0,0.0,0.0,0.0,0.0,0.4361,0.4469,0.0,0.0,0.0,0.3956,0.3626,0.3081,0.0,0.0,0.0,0.0,0.0,0.0,0.0,0.0,0.0,0.0,0.0,0.0,0.0,0.0,0.0,0.0,0.6008,0.7758,0.8078,0.8618,0.9273,0.9651,0.9762,0.9762,0.9762,1.0269,1.0914,1.1598,1.1599,1.1654,1.2384,0.0,0.0,0.0,1.3002,1.3574,1.3838,1.3839,0.0,1.4602,1.4443,1.4979,1.7161,1.7474,0.0,1.9778,2.0299,2.0467,2.0357,2.127,2.19,2.2079,2.3589,2.497,2.6066,2.7249,2.8044,2.8416,2.9533,3.0294,3.0666,3.0666,3.0852,3.119,3.119,3.119,3.119,3.119,3.119,3.1207,3.1562,3.1935,3.2297,3.1867,3.2961,3.4812,3.4076,3.484,3.6316,3.6097,3.6139,3.6274,0.0,0.0,0.0,0.0,0.0,0.0,0.0,0.744,0.7141,0.6366,0.6622,0.729,0.8368,0.8821,0.0,0.0,0.0,0.0,0.0,0.0,0.0,0.0,0.0,0.0,0.0,0.0,0.0,0.4159,0.4321,0.0,0.0,0.0,0.0,0.0,0.2757,0.2488,0.2466,0.0,0.0,0.0,0.0,0.2172,0.0,0.0,0.0,0.0,0.0,0.0,0.0,0.0,0.499,0.634,0.7485,0.7822,0.782,0.8352,0.8652,0.8804,0.8804,0.9316,0.9961,1.061,1.0621,1.0583,1.1284,1.124,0.0,1.1827,1.2638,1.3418,1.3911,0.0,1.3424,0.0,1.315,1.3587,1.5937,1.6339,1.7143,0.0,2.0079,0.0,1.9735,2.0782,2.1477,2.1466,2.3235,2.4783,2.5796,2.7841,2.9011,2.9011,3.0429,3.119,3.119,3.119,3.119,3.119,3.119,3.119,3.119,3.119,3.119,3.1207,3.136,3.1749,3.2239,3.1664,3.2544,3.4184,3.3457,3.4066,3.5368,3.5368,3.547,3.5622,0.0,0.0,0.0,0.0,0.0,0.0,0.0,0.7416,0.701,0.5668,0.6261,0.6973,0.7387,0.7889,0.0,0.0,0.0,0.0,0.0,0.0,0.0,0.0,0.0,0.0,0.0,0.0,0.0,0.4981,0.4765,0.0,0.0,0.0,0.0,0.0,0.0,0.3384,0.3377,0.3356,0.0,0.0,0.0,0.0,0.0,0.0,0.0,0.0,0.0,0.0,0.0,0.0,0.0,0.4798,0.582,0.6925,0.7811,0.7502,0.0,0.0,0.8804,0.9316,0.9961,1.061,1.012,0.9775,1.1186,0.0,1.0081,1.0844,1.1872,1.256,1.2357,1.2653,1.3059,1.3454,0.0,1.3501,1.5811,1.6245,1.6949,1.8593,0.0,0.0,1.969,2.0363,2.0926,2.1281,2.3468,2.5292,2.6522,2.8112,2.9011,2.9011,3.0429,3.119,3.119,3.119,3.119,3.119,3.119,3.119,3.119,3.119,3.119,3.1241,3.1901,3.2222,3.2273,3.2246,3.2696,3.344,3.2679,3.3288,3.459,3.459,3.503,3.5622,0.0,0.0,0.0,0.0,0.0,0.0,0.0,0.6985,0.6221,0.4964,0.5099,0.5439,0.5814,0.6765,0.7873,0.0,0.0,0.0,0.0,0.0,0.0,0.0,0.0,0.0,0.0,0.0,0.5108,0.5108,0.4991,0.0,0.0,0.0,0.0,0.0,0.0,0.4043,0.4147,0.3822,0.0,0.0,0.0,0.0,0.0,0.0,0.0,0.0,0.0,0.0,0.0,0.0,0.0,0.0,0.5518,0.6303,0.0,0.0,0.7602,0.8317,0.8497,0.8871,0.9318,0.9818,0.9313,0.8973,1.0022,0.0,0.9862,1.041,1.1353,1.2033,1.1943,1.2335,1.2676,1.2761,0.0,0.0,1.5874,1.5651,1.6229,1.9001,1.9181,1.9256,1.9645,2.0618,2.1833,2.3407,2.4407,2.5628,2.7266,2.8399,2.9194,2.9651,3.0649,3.119,3.119,3.0768,3.0768,3.119,3.0751,3.0768,3.119,3.119,3.119,3.1207,3.1495,3.163,3.163,3.163,3.2053,3.2696,3.2391,3.3186,3.4489,3.4489,3.4979,3.5622,0.0,0.0,0.0,0.0,0.0,0.0,0.7365,0.6601,0.5678,0.4415,0.4398,0.4622,0.4929,0.6227,0.7583,0.884,0.0,0.0,0.0,0.0,0.0,0.0,0.0,0.0,0.0,0.0,0.5108,0.5108,0.5108,0.5175,0.0,0.0,0.5278,0.5708,0.0,0.0,0.0,0.0,0.0,0.0,0.0,0.0,0.0,0.0,0.0,0.0,0.0,0.0,0.0,0.0,0.0,0.0,0.0,0.0,0.0,0.0,0.7052,0.7862,0.8163,0.8457,0.8779,0.9296,0.8731,0.8286,0.0,0.0,0.9443,0.9835,1.0783,1.1542,1.1542,1.1945,1.2365,1.2519,0.0,1.3327,1.5641,1.5593,1.6259,1.8802,0.0,1.9256,1.9929,2.1259,2.2801,2.4617,2.5088,2.5976,2.7492,2.826,2.8991,2.9753,3.0497,3.0869,3.0869,3.0142,3.0142,3.0869,3.0125,3.0159,3.0869,3.0869,3.0987,3.119,3.119,3.119,3.119,3.119,3.1495,3.1985,3.2188,3.3051,3.4201,3.4421,3.4979,3.5622,0.0,0.0,0.0,0.0,0.0,0.0,0.0,0.6379,0.5642,0.4109,0.4548,0.5011,0.5084,0.6542,0.7611,0.79,0.0,0.0,0.0,0.0,0.0,0.0,0.0,0.0,0.0,0.0,0.5108,0.5108,0.5108,0.5327,0.5785,0.5785,0.6036,0.6477,0.0,0.0,0.0,0.0,0.0,0.0,0.0,0.0,0.0,0.0,0.0,0.0,0.0,0.0,0.0,0.0,0.0,0.0,0.0,0.0,0.0,0.0,0.6454,0.758,0.7849,0.815,0.857,0.9237,0.8497,0.7821,0.0,0.8642,0.852,0.8949,1.0101,1.1008,1.1008,1.1431,1.2079,1.2958,1.3209,0.0,1.4937,1.6372,1.7386,0.0,1.8897,1.9944,2.0632,2.2325,2.3622,2.4163,2.5317,2.6327,2.7069,2.7576,2.8197,2.9011,2.9736,3.0125,3.0125,2.9364,2.9364,3.0108,2.9347,2.9397,3.0125,3.0125,3.0514,3.119,3.119,3.119,3.119,3.119,3.119,3.1275,3.1985,3.2747,3.3508,3.4218,3.4979,3.5622,0.0,0.0,0.0,0.0,0.0,0.0,0.0,0.6713,0.6065,0.5308,0.5254,0.5349,0.5551,0.6733,0.755,0.7681,0.0,0.0,0.0,0.0,0.0,0.0,0.0,0.0,0.0,0.0,0.5898,0.5569,0.5569,0.565,0.5803,0.5803,0.6229,0.6959,0.6621,0.6553,0.0,0.0,0.0,0.0,0.0,0.0,0.0,0.0,0.0,0.0,0.0,0.0,0.0,0.0,0.0,0.0,0.0,0.0,0.0,0.0,0.0,0.0,0.6934,0.7228,0.7399,0.7238,0.6975,0.6743,0.6838,0.7508,0.8218,0.8511,0.9856,1.1019,1.1019,1.1689,1.2472,1.3004,1.3437,0.0,0.0,0.0,0.0,1.8216,1.9908,2.1193,2.1818,2.3453,2.4753,2.5386,2.6077,2.6806,2.7561,2.7719,2.818,2.8958,2.9211,2.9347,2.9347,2.8569,2.8569,2.933,2.8552,2.8586,2.9364,2.9871,2.9956,2.9736,3.0751,3.0903,3.0497,3.0987,3.119,3.1207,3.1444,3.2307,3.3372,3.3085,3.41,3.5537,0.0,0.0,0.0,0.0,0.0,0.0,0.0,0.7068,0.6467,0.5914,0.5902,0.5939,0.5853,0.7042,0.779,0.7652,0.0,0.0,0.0,0.0,0.0,0.0,0.0,0.0,0.0,0.6596,0.6213,0.562,0.5586,0.5586,0.562,0.5761,0.6286,0.7069,0.6904,0.6855,0.0,0.0,0.0,0.0,0.0,0.0,0.6443,0.0,0.0,0.0,0.0,0.0,0.0,0.0,0.0,0.0,0.0,0.0,0.0,0.0,0.6304,0.6187,0.0,0.6781,0.6797,0.6321,0.6138,0.0,0.5926,0.6808,0.7843,0.8515,0.9772,1.0883,1.1249,1.1934,1.2662,1.3326,1.4063,1.4985,0.0,0.0,0.0,1.8937,2.0573,2.1701,2.2024,2.3895,2.5226,2.5584,2.6285,2.6894,2.7368,2.7402,2.7621,2.8112,2.8399,2.8552,2.8552,2.7774,2.7791,2.8535,2.7774,2.7791,2.8552,2.9025,2.9313,2.9465,3.0395,3.0683,0.0,3.1004,3.119,3.1224,3.1495,3.2171,3.2949,3.278,3.3761,3.5131,0.0,0.0,0.0,0.0,0.0,0.0,0.0,0.0,0.0,0.0,0.657,0.6733,0.6152,0.747,0.8217,0.0,0.0,0.0,0.0,0.0,0.0,0.0,0.0,0.0,0.0,0.6779,0.615,0.5364,0.5332,0.5348,0.5415,0.5795,0.6332,0.6986,0.7132,0.7096,0.0,0.0,0.0,0.0,0.0,0.0,0.0,0.0,0.0,0.0,0.0,0.0,0.0,0.0,0.0,0.0,0.0,0.0,0.0,0.0,0.0,0.0,0.0,0.6794,0.6643,0.0,0.0,0.0,0.5859,0.6514,0.0,0.8814,0.9829,1.0734,1.1684,1.2234,1.2889,1.3873,1.4917,0.0,0.0,1.8057,0.0,0.0,2.0903,2.166,2.1497,2.3771,2.513,2.4926,2.5984,2.6623,2.6623,2.6623,2.664,2.6691,2.7368,2.7705,2.7705,2.7046,2.7046,2.7688,2.7029,2.7063,2.7705,2.7755,2.8569,2.9871,2.9973,3.0412,3.1038,3.1089,3.114,3.1258,3.1935,3.2263,3.2357,3.3017,3.3744,3.4421,0.0,0.0,0.0,0.0,0.0,0.0,0.0,0.0,0.0,0.0,0.0,0.7652,0.8013,0.8254,0.0,0.0,0.0,0.0,0.0,0.0,0.0,0.0,0.0,0.0,0.0,0.7101,0.6698,0.5982,0.6323,0.6503,0.6519,0.6629,0.7025,0.765,0.7334,0.7096,0.0,0.0,0.0,0.0,0.0,0.0,0.0,0.0,0.0,0.0,0.9568,0.9538,0.0,0.0,0.0,0.0,0.0,0.0,0.0,0.0,0.7353,0.7241,0.7068,0.0,0.6026,0.5688,0.581,0.5915,0.0,0.0,0.7596,0.0,0.0,1.1215,1.2153,1.3368,1.4332,1.4581,1.5224,1.5996,1.6938,1.8012,0.0,1.963,2.1073,2.1827,2.1388,2.3876,2.5079,2.4066,2.5179,2.5862,2.5862,2.5862,2.6116,2.6674,2.686,2.6962,2.6962,2.6793,2.6793,2.6962,2.6776,2.6793,2.6979,2.7554,2.7706,2.7554,2.8738,2.9347,2.955,3.0125,3.0683,3.1207,3.1376,3.1782,3.2239,3.185,3.2544,3.366,0.0,0.0,0.0,0.0,0.0,0.0,0.0,0.0,0.0,0.0,0.0,0.0,0.0,0.0,0.0,0.0,0.0,0.0,0.0,0.0,0.0,0.0,0.0,0.0,0.7195,0.6975,0.6581,0.5978,0.6068,0.626,0.6534,0.638,0.6763,0.7561,0.7223,0.0,0.0,0.0,0.0,0.0,0.7737,0.0,0.0,0.0,0.0,0.0,1.0311,1.0131,0.0,0.9215,0.8833,0.8467,0.0,0.0,0.0,0.0,0.7569,0.7462,0.7598,0.6982,0.6178,0.5807,0.5911,0.6094,0.6022,0.0,0.0,0.0,0.0,0.0,1.2961,1.4016,0.0,0.0,1.5921,0.0,0.0,0.0,1.9128,1.9409,2.1007,2.1718,2.0922,2.3191,2.4298,2.3309,2.4408,2.5101,2.5101,2.5101,2.527,2.5676,2.6015,2.6353,2.6691,2.6691,2.6691,2.6691,2.6691,2.6691,2.6708,2.7114,2.7266,2.7249,2.8095,2.8653,2.9008,2.9414,2.982,3.0209,3.0565,3.0937,3.1275,3.1207,3.1918,3.2899,0.0,0.0,0.0,0.0,0.0,0.0,0.0,0.0,0.0,0.0,0.0,0.0,0.0,0.0,0.0,0.0,0.0,0.0,0.0,0.0,0.0,0.0,0.0,0.7164,0.7195,0.6667,0.6199,0.5783,0.5426,0.5529,0.6028,0.5777,0.6197,0.718,0.6873,0.672,0.0,0.0,0.7098,0.7107,0.8279,0.0,0.0,0.0,0.0,0.0,0.0,0.0,0.0,0.9429,0.8821,0.8233,0.7841,0.0,0.0,0.0,0.0,0.0,0.799,0.765,0.7033,0.6593,0.6557,0.6657,0.0,0.0,0.0,0.0,0.0,0.0,0.0,1.4299,0.0,0.0,0.0,0.0,1.8967,1.9398,1.9574,1.9379,2.0889,2.1564,2.0597,2.2394,2.3357,2.2708,2.3684,2.4337,2.4337,2.4337,2.4388,2.4506,2.5101,2.5727,2.6353,2.6573,2.6691,2.6691,2.6691,2.664,2.6539,2.664,2.6979,2.7451,2.757,2.8095,2.8805,2.8805,2.8873,2.9042,2.9685,3.0006,3.0192,3.0801,3.1495,3.2138,0.0,0.0,0.0,0.0,0.0,0.0,0.0,0.0,0.0,0.0,0.0,0.0,0.0,0.0,0.0,0.0,0.0,0.0,0.0,0.0,0.0,0.0,0.7386,0.6967,0.7195,0.635,0.5977,0.6122,0.5724,0.5617,0.5757,0.5826,0.6334,0.7166,0.6332,0.6398,0.7101,0.7002,0.716,0.7514,0.7901,0.0,0.0,0.0,0.0,0.0,0.0,0.0,0.0,0.9012,0.8634,0.8233,0.7841,0.0,0.0,0.0,0.0,0.0,0.7577,0.8251,0.9022,0.8438,0.8555,0.8803,0.8754,0.0,0.0,0.0,0.0,0.0,0.0,1.4249,1.4818,0.0,0.0,1.9071,1.8965,1.9959,2.0606,2.0193,2.1039,2.1575,2.1399,2.2648,2.3152,2.2428,2.311,2.3562,2.3562,2.3562,2.3849,2.4489,2.4625,2.4712,2.4845,2.6065,2.6691,2.6691,2.6691,2.637,2.5795,2.642,2.642,2.5981,2.6607,2.73,2.7994,2.7994,2.8383,2.8991,2.911,2.955,3.0125,3.0243,3.0734,3.1444,0.0,0.0,0.0,0.0,0.0,0.0,0.0,0.0,0.0,0.0,0.0,0.0,0.0,0.0,0.0,0.0,0.0,0.0,0.0,0.0,0.0,0.7595,0.733,0.7138,0.7037,0.6043,0.5563,0.5653,0.5005,0.494,0.5443,0.6014,0.6399,0.6591,0.6341,0.6478,0.6871,0.6772,0.6772,0.6931,0.0,0.0,0.0,0.0,0.0,0.0,0.0,0.0,0.0,0.0,0.8439,0.7976,0.8004,0.0,0.0,0.0,0.0,0.0,0.7368,0.7982,0.8745,0.8839,0.9558,1.0229,1.0046,0.0,0.0,0.0,0.0,0.0,0.0,0.0,1.5453,1.7364,1.8513,1.9417,2.0036,2.0507,2.0691,2.0461,2.1322,2.1899,2.1612,2.2333,2.2682,2.2344,2.2615,2.2818,2.2818,2.2818,2.297,2.3291,2.3697,2.39,2.39,2.4966,2.549,2.549,2.549,2.5541,2.5625,2.5947,2.6133,2.6201,2.6539,2.6894,2.7215,2.7215,2.7418,2.7791,2.8197,2.8569,2.8975,2.9803,3.0565,3.1309,0.0,0.0,0.0,0.0,0.0,0.0,0.0,0.0,0.0,0.0,0.0,0.0,0.0,0.0,0.0,0.0,0.0,0.0,0.0,0.0,0.7723,0.7202,0.7337,0.7186,0.666,0.5768,0.5298,0.5251,0.4348,0.434,0.5148,0.5839,0.6139,0.613,0.6268,0.6402,0.6515,0.6515,0.6428,0.6413,0.0,0.0,0.0,0.0,0.0,0.0,0.0,0.0,0.0,0.0,0.0,0.0,0.0,0.0,0.0,0.7585,0.7536,0.7462,0.7069,0.7665,0.8417,0.8654,0.0,1.075,1.1015,0.0,0.0,0.0,0.0,0.0,0.0,1.5136,0.0,1.8119,1.8768,1.95,2.0933,2.105,2.0948,2.0788,2.168,2.2163,2.1794,2.2106,2.231,2.231,2.231,2.231,2.231,2.231,2.231,2.231,2.2852,2.3139,2.3139,2.3697,2.4167,2.4506,2.4506,2.4695,2.5101,2.527,2.5558,2.593,2.6099,2.6167,2.6184,2.637,2.6336,2.6268,2.7199,2.7672,2.7975,2.955,3.0463,3.1055,0.0,0.0,0.0,0.0,0.0,0.0,0.0,0.0,0.0,0.0,0.0,0.0,0.0,0.0,0.0,0.0,0.0,0.0,0.0,0.0,0.7679,0.8,0.7512,0.6805,0.5901,0.5557,0.5387,0.5383,0.4446,0.4315,0.492,0.4861,0.5319,0.6183,0.5751,0.5828,0.6224,0.6224,0.6347,0.6651,0.7431,0.0,0.0,0.0,0.0,0.0,0.0,0.0,0.0,0.0,0.0,0.0,0.0,0.0,0.8528,0.7591,0.7934,0.8216,0.6482,0.77,0.9224,0.8151,0.8669,0.0,1.1518,1.2823,0.0,1.4947,0.0,0.0,0.0,1.4964,1.5285,1.6743,1.8113,1.946,2.0829,2.1685,2.2022,2.1576,2.1969,2.2282,2.2237,2.2282,2.231,2.231,2.231,2.231,2.231,2.231,2.231,2.231,2.2361,2.2395,2.2395,2.2446,2.3139,2.4506,2.4506,2.4154,2.3579,2.4255,2.4222,2.368,2.434,2.4675,2.4726,2.5406,2.527,2.4811,2.6218,2.7199,2.7975,2.955,3.0142,3.0294,0.0,0.0,0.0,0.0,0.0,0.0,0.0,0.0,0.0,0.0,0.0,0.0,0.0,0.0,0.0,0.0,0.0,0.0,0.0,0.0,0.733,0.7349,0.7131,0.6631,0.5815,0.5365,0.5071,0.4895,0.4512,0.4312,0.4362,0.5103,0.554,0.5713,0.5869,0.6028,0.6189,0.6189,0.6183,0.6224,0.6928,0.778,0.0,0.0,0.0,0.0,0.0,0.0,0.0,0.0,0.8828,0.8467,0.8855,0.8584,0.8061,0.7748,0.7542,0.7173,0.6169,0.7169,0.8237,0.7235,0.0,0.0,0.0,1.3525,1.4389,1.4469,1.6091,0.0,0.0,0.0,1.6896,1.7444,1.912,2.0705,2.1678,2.2077,2.2237,2.2061,2.218,2.231,2.231,2.231,2.231,2.231,2.231,2.231,2.231,2.231,2.231,2.231,2.231,2.231,2.231,2.231,2.2581,2.3122,2.3122,2.3224,2.341,2.368,2.39,2.4086,2.4388,2.4506,2.4523,2.478,2.4729,2.4608,2.5609,2.6759,2.7857,2.8431,2.9296,3.0142,0.0,0.0,0.0,0.0,0.0,0.0,0.0,0.0,0.0,0.0,0.0,0.0,0.0,0.0,0.0,0.0,0.0,0.0,0.0,0.6766,0.6818,0.6981,0.6792,0.6409,0.5852,0.5333,0.4998,0.4847,0.4748,0.4564,0.4369,0.5324,0.5542,0.5172,0.5703,0.5849,0.5711,0.5866,0.5931,0.5988,0.6973,0.7772,0.0,0.0,0.0,0.0,0.0,0.0,0.0,0.0,0.9128,0.8871,0.9262,0.8726,0.7956,0.7914,0.7356,0.6669,0.6268,0.687,0.7538,0.0,0.0,0.0,1.1989,1.3471,1.4485,1.5094,1.6239,1.6923,1.6307,0.0,1.6975,1.7685,1.9207,2.0615,2.1454,2.1556,2.1556,2.1556,2.1556,2.1556,2.1556,2.1803,2.1854,2.1573,2.204,2.2209,2.1972,2.2175,2.231,2.231,2.231,2.231,2.231,2.231,2.231,2.231,2.231,2.2564,2.3054,2.3054,2.3325,2.3799,2.3799,2.3799,2.3816,2.4052,2.4272,2.4557,2.505,2.6015,2.7182,2.762,2.8448,2.9431,0.0,0.0,0.0,0.0,0.0,0.0,0.0,0.0,0.0,0.0,0.0,0.0,0.0,0.0,0.0,0.0,0.0,0.0,0.5803,0.5803,0.6229,0.7148,0.6556,0.6101,0.5922,0.5446,0.5271,0.539,0.519,0.5103,0.5108,0.5371,0.5178,0.4623,0.5161,0.5094,0.4634,0.5169,0.5596,0.6045,0.7706,0.8342,0.8477,0.0,0.0,0.0,0.0,0.0,0.0,0.0,0.9143,0.8871,0.9289,0.9001,0.843,0.8022,0.7515,0.7035,0.6785,0.7001,0.7438,0.0,0.0,0.0,1.1462,1.2626,1.4245,1.7241,1.677,1.6065,1.6921,1.5577,1.4987,1.6978,1.7906,1.8775,1.9833,2.0002,2.0002,2.0002,2.0002,2.0002,2.0002,2.072,2.0856,2.0052,2.1404,2.1955,2.1237,2.1887,2.2293,2.2293,2.2293,2.2293,2.2293,2.231,2.231,2.231,2.231,2.231,2.231,2.231,2.231,2.231,2.231,2.231,2.2361,2.3088,2.3816,2.4506,2.4506,2.4932,2.5795,2.7232,2.7772,2.7891,0.0,0.0,0.0,0.0,0.0,0.0,0.0,0.0,0.0,0.0,0.0,0.0,0.0,0.0,0.0,0.0,0.0,0.0,0.5803,0.5803,0.6159,0.6956,0.6349,0.6252,0.68,0.6224,0.5595,0.4968,0.5062,0.5104,0.5098,0.5093,0.4985,0.4819,0.5124,0.5174,0.5051,0.555,0.5888,0.6153,0.6662,0.7427,0.8358,0.0,0.0,0.0,0.0,0.0,0.0,0.0,0.0,0.0,0.9712,0.912,0.8331,0.8215,0.7509,0.6785,0.6951,0.7505,0.0,0.0,0.0,0.0,0.0,1.2018,0.0,0.0,1.5341,1.4749,1.5945,1.6111,1.6269,1.6921,1.8004,1.9026,1.9883,2.0002,2.0002,2.0002,2.0002,2.0002,2.0002,2.0204,2.0255,2.0018,2.0424,2.0576,2.0382,2.0559,2.0677,2.0677,2.1228,2.1515,2.1515,2.204,2.231,2.231,2.231,2.231,2.231,2.231,2.231,2.231,2.231,2.231,2.2327,2.2547,2.3054,2.3714,2.3714,2.4492,2.5659,2.6099,2.6928,2.7823,0.0,0.0,0.0,0.0,0.0,0.0,0.0,0.0,0.0,0.0,0.0,0.0,0.0,0.0,0.0,0.0,0.0,0.0,0.0,0.0,0.5807,0.6431,0.6084,0.6061,0.6521,0.5951,0.5312,0.4633,0.4944,0.5039,0.4932,0.4793,0.476,0.4781,0.4738,0.4871,0.5136,0.5545,0.5884,0.6248,0.6685,0.73,0.801,0.0,0.0,0.0,0.0,0.0,0.0,0.0,0.0,0.0,0.9328,0.0,0.7989,0.8236,0.7638,0.705,0.7727,0.8063,0.0,0.0,0.8858,0.9489,1.0501,0.0,0.0,0.0,1.4641,1.4139,1.5214,1.55,1.5671,1.5968,1.6911,1.7743,1.8177,1.8245,1.8346,1.8657,1.8691,1.8809,1.9089,1.9376,1.9427,1.914,1.9664,1.9866,1.9587,1.9833,2.0002,2.0002,2.0483,2.072,2.072,2.1177,2.1566,2.1854,2.1854,2.2023,2.231,2.231,2.231,2.231,2.231,2.231,2.231,2.231,2.2564,2.2987,2.3291,2.3934,2.4763,2.505,2.5727,2.6539,0.0,0.0,0.0,0.0,0.0,0.0,0.0,0.0,0.0,0.0,0.0,0.0,0.0,0.0,0.0,0.0,0.0,0.0,0.0,0.0,0.5319,0.5808,0.5818,0.5706,0.5504,0.5112,0.475,0.4424,0.4885,0.4961,0.4693,0.4526,0.449,0.4575,0.4175,0.4372,0.5028,0.5306,0.5735,0.636,0.7374,0.7653,0.7604,0.8956,0.0,0.0,0.0,0.0,0.0,0.0,0.0,0.0,0.8427,0.7868,0.7506,0.8009,0.7765,0.7591,0.8645,0.0,0.0,0.0,0.9221,0.0,0.9473,1.2182,1.4687,1.4892,0.0,1.3989,1.4588,1.414,1.3855,1.4511,1.5031,1.539,1.5494,1.5494,1.5764,1.6512,1.6597,1.6847,1.754,1.82,1.8318,1.7659,1.8887,1.9418,1.8724,1.9393,1.9799,1.9799,1.9866,1.99,1.99,1.9968,2.0382,2.1075,2.1075,2.1431,2.2107,2.2243,2.231,2.231,2.231,2.231,2.231,2.231,2.231,2.2378,2.3038,2.3342,2.3477,2.4137,2.4455,2.4608,0.0,0.0,0.0,0.0,0.0,0.0,0.0,0.0,0.0,0.0,0.0,0.0,0.0,0.0,0.0,0.0,0.0,0.0,0.0,0.0,0.5403,0.6086,0.5969,0.5771,0.5509,0.5609,0.5328,0.4629,0.4943,0.4971,0.4686,0.4237,0.421,0.4507,0.4106,0.4393,0.5173,0.5386,0.5976,0.6761,0.6842,0.7323,0.7977,0.8303,0.8478,0.0,0.0,0.0,0.0,0.0,0.0,0.0,0.8081,0.7719,0.734,0.7108,0.7032,0.71,0.0,0.7834,0.0,0.0,0.9127,0.9162,0.8501,0.9739,1.123,1.199,1.302,1.3829,1.3989,1.3674,1.3488,1.3797,1.3727,1.3895,1.4629,1.4749,1.502,1.5747,1.5832,1.59,1.6052,1.6221,1.6238,1.6086,1.6898,1.7359,1.719,1.7879,1.8262,1.8262,1.8843,1.9147,1.9147,1.9697,2.0086,2.0255,2.0255,2.0322,2.0525,2.1742,2.231,2.231,2.231,2.231,2.231,2.231,2.231,2.2327,2.2479,2.2885,2.341,2.3579,2.3985,2.4523,0.0,0.0,0.0,0.0,0.0,0.0,0.0,0.0,0.0,0.0,0.0,0.0,0.0,0.0,0.0,0.0,0.0,0.0,0.0,0.0,0.0,0.5825,0.5492,0.5252,0.5127,0.552,0.5377,0.4706,0.5088,0.0,0.0,0.0,0.0,0.5311,0.4377,0.4469,0.5351,0.5457,0.5769,0.6186,0.6141,0.6532,0.7175,0.7493,0.7686,0.7828,0.8167,0.0,0.0,0.0,0.0,0.0,0.0,0.0,0.6687,0.6696,0.6744,0.6879,0.0,0.0,0.0,0.7802,0.0,0.8116,0.7626,0.8467,0.9458,0.9967,1.106,1.1939,1.1939,1.1867,1.1866,1.209,1.2087,1.2373,1.3312,1.3447,1.3853,1.4952,1.5071,1.5206,1.5561,1.5595,1.5595,1.5595,1.595,1.6153,1.6153,1.6864,1.727,1.727,1.7997,1.8369,1.8369,1.8735,1.9106,1.9486,1.9486,1.9647,2.0035,2.0829,2.1184,2.1218,2.1617,2.1769,2.1803,2.2158,2.231,2.231,2.231,2.2547,2.2868,2.2868,2.3122,2.3494,0.0,0.0,0.0,0.0,0.0,0.0,0.0,0.0,0.0,0.0,0.0,0.0,0.0,0.0,0.0,0.0,0.0,0.0,0.0,0.0,0.0,0.5437,0.5014,0.4778,0.4765,0.5243,0.5291,0.4834,0.0,0.0,0.0,0.0,0.0,0.5953,0.0,0.4606,0.5498,0.5555,0.5553,0.5552,0.5699,0.5977,0.6357,0.6949,0.7091,0.708,0.8028,0.7875,0.7237,0.7071,0.0,0.0,0.0,0.0,0.6015,0.6394,0.6615,0.6815,0.0,0.0,0.0,0.6813,0.6859,0.0,0.6867,0.7681,0.8437,0.8437,0.9213,0.989,0.989,0.9933,1.0062,1.0272,1.0407,1.0812,1.176,1.2009,1.2551,1.3785,1.4157,1.4513,1.4986,1.5138,1.5223,1.5223,1.5341,1.5409,1.5409,1.6241,1.6648,1.6512,1.7219,1.7608,1.7608,1.7608,1.798,1.8707,1.8707,1.9029,1.9613,1.9613,1.9765,2.0035,2.0703,2.0974,2.1042,2.1803,2.2124,2.2124,2.226,2.231,2.231,2.231,2.231,2.2395,0.0,0.0,0.0,0.0,0.0,0.0,0.0,0.0,0.0,0.0,0.0,0.0,0.0,0.0,0.0,0.0,0.0,0.0,0.6886,0.0,0.0,0.5424,0.5232,0.5099,0.504,0.5339,0.5473,0.5387,0.0,0.0,0.0,0.0,0.0,0.4806,0.0,0.0,0.5514,0.5747,0.5942,0.6111,0.6369,0.6701,0.7083,0.7411,0.7377,0.7176,0.7324,0.7086,0.6712,0.6677,0.651,0.0,0.0,0.0,0.6088,0.5765,0.6237,0.6799,0.0,0.0,0.0,0.0,0.6722,0.6805,0.0,0.0,0.7411,0.7411,0.8732,0.989,0.989,0.9447,0.9171,0.9496,0.9087,0.9101,1.0165,1.0859,1.1333,1.1536,1.272,1.3329,1.2787,1.3328,1.3701,1.3701,1.4293,1.4646,1.4646,1.595,1.6411,1.5764,1.6479,1.6851,1.6851,1.6851,1.7219,1.7963,1.7963,1.8014,1.8099,1.8099,1.8785,2.0002,2.0103,2.0154,2.0204,2.1008,2.1356,2.1397,2.2057,2.231,2.231,2.231,2.231,2.2327,0.0,0.0,0.0,0.0,0.0,0.0,0.0,0.0,0.0,0.0,0.0,0.0,0.0,0.0,0.0,0.654,0.6275,0.6513,0.7382,0.672,0.6135,0.5804,0.5259,0.4952,0.4923,0.5313,0.5435,0.0,0.0,0.0,0.0,0.4441,0.4623,0.0,0.0,0.0,0.0,0.5793,0.5791,0.5591,0.5757,0.6041,0.6386,0.6579,0.6811,0.7048,0.7162,0.6934,0.6599,0.6591,0.6423,0.6165,0.5973,0.0,0.0,0.0,0.6012,0.0,0.6214,0.0,0.6076,0.0,0.614,0.6065,0.5852,0.6438,0.7021,0.7021,0.796,0.8784,0.8784,0.8544,0.853,0.9141,0.9113,0.9357,1.0319,1.081,1.1096,1.1096,1.1688,1.2162,1.228,1.2584,1.2973,1.3379,1.3684,1.387,1.387,1.4885,1.5325,1.5003,1.5697,1.6292,1.6699,1.6699,1.7067,1.7811,1.7811,1.7811,1.7811,1.7811,1.8143,1.8785,1.9215,1.9384,1.9452,2.0213,2.0788,2.1237,2.1549,2.1938,2.231,2.231,2.231,2.231,0.0,0.0,0.0,0.0,0.0,0.0,0.0,0.0,0.0,0.0,0.0,0.0,0.0,0.0,0.0,0.0,0.6626,0.7076,0.7915,0.713,0.6565,0.6393,0.5734,0.5315,0.5197,0.5518,0.0,0.0,0.0,0.0,0.4212,0.4591,0.4971,0.0,0.5037,0.0,0.0,0.0,0.0,0.0,0.519,0.5418,0.5702,0.5716,0.6051,0.6521,0.6811,0.669,0.6428,0.6558,0.6428,0.6183,0.6106,0.6027,0.0,0.0,0.0,0.0,0.0,0.0,0.5793,0.5902,0.5755,0.5577,0.0,0.0,0.6827,0.7039,0.7515,0.7899,0.7899,0.8034,0.8319,0.8848,0.9399,0.9877,1.0262,1.0779,1.0961,1.0602,1.0859,1.1333,1.1942,1.2178,1.2601,1.3345,1.3396,1.3396,1.3396,1.4107,1.441,1.4242,1.4936,1.5578,1.6157,1.6512,1.7067,1.7811,1.7608,1.7625,1.7772,1.7608,1.7625,1.7845,1.8386,1.8623,1.8674,1.9435,2.0196,2.0906,2.1136,2.1651,2.231,2.231,2.231,2.231,0.0,0.0,0.0,0.0,0.0,0.0,0.0,0.0,0.0,0.0,0.0,0.0,0.7247,0.7111,0.6938,0.6439,0.7097,0.7877,0.8701,0.8346,0.7804,0.7157,0.6966,0.0,0.6329,0.6223,0.0,0.0,0.0,0.0,0.4219,0.5315,0.5077,0.3749,0.4219,0.4765,0.533,0.0,0.0,0.0,0.0,0.5453,0.5664,0.5358,0.5303,0.5447,0.5967,0.602,0.5913,0.6424,0.6418,0.6242,0.648,0.6394,0.6224,0.0,0.0,0.0,0.0,0.6855,0.0,0.6089,0.5886,0.0,0.0,0.621,0.6645,0.7415,0.7739,0.7899,0.7899,0.8424,0.8758,0.848,0.9567,1.0103,0.9138,1.0216,1.0572,0.9179,1.0246,1.1113,1.1164,1.1857,1.2601,1.3345,1.3396,1.3396,1.3396,1.4107,1.4191,1.3481,1.4174,1.4579,1.4596,1.5984,1.7067,1.7794,1.7084,1.7117,1.7794,1.7067,1.7134,1.7811,1.7845,1.7862,1.7912,1.8657,1.9401,2.0137,2.0889,2.1651,2.231,2.231,2.231,2.231,0.0,0.0,0.0,0.0,0.0,0.0,0.0,0.0,0.0,0.0,0.0,0.0,0.0,0.8122,0.8051,0.7249,0.7903,0.8588,0.9085,0.8738,0.8263,0.7668,0.7322,0.6795,0.6089,0.5869,0.0,0.0,0.0,0.5476,0.4099,0.5151,0.5153,0.4319,0.4875,0.5074,0.5079,0.5807,0.0,0.0,0.0,0.0,0.0,0.5318,0.5442,0.5929,0.6295,0.6369,0.6369,0.6693,0.6727,0.6664,0.6748,0.6818,0.6858,0.6956,0.0,0.0,0.0,0.0,0.0,0.6619,0.6214,0.5881,0.5927,0.5916,0.6079,0.6813,0.7121,0.7391,0.7824,0.8094,0.8546,0.9421,1.0128,1.0459,1.0159,1.0692,1.0538,0.9078,0.9365,1.006,1.1011,1.135,1.2043,1.3312,1.3396,1.3396,1.3396,1.365,1.3667,1.3413,1.4124,1.4733,1.5206,1.6208,1.6576,1.639,1.6614,1.6851,1.7101,1.7304,1.7557,1.7811,1.7811,1.7811,1.7828,1.8099,1.8927,2.0018,2.0331,2.1211,2.231,2.231,2.231,2.231,0.0,0.0,0.0,0.0,0.0,0.0,0.0,0.0,0.0,0.0,0.0,0.0,0.0,0.0,0.9169,0.8404,0.8843,0.9295,0.9638,0.9523,0.9089,0.8308,0.7958,0.7338,0.6358,0.6264,0.6069,0.0,0.0,0.0,0.0,0.5105,0.5136,0.4483,0.4952,0.5117,0.0,0.0,0.0,0.5566,0.0,0.0,0.5552,0.4843,0.5014,0.5719,0.6079,0.6292,0.6442,0.6539,0.6634,0.67,0.6747,0.7025,0.7332,0.7332,0.0,0.0,0.7425,0.0,0.0,0.0,0.6336,0.605,0.5594,0.5636,0.5885,0.6287,0.652,0.6785,0.7167,0.7406,0.8014,0.9374,1.0144,1.0475,1.0208,1.0494,1.0284,0.9044,0.9111,0.9755,1.0978,1.1386,1.2097,1.3376,1.3462,1.3462,1.3462,1.3413,1.3396,1.3396,1.3922,1.4534,1.5223,1.603,1.6149,1.5612,1.636,1.6699,1.6716,1.7202,1.7574,1.7811,1.7811,1.7811,1.7828,1.8082,1.8887,2.0018,2.0289,2.1194,2.231,2.231,2.231,2.231,0.0,0.0,0.0,0.0,0.0,0.0,0.0,0.0,0.0,0.0,0.0,0.0,0.0,0.0,0.0,0.9792,0.9755,0.9944,1.0396,1.0739,1.0359,0.9107,0.9036,0.8485,0.7246,0.753,0.7212,0.0,0.0,0.0,0.0,0.0,0.4985,0.4027,0.4367,0.4809,0.529,0.0,0.4953,0.497,0.0,0.4628,0.4983,0.3935,0.3984,0.467,0.5224,0.5709,0.6082,0.5937,0.6097,0.6367,0.6504,0.0,0.0,0.0,0.0,0.0,0.0,0.0,0.0,0.0,0.0,0.6375,0.5066,0.5461,0.6062,0.593,0.6058,0.6141,0.5941,0.6437,0.7205,0.8192,0.9535,1.0103,0.9071,0.9557,0.9726,0.8993,0.954,1.0284,1.1028,1.1926,1.2785,1.3532,1.3617,1.3617,1.3617,1.3478,1.3413,1.343,1.3576,1.3903,1.4496,1.5414,1.5774,1.5581,1.6326,1.6682,1.6699,1.6733,1.7117,1.7811,1.7811,1.7811,1.7862,1.8589,1.9333,2.0069,2.0873,2.1651,2.231,2.231,2.231,2.231,0.0,0.0,0.0,0.0,0.0,0.0,0.0,0.0,0.0,0.0,0.0,0.0,0.0,0.9586,0.8761,0.8794,0.893,0.9595,1.095,1.115,1.0866,1.013,1.0102,0.9329,0.7745,0.7615,0.7108,0.6204,0.0,0.0,0.0,0.0,0.0,0.0,0.4668,0.5027,0.5442,0.5361,0.0,0.4921,0.4898,0.4905,0.4913,0.4521,0.4547,0.4903,0.554,0.5947,0.6129,0.5898,0.6424,0.7272,0.7846,0.0,0.0,0.0,0.0,0.0,0.8243,0.0,0.0,0.0,0.0,0.0,0.6591,0.6213,0.594,0.5907,0.6058,0.6188,0.6123,0.6265,0.653,0.6967,0.858,0.973,0.9574,0.9819,0.9726,0.8993,0.9078,0.9704,1.0978,1.1458,1.2224,1.3513,1.3721,1.3827,1.3827,1.3632,1.375,1.4174,1.4228,1.44,1.471,1.4986,1.5141,1.5256,1.5833,1.6431,1.7004,1.7343,1.7608,1.7811,1.7811,1.7811,1.7862,1.8589,1.9333,2.0069,2.0873,2.1651,2.231,2.231,2.231,2.231,0.0,0.0,0.0,0.0,0.0,0.0,0.0,0.0,0.0,0.0,0.0,0.0,0.0,0.0,0.9682,0.9779,0.9778,1.0205,1.123,1.1423,1.1213,1.0515,1.05,0.9787,0.8265,0.8076,0.7483,0.6401,0.0,0.0,0.0,0.0,0.0,0.0,0.0,0.0,0.0,0.0,0.0,0.0,0.485,0.4735,0.4698,0.4463,0.4596,0.4985,0.5652,0.6106,0.6271,0.567,0.6119,0.7005,0.7557,0.811,0.0,0.0,0.0,0.0,0.0,0.0,0.0,0.0,0.0,0.0,0.662,0.6273,0.5959,0.5246,0.5316,0.5461,0.5386,0.5658,0.5951,0.6064,0.7328,0.8432,0.8866,0.927,0.9371,0.8942,0.9179,0.981,1.0978,1.1562,1.2373,1.3634,1.3824,1.3913,1.3913,1.378,1.3841,1.4127,1.4212,1.4228,1.4229,1.4655,1.4924,1.502,1.594,1.663,1.712,1.7586,1.7811,1.7811,1.7811,1.7811,1.7862,1.8589,1.9333,2.0103,2.1228,2.1921,2.231,2.231,2.231,2.231,0.0,0.0,0.0,0.0,0.0,0.0,0.0,0.0,0.0,0.0,0.0,0.0,0.0,0.0,0.0,1.1493,1.1264,1.1197,1.1341,1.1637,1.1451,1.0693,1.057,0.9979,0.8792,0.8692,0.7981,0.6632,0.0,0.0,0.0,0.0,0.0,0.0,0.0,0.0,0.0,0.0,0.0,0.541,0.4611,0.4363,0.446,0.4048,0.4266,0.4867,0.5504,0.6,0.6223,0.5392,0.5505,0.6077,0.6551,0.7566,0.8631,0.8838,0.8821,0.0,0.0,0.0,0.0,0.8097,0.8381,0.0,0.6186,0.6239,0.6288,0.4693,0.4632,0.4779,0.4513,0.5088,0.5604,0.5577,0.6127,0.6794,0.747,0.8269,0.8773,0.8773,0.9421,1.0183,1.091,1.1823,1.2767,1.3676,1.386,1.3941,1.3941,1.3941,1.3838,1.363,1.3798,1.3776,1.3565,1.4439,1.4986,1.5222,1.6374,1.7049,1.7281,1.7663,1.7839,1.7856,1.7878,1.7861,1.7907,1.8636,1.9358,2.0137,2.1617,2.2243,2.231,2.231,2.231,2.231,1.0609,0.0,0.0,0.0,0.0,0.0,0.0,0.0,0.0,0.0,0.0,0.0,0.0,0.0,0.0,0.0,1.0106,1.0495,1.1629,1.1747,1.1723,1.1546,1.104,1.0234,0.9119,0.8576,0.7653,0.63,0.0,0.0,0.0,0.0,0.0,0.0,0.0,0.0,0.0,0.0,0.5826,0.5314,0.4921,0.4664,0.4456,0.4049,0.398,0.414,0.455,0.4752,0.4927,0.558,0.558,0.5609,0.7389,0.7631,0.7552,0.9016,0.8909,0.8477,0.9176,0.9389,0.9361,0.9199,0.91,0.0,0.8389,0.8221,0.7906,0.6938,0.692,0.6859,0.6178,0.6186,0.6251,0.6084,0.6188,0.6398,0.6757,0.7503,0.8017,0.8017,0.8671,0.9404,1.0136,1.1063,1.1938,1.2704,1.3614,1.4149,1.4149,1.4149,1.4038,1.3856,1.3721,1.3988,1.4695,1.4314,1.5142,1.7157,1.6605,1.7046,1.8298,1.818,1.8125,1.8125,1.8351,1.833,1.8194,1.8913,1.9532,2.0086,2.1042,2.1786,2.231,2.231,2.231,2.231,1.0869,0.0,0.0,0.0,0.0,0.0,0.0,0.0,0.0,0.0,0.0,0.0,0.0,0.0,0.0,0.0,0.0,1.1061,1.176,1.1491,1.1461,1.179,1.1032,1.0432,1.0058,0.9088,0.8226,0.7458,0.0,0.0,0.0,0.0,0.0,0.0,0.0,0.0,0.0,0.0,0.6423,0.6106,0.5138,0.4525,0.4179,0.3971,0.4016,0.4267,0.4769,0.4863,0.4852,0.5449,0.5803,0.6279,0.7853,0.8042,0.8048,0.9795,0.9404,0.8591,0.9467,0.9691,0.9685,0.9617,0.9492,0.0,0.0,0.8495,0.8276,0.7829,0.7556,0.7378,0.7312,0.7044,0.68,0.6626,0.6234,0.6146,0.6671,0.7006,0.7244,0.7342,0.7616,0.8085,0.8829,0.9663,1.0813,1.2387,1.3457,1.4051,1.4051,1.4149,1.411,1.3913,1.3795,1.3929,1.4296,1.3929,1.4856,1.7052,1.6513,1.7082,1.8603,1.8469,1.833,1.8208,1.8489,1.8528,1.8426,1.8793,1.9438,2.0277,2.1096,2.1761,2.231,2.2497,2.2443,2.231,1.1068,0.0,0.0,0.0,0.0,0.0,0.0,0.0,0.0,0.0,0.0,0.0,0.0,0.0,0.0,0.0,0.0,1.1536,1.1775,1.1072,1.0877,1.1416,1.0816,1.0435,1.0372,0.9478,0.8863,0.8561,0.0,0.0,0.0,0.0,0.0,0.0,0.0,0.0,0.0,0.0,0.0,0.6803,0.5291,0.4531,0.4255,0.399,0.4161,0.463,0.5057,0.5148,0.509,0.5251,0.5959,0.6946,0.8004,0.8181,0.8362,1.0209,0.9625,0.8601,0.964,0.9916,0.9886,0.98,0.9769,0.9556,0.0,0.0,0.0,0.8376,0.7926,0.7691,0.8178,0.7873,0.7506,0.7369,0.6645,0.6353,0.7041,0.6832,0.6748,0.7074,0.6875,0.7028,0.7807,0.8529,0.9868,1.211,1.3134,1.3712,1.3881,1.4051,1.4096,1.3969,1.3867,1.3851,1.3872,1.3702,1.4541,1.6385,1.6336,1.7046,1.843,1.8589,1.8547,1.8371,1.8605,1.8716,1.8678,1.8839,1.9527,2.0576,2.1214,2.1849,2.2415,2.2764,2.2703,2.2453,1.2277,1.1929,0.0,0.0,0.0,0.0,0.0,0.0,0.0,0.0,0.0,0.0,0.0,0.0,0.0,0.0,0.0,1.0593,1.173,1.0668,0.0,1.0114,1.0524,1.0025,0.8443,0.8857,0.872,0.7984,0.0,0.0,0.0,0.0,0.0,0.0,0.6828,0.0,0.0,0.0,0.6349,0.6235,0.5384,0.5301,0.5543,0.429,0.4244,0.4796,0.4326,0.4505,0.4976,0.5284,0.5786,0.6487,0.7752,0.7254,0.6694,0.9194,0.8791,0.789,0.9544,0.9982,0.9992,1.0038,1.0054,0.999,0.9763,0.0,0.9546,0.9312,0.0,0.9091,0.8935,0.0,0.0,0.8616,0.8021,0.7647,0.7925,0.7226,0.6977,0.7778,0.7226,0.7149,0.8067,0.8714,0.9755,1.1403,1.2238,1.3022,1.3864,1.3927,1.4011,1.4162,1.381,1.4023,1.4828,1.4024,1.4509,1.6319,1.6303,1.6828,1.7835,1.8607,1.8931,1.8931,1.9132,1.9134,1.9003,1.9705,2.0326,2.0845,2.0933,2.1686,2.2712,2.3021,2.3135,2.3063,1.2654,1.2976,0.0,0.0,0.0,0.0,0.0,0.0,0.0,0.0,0.0,0.0,0.0,0.0,0.0,0.0,0.0,1.1221,1.176,1.0937,0.0,1.0982,1.0731,1.038,0.9974,0.9848,0.9737,0.9636,0.9401,0.0,0.0,0.0,0.0,0.0,0.73,0.0,0.7808,0.0,0.6682,0.6516,0.6127,0.6007,0.5897,0.4295,0.4153,0.4775,0.4678,0.4719,0.4866,0.5007,0.5693,0.661,0.7247,0.7252,0.7346,0.9106,0.8784,0.8143,0.9469,1.0176,1.0433,1.0116,1.0392,1.0611,1.0141,0.9971,1.0016,1.0325,0.0,0.0,0.0,0.0,0.0,0.0,0.8606,0.8324,0.8797,0.7787,0.7091,0.738,0.7406,0.757,0.8025,0.825,0.8644,0.9368,1.126,1.2344,1.2272,1.3206,1.3751,1.3856,1.3676,1.3787,1.4178,1.3711,1.4205,1.5609,1.6121,1.6824,1.774,1.8717,1.9101,1.9001,1.9196,1.9243,1.92,1.9547,2.0246,2.1153,2.1348,2.206,2.3021,2.3141,2.3189,2.3165,1.2863,0.0,0.0,0.0,0.0,0.0,0.0,0.0,0.0,0.0,0.0,0.0,1.2115,1.2246,0.0,0.0,1.1476,1.1431,1.1775,1.1027,1.0793,1.1347,1.0992,1.0835,1.0886,1.0671,1.0675,1.0897,1.0685,0.0,0.0,0.0,0.0,0.0,0.0,0.7648,0.7773,0.0,0.6799,0.6483,0.6143,0.5828,0.5443,0.4494,0.4363,0.4744,0.5013,0.5091,0.5068,0.5069,0.5782,0.6684,0.6864,0.7034,0.7372,0.847,0.8494,0.835,0.9148,1.0091,1.0714,1.0141,1.0449,1.0768,1.0259,1.0082,1.0206,1.0722,1.035,0.0,0.0,0.0,0.9717,0.9624,0.0,0.8978,0.9474,0.88,0.8104,0.7721,0.7831,0.7889,0.7781,0.7858,0.7951,0.8029,1.0142,1.1338,1.1138,1.2258,1.3154,1.3676,1.3632,1.3632,1.3676,1.3526,1.3896,1.4775,1.5887,1.6783,1.7511,1.8752,1.923,1.9102,1.9246,1.9305,1.9323,1.9528,2.0346,2.146,2.1844,2.26,2.3459,2.3459,2.3459,2.3459,1.305,1.3359,0.0,0.0,0.0,0.0,0.0,0.0,0.0,1.3636,1.3743,1.3498,1.2839,1.2771,1.2531,1.1856,1.0668,1.0473,1.1715,1.0623,1.0021,1.0253,1.1215,1.1161,0.9875,1.077,1.115,1.0897,1.1144,1.1275,0.0,0.0,0.0,0.0,0.9651,0.9081,0.8769,0.7311,0.6341,0.5665,0.4886,0.4287,0.4,0.505,0.5134,0.474,0.4997,0.539,0.5765,0.5758,0.6104,0.6531,0.6668,0.6192,0.576,0.6709,0.7508,0.8175,0.8462,0.9603,1.0596,1.012,1.0076,1.0148,1.019,1.019,1.017,1.0148,1.0053,0.9986,0.9942,0.9919,0.9888,0.9881,0.9871,0.0,0.0,1.0463,1.0525,0.9525,0.8757,0.7996,0.7301,0.7805,0.8163,0.8093,0.8781,0.9778,1.1121,1.1202,1.2009,1.3832,1.3691,1.3691,1.3899,1.3691,1.3709,1.3966,1.5604,1.6574,1.6986,1.8574,1.9289,1.9289,1.9289,1.9305,1.9344,2.0152,2.0996,2.1824,2.2312,2.317,2.417,2.417,2.417,2.4113,0.0,0.0,0.0,0.0,0.0,0.0,0.0,1.3109,1.3371,1.3176,1.3135,1.2887,1.2192,1.2132,1.2048,1.1805,1.1401,1.1341,1.1775,1.1805,1.174,1.1536,1.2289,1.238,1.1665,1.1991,1.2123,1.202,1.2107,1.2169,0.0,0.0,0.0,0.0,0.0,0.9015,0.0,0.0,0.6518,0.5176,0.5154,0.4965,0.468,0.4889,0.4861,0.4734,0.501,0.5117,0.5135,0.5143,0.5457,0.577,0.5416,0.5783,0.6345,0.6258,0.6755,0.7553,0.8723,0.9826,1.0612,1.0489,1.1014,1.1319,1.0343,1.0133,1.0148,1.0161,1.0104,1.0061,1.0101,1.0106,1.0091,1.0093,1.0098,1.0072,0.0,1.0675,1.079,0.9879,0.9405,0.9062,0.8811,0.7944,0.7662,0.8257,0.8356,0.9244,1.1231,1.1347,1.2044,1.3523,1.3603,1.3603,1.3575,1.3494,1.3603,1.3931,1.5604,1.6574,1.6945,1.8574,1.9305,1.9305,1.9305,1.9305,1.9344,2.017,2.1015,2.1877,2.2575,2.3398,2.417,2.3937,2.4016,2.417,1.384,0.0,0.0,0.0,0.0,1.2654,1.3406,1.3874,1.4098,1.3898,1.3651,1.325,1.2581,1.2313,1.2063,1.1805,1.1805,1.1908,1.213,1.2431,1.261,1.2681,1.2869,1.2909,1.2757,1.2649,1.261,1.261,1.2764,1.2838,1.284,0.0,0.0,0.0,0.0,0.9745,0.8279,0.7957,0.657,0.4646,0.5061,0.5048,0.4766,0.4712,0.4822,0.4984,0.4963,0.4941,0.4902,0.4902,0.5055,0.519,0.4789,0.5308,0.5978,0.5582,0.6168,0.7106,0.7872,0.9337,1.0585,1.0394,1.1307,1.1959,1.0733,1.0479,1.0589,1.0947,1.0524,1.0479,1.1752,1.1003,1.0396,1.0986,1.0582,1.0271,0.0,1.0976,1.1057,1.0494,1.0225,0.9879,0.9301,0.844,0.8077,0.8401,0.8511,0.9452,1.1441,1.1498,1.2152,1.3648,1.3634,1.3586,1.3591,1.3802,1.4035,1.4353,1.5995,1.6987,1.7367,1.8702,1.9305,1.9305,1.9305,1.9305,1.9344,2.017,2.1015,2.1894,2.2685,2.3492,2.417,2.3976,2.4016,2.419,1.3023,1.2906,1.2785,1.2394,1.2649,1.3347,1.4604,1.4839,1.5066,1.5666,1.5211,1.4542,1.3795,1.3161,1.251,1.1841,1.179,1.2063,1.2719,1.2448,1.264,1.3519,1.2998,1.2792,1.3015,1.2781,1.2652,1.2652,1.3107,1.3328,1.3345,0.0,0.0,0.0,1.3021,0.0,0.8305,0.8112,0.6528,0.4189,0.456,0.4536,0.4294,0.4583,0.5026,0.5438,0.4901,0.4863,0.5098,0.5098,0.498,0.4824,0.4824,0.4766,0.4713,0.4713,0.5761,0.6766,0.6143,0.8261,1.0518,0.9888,1.1004,1.2072,1.1314,1.1238,1.1553,1.24,1.1379,1.1301,1.4484,1.2474,1.0818,1.2324,1.1271,1.054,1.1353,1.1507,1.1507,1.141,1.1294,1.0538,0.8843,0.9249,0.9364,0.8733,0.9264,1.0285,1.1841,1.1606,1.2277,1.4121,1.381,1.3724,1.3899,1.4496,1.4895,1.5125,1.6742,1.7709,1.8133,1.8922,1.9305,1.9305,1.9305,1.9308,1.9418,2.0244,2.1088,2.195,2.2758,2.3529,2.419,2.419,2.419,2.419,1.4481,1.4278,1.4255,1.4145,1.4338,1.4585,1.4782,1.5218,1.5446,1.511,1.4896,1.4251,1.2841,1.2739,1.2442,1.1497,1.165,1.1856,1.2048,1.2614,1.2923,1.2869,1.3456,1.3692,1.346,1.3537,1.3567,1.3567,1.3691,1.3754,1.3736,0.0,0.0,0.0,0.0,1.1285,0.8587,0.8433,0.7007,0.4843,0.4952,0.5058,0.513,0.4812,0.5032,0.5435,0.4897,0.4863,0.5098,0.5098,0.5059,0.502,0.502,0.5016,0.5,0.5,0.5239,0.571,0.6613,0.8371,1.0044,1.036,1.1776,1.2882,1.2099,1.2427,1.3021,1.3398,1.3608,1.3653,1.3383,1.2646,1.1795,1.0964,1.0979,1.1382,1.2247,1.2921,1.2863,1.1624,1.3092,1.3003,0.9929,0.9795,1.0263,1.1185,1.0309,1.0881,1.3443,1.252,1.2536,1.393,1.3885,1.3856,1.3899,1.4348,1.4828,1.5332,1.6791,1.7709,1.8133,1.8922,1.9305,1.9305,1.9305,1.9638,2.0262,2.1106,2.1951,2.2776,2.3584,2.4025,2.419,2.419,2.419,2.419,1.4949,1.5045,1.5492,1.6259,1.605,1.5683,1.5291,1.5623,1.5802,1.5373,1.4472,1.3599,1.2906,1.2419,1.193,1.1351,1.1599,1.1908,1.2219,1.2669,1.2966,1.3042,1.3614,1.382,1.3604,1.3796,1.3898,1.3898,1.3993,1.3846,1.3525,0.0,0.0,0.0,0.0,1.1911,0.9735,0.8287,0.6971,0.5799,0.5208,0.5051,0.0,0.4819,0.4883,0.5112,0.4804,0.4866,0.5098,0.5098,0.5098,0.5098,0.5098,0.5098,0.5098,0.5098,0.5078,0.5215,0.6016,0.7449,0.8954,0.9999,1.1553,1.2807,1.2696,1.3077,1.369,1.4537,1.4297,1.432,1.5658,1.414,1.2397,1.1445,1.1675,1.2142,1.2637,1.3144,1.2981,1.1651,1.2764,1.2704,1.0316,1.103,1.1693,1.1764,1.1217,1.1907,1.4293,1.3194,1.3007,1.4126,1.3997,1.404,1.4394,1.4966,1.5625,1.6333,1.7554,1.8314,1.8647,1.9087,1.9305,1.9305,1.9305,1.9767,2.0558,2.1437,2.2263,2.3088,2.3896,2.419,2.4153,2.3804,2.3896,2.4153,1.5416,1.5903,1.6788,1.8244,1.7751,1.6922,1.6124,1.6025,1.6007,1.5891,1.4184,1.3076,1.3302,1.2197,1.1388,1.1256,1.1548,1.2011,1.263,1.2576,1.2813,1.3396,1.3515,1.3559,1.356,1.3779,1.3912,1.3943,1.4116,1.3865,0.0,0.0,0.0,0.0,0.0,0.0,0.0,0.7858,0.658,0.6452,0.5272,0.4785,0.4759,0.4742,0.475,0.4756,0.4756,0.491,0.5098,0.5098,0.5098,0.5098,0.5098,0.5098,0.5098,0.5098,0.5098,0.5078,0.502,0.618,0.7777,0.9332,1.092,1.234,1.3251,1.3582,1.4126,1.5594,1.4511,1.4548,1.8716,1.5902,1.2971,1.2992,1.2997,1.3099,1.333,1.3328,1.293,1.1934,1.2032,0.0,1.0321,1.22,1.2857,1.1325,1.2003,1.3082,1.4465,1.3699,1.3616,1.4469,1.4136,1.4296,1.5074,1.5894,1.6725,1.7593,1.8536,1.9119,1.9305,1.9305,1.9305,1.9305,1.9305,1.9822,2.0739,2.1492,2.2336,2.3235,2.3804,2.4043,2.3951,2.3144,2.329,2.3804,1.8266,1.8821,1.9186,1.8944,1.9321,1.9086,1.7389,1.6408,1.5713,1.5301,1.4772,1.3912,1.2572,1.2251,1.1809,1.1031,1.1241,1.1548,1.196,1.217,1.2309,1.2439,1.3025,1.3356,1.3359,1.37,1.398,1.415,1.418,1.421,0.0,0.0,0.0,0.0,0.0,0.0,0.9211,0.7375,0.6065,0.5203,0.4926,0.4883,0.5039,0.5033,0.5039,0.5034,0.5034,0.5059,0.5098,0.5098,0.5098,0.5098,0.5098,0.5098,0.5098,0.5098,0.5098,0.5098,0.5078,0.6249,0.7858,0.9392,1.0984,1.2552,1.397,1.4804,1.5397,1.5815,1.669,1.7251,1.6847,1.5461,1.4403,1.4575,1.4604,1.5132,1.6693,1.6348,1.5349,1.3759,1.4824,1.4267,1.0567,1.1184,1.1652,1.123,1.2655,1.3561,1.3625,1.4126,1.4426,1.4499,1.427,1.4606,1.5567,1.6054,1.6872,1.7994,1.8689,1.9119,1.9305,1.9305,1.9305,1.9305,1.9305,2.0152,2.1565,2.1748,2.2666,2.3933,2.3419,2.3217,2.3125,2.2299,2.2097,2.2299,1.9935,2.0069,0.0,2.0303,2.0074,1.9404,1.8117,1.6985,1.5978,1.5166,1.4266,1.3353,1.2448,1.2015,1.1599,1.1145,1.1371,1.1636,1.179,1.2048,1.2199,1.2198,1.2758,1.3165,1.3299,1.3655,1.3956,1.421,1.4289,1.4194,1.3893,1.4297,0.0,0.0,0.0,1.2411,0.989,0.8449,0.7052,0.572,0.507,0.4914,0.5098,0.5098,0.5096,0.5094,0.5094,0.5103,0.5098,0.5098,0.5098,0.5098,0.5098,0.5098,0.5098,0.5098,0.5693,0.6347,0.6347,0.7462,0.9034,1.0639,1.161,1.2568,1.4146,1.4811,1.5331,1.6226,1.678,1.7023,1.6768,1.6345,1.6092,1.6271,1.5979,1.6204,1.7598,1.751,1.6292,1.3681,1.4127,1.3299,0.9898,1.0336,1.1344,1.2561,1.2971,1.3821,1.5348,1.4961,1.5025,1.5716,1.564,1.5982,1.6718,1.7077,1.7674,1.857,1.8968,1.9214,1.9305,1.9305,1.9305,1.9305,1.9305,2.026,2.1839,2.2244,2.2887,2.3511,2.2685,2.2373,2.2281,2.1437,2.1125,2.118,2.0971,2.0716,2.0466,2.1334,2.0322,1.9162,1.8493,1.743,1.6243,1.4979,1.37,1.279,1.2366,1.1727,1.1303,1.1303,1.1537,1.1702,1.1805,1.2011,1.2115,1.2115,1.251,1.2887,1.3141,1.3518,1.3832,1.4127,1.4344,1.4121,1.3574,1.4205,1.4169,1.3581,1.3836,1.2903,1.1039,0.9633,0.8119,0.6564,0.5288,0.4904,0.5098,0.5098,0.5098,0.5098,0.5098,0.5098,0.5098,0.5098,0.5098,0.5098,0.5098,0.5098,0.5098,0.5098,0.5988,0.7062,0.7403,0.8345,0.9683,1.1692,1.2159,1.254,1.4139,1.4488,1.4909,1.634,1.6497,1.6588,1.7333,1.7615,1.7662,1.7473,1.7123,1.7136,1.7924,1.7939,1.6868,1.4206,1.3564,1.2554,1.0554,1.0654,1.1878,1.4362,1.3695,1.4245,1.6668,1.5818,1.5774,1.692,1.6917,1.7172,1.7785,1.799,1.841,1.9069,1.9212,1.9305,1.9305,1.9305,1.9305,1.9305,1.9305,2.0134,2.1584,2.2409,2.274,2.2666,2.184,2.151,2.1418,2.0556,2.0228,2.0228,2.1541,2.1222,2.0938,2.105,2.0151,1.9162,1.8493,1.743,1.6094,1.4414,1.3895,1.3205,1.1916,1.1498,1.1293,1.1293,1.1329,1.1482,1.179,1.1805,1.1841,1.1841,1.2115,1.2396,1.2668,1.3119,1.3549,1.394,1.4138,1.4293,1.4389,1.4451,1.4451,1.4378,1.4234,1.3201,1.1441,0.9798,0.8263,0.683,0.5321,0.4874,0.5098,0.5098,0.5098,0.5098,0.5098,0.5098,0.5098,0.5098,0.5098,0.5098,0.5098,0.5098,0.5098,0.5098,0.5215,0.5646,0.7107,0.7558,0.8359,1.144,1.2191,1.2613,1.4142,1.4488,1.4756,1.5637,1.6917,1.7923,1.801,1.8617,1.8689,1.7433,1.7874,1.8491,1.8753,1.8236,1.7718,1.7444,1.6035,1.4996,1.4819,1.3452,1.3618,1.6179,1.5534,1.5101,1.5209,1.6394,1.7077,1.7167,1.7014,1.7261,1.8049,1.8082,1.8485,1.9274,1.9289,1.9305,1.9305,1.9305,1.9305,1.9305,1.9305,1.9803,2.0686,2.1547,2.1913,2.1822,2.096,2.0613,2.0521,1.9711,1.9399,1.9399,2.1183,2.1105,2.1016,2.1016,2.0127,1.9179,1.8498,1.744,1.602,1.4156,1.3849,1.3271,1.1908,1.165,1.1599,1.1599,1.1599,1.165,1.179,1.1805,1.1805,1.1805,1.1908,1.2169,1.2591,1.3025,1.3454,1.3898,1.4719,1.5129,1.5215,1.5215,1.4958,1.4506,1.4785,1.37,1.1564,0.9955,0.8407,0.6883,0.5459,0.4964,0.5098,0.5098,0.5098,0.5098,0.5098,0.5098,0.5098,0.5098,0.5098,0.5246,0.6102,0.6368,0.6554,0.7468,0.8421,0.9359,1.0122,1.0977,1.2091,1.3853,1.4302,1.4587,1.5685,1.5582,1.5582,1.6885,1.8139,1.8976,1.8842,1.8864,1.8827,1.8659,1.8727,1.8981,1.9546,1.9472,1.8796,1.7296,1.6495,1.5707,1.4719,1.3982,1.4194,1.5708,1.5004,1.5331,1.7175,1.7365,1.7801,1.8603,1.8628,1.87,1.8812,1.8947,1.9095,1.9305,1.9305,1.9305,1.9305,1.9305,1.9305,1.9341,1.9803,2.0207,2.0521,2.0886,2.1015,2.0941,2.0097,1.9785,1.9748,1.9418,1.9305,1.9305,2.0716,2.0714,2.0615,2.0615,1.9669,1.8747,1.8275,1.72,1.5872,1.4285,1.4099,1.3514,1.196,1.1805,1.1841,1.1908,1.1856,1.1841,1.1908,1.1841,1.1805,1.1805,1.1805,1.205,1.2591,1.2989,1.3421,1.3913,1.487,1.5343,1.5343,1.5343,1.505,1.4524,1.4945,1.4136,1.2299,1.032,0.8793,0.7572,0.572,0.5014,0.5098,0.5098,0.5098,0.5154,0.5638,0.5811,0.5805,0.5774,0.6058,0.6484,0.7039,0.721,0.7488,0.8991,1.0436,1.1633,1.2019,1.3106,1.4407,1.5435,1.5692,1.5912,1.6725,1.6502,1.6528,1.7966,1.9,1.9617,1.9476,1.9176,1.9032,1.9257,1.9262,1.9354,1.9722,1.9924,1.9441,1.7929,1.7291,1.672,1.6053,1.5527,1.5565,1.6403,1.5652,1.6125,1.8352,1.8092,1.8449,1.9676,1.9774,1.9676,1.938,1.9527,1.9499,1.9305,1.9051,1.8941,1.8941,1.8941,1.8812,1.8647,1.9711,2.0008,1.9806,2.006,2.0152,2.0097,1.951,1.9305,1.9305,1.9305,1.9305,1.9305,2.0288,1.9984,1.9711,1.9711,1.8621,1.7724,1.771,1.6615,1.5578,1.4863,1.4801,1.402,1.2011,1.1805,1.1908,1.2167,1.196,1.1908,1.2182,1.196,1.1805,1.1805,1.1805,1.205,1.2591,1.2989,1.3421,1.3913,1.4313,1.4506,1.4506,1.4506,1.4506,1.4488,1.4506,1.4387,1.3966,1.0903,0.9546,0.9213,0.6142,0.498,0.5098,0.5098,0.5098,0.5312,0.6901,0.7472,0.7458,0.7402,0.8306,0.9178,0.7679,0.721,0.7482,0.8878,0.9969,1.0899,1.1681,1.2592,1.3702,1.5288,1.5692,1.5912,1.6725,1.7046,1.7449,1.8402,1.9235,1.9809,1.979,1.979,1.9526,1.8726,1.94,1.9755,1.9116,1.9072,1.9452,2.0357,1.8934,1.8549,2.0262,1.886,1.8235,1.9188,1.8387,1.7805,1.7722,1.8384,1.9164,1.9964,1.9869,1.9726,1.9601,1.9614,1.9499,1.9305,1.8482,1.8115,1.8115,1.8115,1.7679,1.7018,1.861,1.8849,1.8188,1.8977,1.9308,1.9308,1.9289,1.9305,1.9305,1.9305,1.9305,1.9305,1.9256,1.8651,1.8252,1.8905,1.7684,1.6681,1.6968,1.5946,1.5051,1.4848,1.4403,1.3695,1.2588,1.2639,1.2547,1.1975,1.2019,1.2034,1.1936,1.2015,1.1989,1.1811,1.1976,1.2251,1.2591,1.2862,1.3293,1.3913,1.4698,1.5189,1.5325,1.5881,1.5551,1.4524,1.5068,1.491,1.4062,1.192,1.099,1.075,0.862,0.7213,0.6413,0.65,0.5898,0.5252,0.6901,0.7496,0.763,0.8523,0.9122,0.9558,0.989,0.9993,1.0283,1.1793,1.2919,1.3789,1.4181,1.4864,1.5782,1.7028,1.7195,1.7318,1.8306,1.8693,1.8802,1.8628,1.9322,1.9912,1.9813,1.9991,1.9945,1.9382,1.98,2.0087,1.9728,1.9857,2.0117,2.0455,2.0004,1.9896,2.0446,1.9465,1.8649,1.8377,1.8073,1.8132,1.8692,1.8895,1.9323,2.0044,2.0124,1.9979,1.9596,1.9695,1.9585,1.9305,1.8482,1.8096,1.8096,1.8096,1.8262,1.8537,1.85,1.872,1.9142,1.9402,1.9564,1.9632,1.9536,1.9499,1.9485,1.935,1.9398,1.9587,1.8511,1.7899,1.7534,1.8293,1.7121,1.6232,1.6635,1.5814,1.5177,1.5178,1.4794,1.4285,1.3613,1.3569,1.3147,1.2053,1.2009,1.2007,1.1951,1.2117,1.2075,1.1811,1.2149,1.2392,1.2435,1.2824,1.3277,1.3745,1.463,1.5134,1.5252,1.5753,1.546,1.4524,1.5031,1.4898,1.4198,1.2545,1.183,1.1666,0.9945,0.8382,0.7121,0.7183,0.6647,0.6072,0.7674,0.8628,0.9271,0.9998,1.0595,1.111,1.1555,1.2124,1.2824,1.37,1.4927,1.5942,1.5658,1.6248,1.7109,1.7769,1.7817,1.7998,1.9216,1.9585,1.9594,1.9295,1.9707,2.0088,2.0011,2.0153,2.0199,1.9915,2.0108,2.0263,2.0135,2.0263,2.0381,2.0456,2.0476,2.0504,2.0504,1.9728,1.9013,1.8476,1.8427,1.8507,1.8697,1.8956,1.9426,2.015,2.0265,2.0126,1.975,1.9477,1.9244,1.8994,1.7834,1.7085,1.6775,1.7367,1.7766,1.7982,1.8458,1.885,1.9181,1.9531,1.9713,1.9778,1.972,1.963,1.9582,1.9471,1.9438,1.9573,1.7982,1.7489,1.7205,1.7664,1.6751,1.6109,1.6525,1.6094,1.574,1.5788,1.576,1.5475,1.479,1.4403,1.3636,1.2285,1.1971,1.1945,1.2167,1.2179,1.2087,1.1833,1.2316,1.2494,1.2251,1.2929,1.336,1.3526,1.4165,1.4488,1.4488,1.4488,1.4488,1.4488,1.4488,1.4488,1.4396,1.2892,1.2277,1.2183,1.0361,0.8757,0.7421,0.7353,0.7306,0.7488,0.9076,1.0599,1.1859,1.1706,1.2523,1.3465,1.2692,1.3608,1.4881,1.4586,1.594,1.7276,1.6167,1.6763,1.7704,1.772,1.7774,1.8164,1.9482,1.9778,1.9888,2.0216,2.0285,2.0312,2.0312,2.0312,2.0285,2.02,2.0208,2.0208,2.02,2.0216,2.0267,2.039,2.0465,2.0481,2.0415,1.974,1.9277,1.9219,1.9219,1.8831,1.7949,1.8605,1.9359,2.01,2.0119,2.0033,1.9841,1.8961,1.8461,1.8324,1.6802,1.56,1.4754,1.6305,1.6649,1.611,1.8495,1.9151,1.8572,1.9454,1.9813,1.9824,1.9813,1.9738,1.9623,1.9609,1.9532,1.9468,1.682,1.5768,1.5122,1.5943,1.5398,1.4993,1.5402,1.5241,1.5223,1.5713,1.5351,1.479,1.4098,1.3953,1.3355,1.2014,1.2027,1.2048,1.1908,1.2097,1.2169,1.2107,1.2416,1.2684,1.2813,1.2979,1.3312,1.3806,1.4118,1.435,1.4488,1.4488,1.4488,1.4488,1.4488,1.4488,1.4469,1.392,1.3701,1.3564,1.1767,1.0117,0.875,0.8672,0.7962,0.7349,1.0122,1.1338,1.1817,1.2791,1.332,1.3639,1.3888,1.4652,1.5338,1.4865,1.6147,1.7417,1.5905,1.6597,1.7754,1.7942,1.8462,1.9047,1.954,1.9744,1.9847,2.0041,2.0197,2.0312,2.0312,2.0312,2.0049,1.9275,1.9238,1.9265,1.9164,1.9331,1.9711,2.0409,2.0497,2.026,1.9636,1.9372,1.8965,1.8359,1.8301,1.8197,1.792,1.8087,1.8254,1.839,1.8337,1.8241,1.8097,1.788,1.7397,1.6667,1.7482,1.7452,1.6672,1.7723,1.8437,1.8831,1.8828,1.9133,1.9637,1.9858,2.0041,2.0162,2.0022,1.9924,1.9901,1.9797,2.0205,2.0941,1.5708,1.4848,1.4336,1.502,1.4771,1.4626,1.5052,1.5183,1.5387,1.574,1.5241,1.479,1.4718,1.3897,1.3168,1.2753,1.2286,1.196,1.1805,1.2049,1.2153,1.2024,1.2388,1.2609,1.262,1.2877,1.3244,1.3751,1.3969,1.4123,1.4232,1.4228,1.4265,1.4375,1.4361,1.4403,1.4488,1.4387,1.435,1.4235,1.317,1.1772,1.0341,1.0267,0.9703,0.9175,1.087,1.192,1.2626,1.3288,1.3509,1.3614,1.4295,1.5171,1.5905,1.5591,1.6762,1.7893,1.666,1.6976,1.772,1.7881,1.806,1.8452,1.9388,1.9376,1.9315,1.9878,2.0097,2.0197,2.0277,1.9958,1.9538,1.8984,1.862,1.8532,1.8884,1.8715,1.9021,2.0294,2.0124,1.9735,1.9296,1.8858,1.8262,1.7461,1.7405,1.7201,1.6748,1.7065,1.7413,1.7748,1.7722,1.7668,1.7589,1.7218,1.6726,1.6111,1.7047,1.7435,1.7368,1.8208,1.885,1.9254,1.9235,1.9535,2.0012,2.0106,2.0197,2.0285,2.0188,2.0078,1.9984,1.9922,2.0443,2.1282,1.4761,1.434,1.4098,1.4523,1.4536,1.4633,1.5037,1.5504,1.5799,1.5799,1.5314,1.5123,1.5594,1.4035,1.3182,1.3737,1.2667,1.1908,1.1805,1.2011,1.2063,1.1856,1.2305,1.245,1.2252,1.2755,1.321,1.3584,1.3766,1.3885,1.3913,1.3908,1.3989,1.4162,1.4186,1.4294,1.4464,1.4488,1.4488,1.4458,1.4041,1.3022,1.1745,1.1639,1.1533,1.1434,1.1593,1.2488,1.3556,1.3429,1.3413,1.3565,1.4295,1.5297,1.6209,1.6299,1.7258,1.8127,1.7347,1.7266,1.7392,1.7392,1.7238,1.7482,1.9012,1.8949,1.8851,1.9781,1.9993,2.0031,2.0096,1.9496,1.8927,1.8665,1.801,1.7837,1.8768,1.8285,1.847,2.0196,1.9798,1.9274,1.904,1.8433,1.7749,1.6931,1.6755,1.645,1.5893,1.628,1.6868,1.7664,1.7446,1.7311,1.7311,1.6772,1.6397,1.6155,1.6524,1.7047,1.7662,1.8487,1.8856,1.8885,1.9555,1.9926,2.0041,2.0079,2.0177,2.0312,2.0312,2.0197,2.006,2.006,2.0525,2.1172,1.4224,1.3736,1.3484,1.393,1.4293,1.4633,1.5037,1.5504,1.5799,1.5799,1.5725,1.5479,1.5009,1.416,1.3683,1.3788,1.3081,1.239,1.1841,1.1841,1.1945,1.213,1.2222,1.2365,1.253,1.2829,1.321,1.3584,1.363,1.3721,1.3913,1.391,1.3924,1.3955,1.4113,1.4208,1.4257,1.4441,1.4488,1.4378,1.2924,1.2188,1.1929,1.175,1.1559,1.156,1.2798,1.3307,1.3429,1.3413,1.3478,1.371,1.4503,1.4964,1.538,1.623,1.6637,1.6702,1.6114,1.5994,1.6021,1.6021,1.6968,1.7986,1.8272,1.8892,1.9481,1.9771,1.9933,1.984,1.9296,1.9088,1.8549,1.7119,1.6766,1.6997,1.7889,1.794,1.8504,2.0196,2.0238,1.9591,1.8229,1.8583,1.857,1.7761,1.7021,1.7174,1.8442,1.7228,1.6862,1.7657,1.633,1.5599,1.5599,1.6195,1.6471,1.647,1.7886,1.8643,1.8782,1.9638,2.0033,1.9994,1.9404,1.9558,2.0192,1.9485,1.9638,2.0312,2.0312,2.0277,2.0249,2.0249,2.076,2.1433,1.3616,1.3377,1.3364,1.3809,1.4238,1.464,1.5052,1.5504,1.5799,1.5799,1.5504,1.5276,1.5314,1.4418,1.3967,1.4291,1.3733,1.3045,1.2365,1.2357,1.2234,1.1996,1.1975,1.211,1.2369,1.2792,1.3104,1.3278,1.3428,1.3542,1.3636,1.3636,1.3665,1.3736,1.3835,1.4006,1.4219,1.4295,1.4399,1.4433,1.3651,1.3285,1.3165,1.3076,1.2859,1.2661,1.3357,1.3509,1.3396,1.3396,1.3446,1.3546,1.3922,1.4514,1.5148,1.5612,1.5901,1.6019,1.5759,1.538,1.516,1.5582,1.6261,1.6922,1.7348,1.7803,1.8313,1.8914,1.9152,1.9306,1.9503,1.8858,1.8203,1.7933,1.6753,1.6496,1.8294,1.7746,1.7966,2.0146,1.9927,1.9311,1.8561,1.8857,1.875,1.7912,1.7465,1.7572,1.8362,1.7593,1.733,1.7702,1.6946,1.6542,1.6542,1.6946,1.7375,1.7856,1.8638,1.9254,1.9715,2.0119,2.0042,1.96,1.9677,1.9658,1.96,1.9677,1.9946,2.0312,2.0312,2.0312,2.0312,2.0312,2.0812,2.1504,1.3198,1.3198,1.3377,1.393,1.429,1.466,1.5183,1.5578,1.5799,1.5799,1.5344,1.5241,1.574,1.4732,1.4288,1.4971,1.443,1.3741,1.3076,1.3256,1.2907,1.1856,1.1805,1.1927,1.219,1.2662,1.2942,1.3013,1.3277,1.3396,1.3396,1.3396,1.3445,1.3539,1.358,1.376,1.4083,1.4162,1.4282,1.4422,1.4476,1.4399,1.427,1.427,1.4024,1.3661,1.3661,1.3557,1.3396,1.3396,1.3549,1.3684,1.3514,1.4202,1.5056,1.4923,1.5144,1.5417,1.5417,1.4976,1.4701,1.549,1.5692,1.5912,1.6725,1.7037,1.7417,1.8223,1.8674,1.9052,1.9621,1.8781,1.8164,1.8684,1.7163,1.6662,1.8875,1.7985,1.7921,2.0115,1.9735,1.9215,1.9016,1.9234,1.9023,1.8136,1.8078,1.8174,1.8367,1.8131,1.8107,1.8292,1.7907,1.7702,1.7702,1.7895,1.8337,1.8992,1.9215,1.965,2.0312,2.0312,1.9927,1.9338,1.9792,1.9735,1.9338,1.9812,2.0119,2.0312,2.0312,2.0312,2.0331,2.0504,2.085,2.1254,1.3198,1.3198,1.3484,1.4293,1.4481,1.479,1.5607,1.5784,1.5799,1.5799,1.5755,1.574,1.5799,1.5168,1.4993,1.566,1.5094,1.4458,1.3784,1.459,1.4127,1.1908,1.1805,1.193,1.2188,1.2475,1.2759,1.3013,1.3277,1.3396,1.3396,1.3396,1.3396,1.343,1.3556,1.3615,1.3661,1.4038,1.4201,1.4245,1.4411,1.4488,1.4476,1.4476,1.4232,1.3885,1.3885,1.3665,1.3396,1.3396,1.3973,1.4572,1.3828,1.4246,1.4904,1.441,1.4411,1.4579,1.4579,1.4543,1.4701,1.549,1.5692,1.5912,1.6725,1.7477,1.8098,1.8354,1.9094,1.9533,1.8983,1.8896,1.8665,1.7914,1.7743,1.8037,1.8988,1.8982,1.926,2.0192,2.0254,1.9888,1.9088,1.9735,1.9842,1.8977,1.8907,1.9254,2.0073,1.935,1.928,2.0081,1.8542,1.7702,1.7702,1.8491,1.8934,1.9011,1.9812,2.0235,2.0312,2.0312,2.0254,2.0158,1.9415,1.953,2.0158,1.9396,1.9561,2.0312,2.0312,2.0312,2.0389,2.1139,2.0985,2.0485,1.3198,1.3198,1.3389,1.4037,1.4349,1.4718,1.527,1.5607,1.5799,1.5799,1.5799,1.5799,1.5799,1.5578,1.5519,1.5784,1.5578,1.4964,1.3855,1.4166,1.3951,1.3013,1.2541,1.2272,1.2204,1.2455,1.2649,1.2759,1.3158,1.3362,1.3396,1.3494,1.3478,1.3396,1.3445,1.3526,1.3632,1.3899,1.4096,1.4232,1.4411,1.4488,1.4488,1.4488,1.4257,1.3913,1.3913,1.368,1.3396,1.3396,1.3633,1.3973,1.411,1.4158,1.4239,1.4769,1.5436,1.5881,1.538,1.5233,1.5282,1.5428,1.6333,1.7082,1.6722,1.741,1.8111,1.8195,1.8609,1.9031,1.9355,1.9126,1.8964,1.9265,1.8481,1.8318,1.9705,1.9433,1.9406,2.0196,2.0312,2.0177,1.9831,2.0119,2.015,1.9823,1.9812,1.9946,2.0292,1.9985,1.9965,2.0292,1.9658,1.9311,1.9311,1.9638,1.9812,1.9812,2.0139,2.0312,2.0312,2.0312,2.0004,1.9511,1.9715,1.9696,1.9511,1.9715,2.0004,2.0312,2.0312,2.0312,2.035,2.0639,2.0562,2.035,1.3198,1.3198,1.3364,1.3809,1.4122,1.4447,1.4863,1.5299,1.5593,1.5593,1.5725,1.5799,1.5799,1.5799,1.5799,1.5799,1.5607,1.4993,1.3855,1.3488,1.3283,1.3235,1.2751,1.2399,1.2198,1.2388,1.2534,1.2597,1.3071,1.3329,1.3396,1.354,1.3524,1.3396,1.3396,1.3462,1.3556,1.3798,1.3983,1.4123,1.432,1.4399,1.4399,1.435,1.411,1.3813,1.3813,1.3619,1.3396,1.3396,1.3718,1.4141,1.4411,1.4487,1.4625,1.5431,1.6254,1.678,1.6243,1.6261,1.6363,1.5909,1.6775,1.7595,1.7107,1.7559,1.8096,1.8096,1.8453,1.8989,1.9673,1.9456,1.941,2.0172,1.9335,1.9001,2.02,1.9838,1.9673,2.0227,2.0312,2.0312,2.0312,2.0312,2.0312,2.0312,2.0312,2.0312,2.0312,2.0312,2.0312,2.0312,2.0312,2.0312,2.0312,2.0312,2.0312,2.0312,2.0312,2.0312,2.0312,2.0312,1.9965,1.9434,2.0042,1.9965,1.9453,2.0042,2.0312,2.0312,2.0312,2.0312,2.0331,2.0581,2.0523,2.035,1.3198,1.3198,1.3364,1.3796,1.3904,1.402,1.4441,1.4834,1.5095,1.511,1.5519,1.5799,1.5799,1.5799,1.5799,1.5799,1.5183,1.4515,1.3841,1.2795,1.2209,1.2206,1.2207,1.2207,1.219,1.2202,1.2322,1.2605,1.3067,1.3329,1.3396,1.354,1.3524,1.3396,1.3396,1.3396,1.343,1.3771,1.3913,1.3927,1.4123,1.4188,1.4175,1.3983,1.3783,1.3584,1.3584,1.3509,1.3396,1.3396,1.4378,1.546,1.4733,1.5349,1.6321,1.6303,1.6589,1.6927,1.6908,1.7495,1.7931,1.711,1.6908,1.7128,1.7931,1.8115,1.8115,1.8115,1.8916,1.9649,1.9767,1.9912,2.0069,2.0277,2.0312,2.0312,2.0312,2.0312,2.0312,2.0312,2.0312,2.0312,2.0312,2.0312,2.0312,2.0312,2.0312,2.0312,2.0312,2.0312,2.0312,2.0312,2.0312,2.0312,2.0312,2.0312,2.0312,2.0312,2.0312,2.0312,2.0312,2.0312,2.0312,2.0312,2.0312,2.0312,2.0312,2.0312,2.0312,2.0312,2.0312,2.0312,2.0408,2.1196,2.0985,2.0408,1.3198,1.3198,1.3245,1.3377,1.3676,1.3942,1.4066,1.443,1.4776,1.5052,1.5241,1.5446,1.5755,1.5799,1.5799,1.5799,1.5183,1.4317,1.316,1.2516,1.2198,1.2189,1.2393,1.2479,1.2466,1.2285,1.232,1.2605,1.288,1.3156,1.3396,1.354,1.357,1.354,1.354,1.3619,1.3771,1.4015,1.4024,1.3927,1.4123,1.4123,1.3983,1.3927,1.3783,1.3584,1.3584,1.3509,1.3396,1.3396,1.3701,1.4124,1.4411,1.6077,1.7807,1.7294,1.7826,1.8463,1.7913,1.8335,1.8709,1.7703,1.8015,1.8602,1.8701,1.8833,1.8941,1.8941,1.9169,1.9462,1.9743,1.9824,1.9962,2.0241,2.0312,2.0312,2.0312,2.0312,2.0312,2.0312,2.0312,2.0312,2.0312,2.0312,2.0312,2.0312,2.0312,2.0312,2.0312,2.0312,2.0312,2.0312,2.0312,2.0312,2.0312,2.0312,2.0312,2.0312,2.0312,2.0312,2.0312,2.0312,2.0312,2.0312,2.0312,2.0619,2.11,2.0542,2.0639,2.11,2.0523,2.0312,2.0331,2.0581,2.0504,2.0331,1.3245,1.3364,1.3424,1.3245,1.3437,1.3616,1.3616,1.399,1.4359,1.4568,1.489,1.5197,1.5504,1.5681,1.5681,1.5446,1.454,1.355,1.246,1.2182,1.2078,1.2204,1.2246,1.2321,1.2427,1.2283,1.2336,1.2605,1.2908,1.3168,1.3396,1.354,1.3584,1.3584,1.3584,1.3706,1.3913,1.4105,1.4078,1.3913,1.4024,1.3969,1.3783,1.3726,1.3619,1.3526,1.3526,1.3462,1.3396,1.3396,1.3786,1.4481,1.5611,1.7099,1.8401,1.8164,1.8621,1.9089,1.8687,1.8922,1.913,1.8494,1.8812,1.9259,1.915,1.9196,1.9305,1.9305,1.9305,1.9405,1.9731,1.979,1.9909,2.0252,2.0312,2.0312,2.0312,2.0312,2.0312,2.0312,2.0312,2.0312,2.0312,2.0312,2.0312,2.0312,2.0636,2.0707,2.035,2.0666,2.0839,2.0823,2.082,2.0974,2.1339,2.0639,2.0465,2.0773,2.0773,2.0773,2.0773,2.0773,2.06,2.0312,2.0312,2.0754,2.1446,2.0639,2.0773,2.1427,2.0619,2.0312,2.0312,2.0312,2.0312,2.0312,1.3331,1.3621,1.3736,1.327,1.3198,1.3198,1.3198,1.3556,1.3857,1.3904,1.4564,1.5052,1.5095,1.5519,1.5534,1.4935,1.3673,1.2599,1.1945,1.1841,1.1908,1.2152,1.1945,1.1908,1.2167,1.2167,1.2308,1.2594,1.3032,1.3287,1.3396,1.354,1.3617,1.3632,1.3663,1.3783,1.3969,1.4149,1.411,1.3913,1.3913,1.3766,1.357,1.3446,1.3396,1.3396,1.3396,1.3396,1.3396,1.3396,1.4345,1.5826,1.7469,1.8072,1.8283,1.8825,1.9001,1.9069,1.9243,1.9305,1.9305,1.9305,1.9305,1.9305,1.9305,1.9305,1.9305,1.9305,1.9305,1.9419,1.9731,1.9802,1.992,2.0252,2.0312,2.0312,2.0312,2.0312,2.0312,2.0312,2.0312,2.0312,2.0312,2.0369,2.0416,2.0412,2.1288,2.1464,2.0687,2.1393,2.1791,2.174,2.1721,2.2114,2.2896,2.1325,2.0874,2.1504,2.1427,2.1427,2.1504,2.1504,2.1139,2.0523,2.0523,2.0985,2.1658,2.0773,2.0889,2.1523,2.0639,2.0312,2.0312,2.0389,2.04,2.0419,1.3843,1.384,1.3736,1.327,1.3198,1.3198,1.3198,1.3304,1.3484,1.3857,1.4318,1.4736,1.5081,1.5519,1.574,1.5593,1.4369,1.3308,1.263,1.2078,1.1841,1.1893,1.1841,1.1841,1.1893,1.1893,1.2113,1.2593,1.2697,1.2965,1.3396,1.354,1.3676,1.3838,1.3997,1.4175,1.4375,1.4429,1.4232,1.3913,1.3913,1.3726,1.3446,1.3413,1.3396,1.3396,1.3396,1.3396,1.3396,1.3396,1.411,1.5158,1.6146,1.7082,1.7966,1.8768,1.9101,1.9243,1.9289,1.9305,1.9305,1.9305,1.9305,1.9305,1.9305,1.9305,1.9305,1.9305,1.9442,1.9577,1.9774,1.989,2.0031,2.0269,2.0312,2.0312,2.0312,2.0312,2.0312,2.0312,2.0312,2.0312,2.0312,2.0924,2.1345,2.1386,2.222,2.2666,2.2524,2.2633,2.2707,2.2703,2.2704,2.2789,2.2967,2.2596,2.2125,2.1567,2.0897,2.0889,2.1504,2.1504,2.1773,2.2254,2.2254,2.2735,2.3417,2.187,2.1735,2.237,2.0889,2.0312,2.0389,2.1004,2.1265,2.1323,1.4284,1.4169,1.405,1.3616,1.3364,1.327,1.3496,1.3543,1.3676,1.4111,1.4536,1.4881,1.5082,1.5519,1.5666,1.5344,1.4102,1.3187,1.2824,1.2167,1.1805,1.1805,1.1805,1.1805,1.1805,1.1946,1.2178,1.2597,1.2831,1.3126,1.3493,1.3663,1.3838,1.4038,1.4149,1.4307,1.4488,1.4488,1.432,1.4038,1.4038,1.3813,1.351,1.351,1.3462,1.3447,1.3802,1.4229,1.4641,1.464,1.528,1.6255,1.7151,1.7754,1.827,1.8939,1.915,1.9182,1.9274,1.9305,1.9305,1.9305,1.9305,1.9305,1.9305,1.9601,1.9767,1.9381,1.9767,2.0097,1.9861,1.9912,2.0069,2.0277,2.0312,2.0312,2.0312,2.0639,2.0869,2.0869,2.1235,2.1485,2.1485,2.2334,2.274,2.2341,2.3169,2.3506,2.3125,2.3468,2.3654,2.3615,2.3649,2.385,2.4242,2.3415,2.2979,2.2925,2.2447,2.2191,2.2179,2.2602,2.2784,2.2793,2.2793,2.3302,2.3995,2.2658,2.262,2.3302,2.2032,2.1532,2.1606,2.2056,2.2226,2.216,1.466,1.4554,1.4352,1.3986,1.3496,1.3317,1.3723,1.3864,1.4019,1.4333,1.4816,1.5087,1.5096,1.5519,1.5534,1.4863,1.3688,1.2951,1.2884,1.2195,1.1826,1.1869,1.1811,1.1805,1.1805,1.2066,1.2321,1.2611,1.3039,1.3361,1.36,1.3813,1.4011,1.4201,1.4245,1.4332,1.4488,1.4488,1.4387,1.4188,1.4188,1.3983,1.3663,1.36,1.3524,1.3514,1.4108,1.4863,1.5609,1.5763,1.6395,1.7328,1.8457,1.8661,1.8628,1.9159,1.9182,1.9102,1.9243,1.9305,1.9326,1.9473,1.951,1.9528,1.9675,2.0134,2.0264,1.9473,2.01,2.0588,1.9924,1.9912,2.0069,2.0277,2.0427,2.0504,2.0504,2.1216,2.1716,2.1716,2.235,2.2793,2.2793,2.37,2.3992,2.3283,2.4092,2.4316,2.3574,2.4238,2.4609,2.4531,2.459,2.4932,2.5611,2.4175,2.3786,2.4406,2.4503,2.4045,2.3163,2.388,2.3851,2.3235,2.3235,2.3639,2.4225,2.3216,2.3321,2.4014,2.3041,2.278,2.2956,2.3149,2.309,2.2799,1.5037,1.4746,1.4351,1.3984,1.3496,1.321,1.327,1.365,1.392,1.3964,1.4643,1.5096,1.5095,1.5519,1.5534,1.4863,1.4102,1.3516,1.3154,1.2287,1.1897,1.2143,1.1918,1.1805,1.1805,1.2066,1.2333,1.2614,1.2908,1.3227,1.36,1.3813,1.4011,1.4201,1.4387,1.4476,1.4488,1.4488,1.4387,1.4188,1.4188,1.4051,1.3838,1.3678,1.3586,1.3556,1.3548,1.3701,1.4042,1.4794,1.5343,1.5947,1.7489,1.8063,1.8316,1.9072,1.9274,1.9277,1.9289,1.9305,1.9473,2.017,2.0338,2.0537,2.129,2.096,2.0264,1.9473,2.01,2.0588,1.9924,1.9912,2.0069,2.0277,2.0889,2.135,2.135,2.2081,2.262,2.262,2.2735,2.2793,2.2793,2.3713,2.4242,2.4125,2.499,2.5469,2.5352,2.5469,2.5527,2.5508,2.5527,2.5585,2.5696,2.545,2.5021,2.4409,2.5148,2.5011,2.4102,2.4165,2.4505,2.5043,2.4986,2.5034,2.5024,2.3447,2.336,2.4033,2.2414,2.2304,2.3156,2.3862,2.3642,2.2957,1.5504,1.4964,1.4435,1.4271,1.3869,1.3676,1.3904,1.4299,1.4676,1.4936,1.5256,1.5504,1.5504,1.5329,1.5256,1.5344,1.4062,1.3383,1.3749,1.2536,1.1918,1.2205,1.194,1.1805,1.1805,1.222,1.2482,1.261,1.2982,1.3261,1.3443,1.387,1.4105,1.4201,1.4399,1.4488,1.4488,1.4375,1.4282,1.4188,1.4188,1.4065,1.3899,1.3795,1.3691,1.3586,1.353,1.4246,1.5275,1.5713,1.6314,1.7109,1.8261,1.8697,1.8831,1.9198,1.9305,1.9305,1.9305,1.962,2.006,2.0411,2.0868,2.1342,2.1803,2.1985,2.1805,2.0882,2.1563,2.2079,2.1343,2.1001,2.1031,2.1592,2.1581,2.1677,2.2158,2.2985,2.3678,2.4139,2.4197,2.4197,2.4197,2.4668,2.4965,2.4968,2.5418,2.5703,2.5703,2.5703,2.5703,2.5703,2.5703,2.5703,2.5703,2.5698,2.5503,2.5137,2.5521,2.5203,2.4323,2.4778,2.5156,2.5447,2.5428,2.539,2.5313,2.4601,2.4524,2.4793,2.411,2.4122,2.4606,2.4958,2.4801,2.4371]},{"header":{"parameterUnit":"m.s-1","parameterCategory":1,"la1":30.6,"la2":28.766,"lo1":-90.7593,"lo2":-88.6598,"dy":0.0162,"dx":0.0183,"nx":116,"ny":114,"refTime":"2023-08-01T00:00:00:Z","depth":0,"parameterNumber":3,"parameterNumberName":"V-component_of_WINDS"},"data":[0.0,0.0,0.0,0.0,0.0,0.0,0.0,0.0,0.0,0.0,0.0,0.0,0.0,0.0,0.0,0.0,0.0,0.0,0.0,0.0,0.0,0.0,0.0,0.0,0.0,0.0,0.0,0.0,0.0,0.0,0.0,0.0,0.0,0.0,0.0,0.0,0.0,0.0,0.0,0.0,0.0,0.0,0.0,0.0,0.0,0.0,0.0,0.0,0.0,0.0,0.0,0.0,0.0,0.0,0.0,0.0,0.0,0.0,0.0,0.0,0.0,0.0,0.0,0.0,0.0,0.0,0.0,0.0,0.0,0.0,0.0,0.0,0.0,0.0,0.0,0.0,0.0,0.0,0.0,0.0,0.0,0.0,0.0,0.0,0.0,0.0,0.0,0.0,0.0,0.0,0.0,0.0,0.0,0.0,0.0,0.0,0.0,0.0,0.0,0.0,0.0,0.0,0.0,0.0,0.0,0.0,0.0,0.0,0.0,0.0,0.0,0.0,0.0,0.0,0.0,0.0,0.0,0.0,0.0,0.0,0.0,0.0,0.0,0.0,0.0,0.0,0.0,0.0,0.0,0.0,0.0,0.0,0.0,0.0,0.0,0.0,0.0,0.0,0.0,0.0,0.0,0.0,0.0,0.0,0.0,0.0,0.0,0.0,0.0,0.0,0.0,0.0,0.0,0.0,0.0,0.0,0.0,0.0,0.0,0.0,0.0,0.0,0.0,0.0,0.0,0.0,0.0,0.0,0.0,0.0,0.0,0.0,0.0,0.0,0.0,0.0,0.0,0.0,0.0,0.0,0.0,0.0,0.0,0.0,0.0,0.0,0.0,0.0,0.0,0.0,0.0,0.0,0.0,0.0,0.0,0.0,0.0,0.0,0.0,0.0,0.0,0.0,0.0,0.0,0.0,0.0,0.0,0.0,0.0,0.0,0.0,0.0,0.0,0.0,0.0,0.0,0.0,0.0,0.0,0.0,0.0,0.0,0.0,0.0,0.0,0.0,0.0,0.0,0.0,0.0,0.0,0.0,0.0,0.0,0.0,0.0,0.0,0.0,0.0,0.0,0.0,0.0,0.0,0.0,0.0,0.0,0.0,0.0,0.0,0.0,0.0,0.0,0.0,0.0,0.0,0.0,0.0,0.0,0.0,0.0,0.0,0.0,0.0,0.0,0.0,0.0,0.0,0.0,0.0,0.0,0.0,0.0,0.0,0.0,0.0,0.0,0.0,0.0,0.0,0.0,0.0,0.0,0.0,0.0,0.0,0.0,0.0,0.0,0.0,0.0,0.0,0.0,0.0,0.0,0.0,0.0,0.0,0.0,0.0,0.0,0.0,0.0,0.0,0.0,0.0,0.0,0.0,0.0,0.0,0.0,0.0,0.0,0.0,0.0,0.0,0.0,0.0,0.0,0.0,0.0,0.0,0.0,0.0,0.0,0.0,0.0,0.0,0.0,0.0,0.0,0.0,0.0,0.0,0.0,0.0,0.0,0.0,0.0,0.0,0.0,0.0,0.0,0.0,0.0,0.0,0.0,0.0,0.0,0.0,0.0,0.0,0.0,0.0,0.0,0.0,0.0,0.0,0.0,0.0,0.0,0.0,0.0,0.0,0.0,0.0,0.0,0.0,0.0,0.0,0.0,0.0,0.0,0.0,0.0,0.0,0.0,0.0,0.0,0.0,0.0,0.0,0.0,0.0,0.0,0.0,0.0,0.0,0.0,0.0,0.0,0.0,0.0,0.0,0.0,0.0,0.0,0.0,0.0,0.0,0.0,0.0,0.0,0.0,0.0,0.0,0.0,0.0,0.0,0.0,0.0,0.0,0.0,0.0,0.0,0.0,0.0,0.0,0.0,0.0,0.0,0.0,0.0,0.0,0.0,0.0,0.0,0.0,0.0,0.0,0.0,0.0,0.0,0.0,0.0,0.0,0.0,0.0,0.0,0.0,0.0,0.0,0.0,0.0,0.0,0.0,0.0,0.0,0.0,0.0,0.0,0.0,0.0,0.0,0.0,0.0,0.0,0.0,0.0,0.0,0.0,0.0,0.0,0.0,0.0,0.0,0.0,0.0,0.0,0.0,0.0,0.0,0.0,0.0,0.0,0.0,0.0,0.0,0.0,0.0,0.0,0.0,0.0,0.0,0.0,0.0,0.0,0.0,0.0,0.0,0.0,0.0,0.0,0.0,0.0,0.0,0.0,0.0,0.0,0.0,0.0,0.0,0.0,0.0,0.0,0.0,0.0,0.0,0.0,0.0,0.0,0.0,0.0,0.0,0.0,0.0,0.0,0.0,0.0,0.0,0.0,0.0,0.0,0.0,0.0,0.0,0.0,0.0,0.0,0.0,0.0,0.0,0.0,0.0,0.0,0.0,0.0,0.0,0.0,0.0,0.0,0.0,0.0,0.0,0.0,0.0,0.0,0.0,0.0,0.0,0.0,0.0,0.0,0.0,0.0,0.0,0.0,0.0,0.0,0.0,0.0,0.0,0.0,0.0,0.0,0.0,0.0,0.0,0.0,0.0,0.0,0.0,0.0,0.0,0.0,0.0,0.0,0.0,0.0,0.0,0.0,0.0,0.0,0.0,0.0,0.0,0.0,0.0,0.0,0.0,0.0,0.0,0.0,0.0,0.0,0.0,0.0,0.0,0.0,0.0,0.0,0.0,0.0,0.0,0.0,0.0,0.0,0.0,0.0,0.0,0.0,0.0,0.0,0.0,0.0,0.0,0.0,0.0,0.0,0.0,0.0,0.0,0.0,0.0,0.0,0.0,0.0,0.0,0.0,0.0,0.0,0.0,0.0,0.0,0.0,0.0,0.0,0.0,0.0,0.0,0.0,0.0,0.0,0.0,0.0,0.0,0.0,0.0,0.0,0.0,0.0,0.0,0.0,0.0,0.0,0.0,0.0,0.0,0.0,0.0,0.0,0.0,0.0,0.0,0.0,0.0,0.0,0.0,0.0,0.0,0.0,0.0,0.0,0.0,0.0,0.0,0.0,0.0,0.0,0.0,0.0,0.0,0.0,0.0,0.0,0.0,0.0,0.0,0.0,0.0,0.0,0.0,0.0,0.0,0.0,0.0,0.0,0.0,0.0,0.0,0.0,0.0,0.0,0.0,0.0,0.0,0.0,0.0,0.0,0.0,0.0,0.0,0.0,0.0,0.0,0.0,0.0,0.0,0.0,0.0,0.0,0.0,0.0,0.0,0.0,0.0,0.0,0.0,0.0,0.0,0.0,0.0,0.0,0.0,0.0,0.0,0.0,0.0,0.0,0.0,0.0,0.0,0.0,0.0,0.0,0.0,0.0,0.0,0.0,0.0,0.0,0.0,0.0,0.0,0.0,0.0,0.0,0.0,0.0,0.0,0.0,0.0,0.0,0.0,0.0,0.0,0.0,0.0,0.0,0.0,0.0,0.0,0.0,0.0,0.0,0.0,0.0,0.0,0.0,0.0,0.0,0.0,0.0,0.0,0.0,0.0,0.0,0.0,0.0,0.0,0.0,0.0,0.0,0.0,0.0,0.0,0.0,0.0,0.0,0.0,0.0,0.0,0.0,0.0,0.0,0.0,0.0,0.0,0.0,0.0,0.0,0.0,0.0,0.0,0.0,0.0,0.0,0.0,0.0,0.0,0.0,0.0,0.0,0.0,0.0,0.0,0.0,0.0,0.0,0.0,0.0,0.0,0.0,0.0,0.0,0.0,0.0,0.0,0.0,0.0,0.0,0.0,0.0,0.0,0.0,0.0,0.0,0.0,0.0,0.0,0.0,0.0,0.0,0.0,0.0,0.0,0.0,0.0,0.0,0.0,0.0,0.0,0.0,0.0,0.0,0.0,0.0,0.0,0.0,0.0,0.0,0.0,0.0,0.0,0.0,0.0,0.0,0.0,0.0,0.0,0.0,0.0,0.0,0.0,0.0,0.0,0.0,0.0,0.0,0.0,0.0,0.0,0.0,0.0,0.0,0.0,0.0,0.0,0.0,0.0,0.0,0.0,0.0,0.0,0.0,0.0,0.0,0.0,0.0,0.0,0.0,0.0,0.0,0.0,0.0,0.0,0.0,0.0,0.0,0.0,0.0,0.0,0.0,0.0,0.0,0.0,0.0,0.0,0.0,0.0,0.0,0.0,0.0,0.0,0.0,0.0,0.0,0.0,0.0,0.0,0.0,0.0,0.0,0.0,0.0,0.0,0.0,0.0,0.0,0.0,0.0,0.0,0.0,0.0,0.0,0.0,0.0,0.0,0.0,0.0,0.0,0.0,0.0,0.0,0.0,0.0,0.0,0.0,0.0,0.0,0.0,0.0,0.0,0.0,0.0,0.0,0.0,0.0,0.0,0.0,0.0,0.0,0.0,0.0,0.0,0.0,0.0,0.0,0.0,0.0,0.0,0.0,0.0,0.0,0.0,0.0,0.0,0.0,0.0,0.0,0.0,0.0,0.0,0.0,0.0,0.0,0.0,0.0,0.0,0.0,0.0,0.0,0.0,0.0,0.0,0.0,0.0,0.0,0.0,0.0,0.0,0.0,0.0,0.0,0.0,0.0,0.0,0.0,0.0,0.0,0.0,0.0,0.0,0.0,0.0,0.0,0.0,0.0,0.0,0.0,0.0,0.0,0.0,0.0,0.0,0.0,0.0,0.0,0.0,0.0,0.0,0.0,0.0,0.0,0.0,0.0,0.0,0.0,0.0,0.0,0.0,0.0,0.0,0.0,0.0,0.0,0.0,0.0,0.0,0.0,0.0,0.0,0.0,0.0,0.0,0.0,0.0,0.0,0.0,0.0,0.0,0.0,0.0,0.0,0.0,0.0,0.0,0.0,0.0,0.0,0.0,0.0,0.0,0.0,0.0,0.0,0.0,0.0,0.0,0.0,0.0,0.0,0.0,0.0,0.0,0.0,0.0,0.0,0.0,0.0,0.0,0.0,0.0,0.0,0.0,0.0,0.0,0.0,0.0,0.0,0.0,0.0,0.0,0.0,0.0,0.0,0.0,0.0,0.0,0.0,0.0,0.0,0.0,0.0,0.0,0.0,0.0,0.0,0.0,0.0,0.0,0.0,0.0,0.0,0.0,0.0,0.0,0.0,0.0,0.0,0.0,0.0,0.0,0.0,0.0,0.0,0.0,0.0,0.0,0.0,0.0,0.0,0.0,0.0,0.0,0.0,0.0,0.0,0.0,0.0,0.0,0.0,0.0,0.0,0.0,0.0,0.0,0.0,0.0,0.0,0.0,0.0,0.0,0.0,0.0,0.0,0.0,0.0,0.0,0.0,0.0,0.0,0.0,0.0,0.0,0.0,0.0,0.0,0.0,0.0,0.0,0.0,0.0,0.0,0.0,0.0,0.0,0.0,0.0,0.0,0.0,0.0,0.0,0.0,0.0,0.0,0.0,0.0,0.0,0.0,0.0,0.0,0.0,0.0,0.0,0.0,0.0,0.0,0.0,0.0,0.0,0.0,0.0,0.0,0.0,0.0,0.0,0.0,0.0,0.0,0.0,0.0,0.0,0.0,0.0,0.0,0.0,0.0,0.0,0.0,0.0,0.0,0.0,0.0,0.0,0.0,0.0,0.0,0.0,0.0,0.0,0.0,0.0,0.0,0.0,0.0,0.0,0.0,0.0,0.0,0.0,0.0,0.0,0.0,0.0,0.0,0.0,0.0,0.0,0.0,0.0,0.0,0.0,0.0,0.0,0.0,0.0,0.0,0.0,0.0,0.0,0.0,0.0,0.0,0.0,0.0,0.0,0.0,0.0,0.0,0.0,0.0,0.0,0.0,0.0,0.0,0.0,0.0,0.0,0.0,0.0,0.0,0.0,0.0,0.0,0.0,0.0,0.0,0.0,0.0,0.0,0.0,0.0,0.0,0.0,0.0,0.0,0.0,0.0,0.0,0.0,0.0,0.0,0.0,0.0,0.0,0.0,0.0,0.0,0.0,0.0,0.0,0.0,0.0,0.0,0.0,0.0,0.0,0.0,0.0,0.0,0.0,0.0,0.0,0.0,0.0,0.0,0.0,0.0,0.0,0.0,0.0,0.0,0.0,0.0,0.0,0.0,0.0,0.0,0.0,0.0,0.0,0.0,0.0,0.0,0.0,0.0,0.0,0.0,0.0,0.0,-0.2887,-0.3158,0.0,0.0,0.0,0.0,0.0,0.0,0.0,0.0,0.0,0.0,0.0,0.0,0.0,0.0,0.0,0.0,0.0,0.0,0.0,0.0,0.0,0.0,0.0,0.0,0.0,0.0,0.0,0.0,0.0,0.0,0.0,0.0,0.0,0.0,0.0,0.0,0.0,0.0,0.0,0.0,0.0,0.0,0.0,0.0,0.0,0.0,0.0,0.0,0.0,0.0,0.0,0.0,0.0,0.0,0.0,0.0,0.0,0.0,0.0,0.0,0.0,0.0,0.0,0.0,0.0,0.0,0.0,0.0,0.0,0.0,0.0,0.0,0.0,0.0,0.0,0.0,0.0,0.0,0.0,0.0,0.0,0.0,0.0,0.0,0.0,0.0,0.0,0.0,0.0,0.0,0.0,0.0,0.0,0.0,0.0,0.0,0.0,0.0,0.0,0.0,0.0,0.0,0.0,0.0,0.0,0.0,0.0,0.0,0.0,0.0,0.0,0.0,0.0,0.0,-0.3089,-0.328,0.0,0.0,0.0,0.0,0.0,0.0,0.0,0.0,0.0,0.0,0.0,0.0,0.0,0.0,0.0,0.0,0.0,0.0,0.0,0.0,0.0,0.0,0.0,0.0,0.0,0.0,0.0,0.0,0.0,0.0,0.0,0.0,0.0,0.0,0.0,0.0,0.0,0.0,0.0,0.0,0.0,0.0,0.0,0.0,0.0,0.0,0.0,0.0,0.0,0.0,0.0,0.0,0.0,0.0,0.0,0.0,0.0,0.0,0.0,0.0,0.0,0.0,0.0,0.0,0.0,0.0,0.0,0.0,0.0,0.0,0.0,0.0,0.0,0.0,0.0,0.0,0.0,0.0,0.0,0.0,0.0,0.0,0.0,0.0,0.0,0.0,0.0,0.0,0.0,0.0,0.0,0.0,0.0,0.0,0.0,0.0,0.0,0.0,0.0,0.0,0.0,0.0,0.0,0.0,0.0,0.0,0.0,0.0,-0.3673,-0.3778,-0.3761,-0.3887,-0.3887,-0.3778,-0.35,-0.3463,-0.3681,-0.399,0.0,0.0,0.0,0.0,0.0,0.0,0.0,0.0,0.0,0.0,0.0,0.0,0.0,0.0,0.0,0.0,0.0,0.0,0.0,0.0,0.0,0.0,0.7645,0.7142,0.6886,0.0,0.0,0.0,0.0,0.0,0.0,0.0,0.0,0.0,0.0,0.0,0.0,0.0,0.3105,0.2578,0.2408,0.2708,0.58,0.0,0.0,0.0,0.0,0.0,0.0,0.0,0.0,0.0,0.0,0.0,0.0,0.0,0.0,0.0,0.0,0.0,0.0,0.0,0.0,0.0,0.0,0.0,0.0,0.0,0.0,0.0,0.0,0.0,0.0,0.0,0.0,0.0,0.0,0.0,0.0,0.0,0.0,0.0,0.0,0.0,0.0,0.0,-0.1704,-0.2493,0.0,0.0,0.0,0.0,0.0,0.0,0.0,0.0,0.0,0.0,0.0,0.0,0.0,-0.3714,-0.3676,-0.3846,-0.3863,-0.3734,-0.3771,-0.3727,-0.3609,-0.3629,-0.3693,-0.3788,-0.3751,0.0,-0.3768,-0.3809,0.0,0.0,0.0,0.0,0.0,0.0,0.0,0.0,0.0,0.0,0.0,0.0,0.0,0.0,0.0,0.0,0.0,0.0,0.0,0.0,0.0,0.0,0.7186,0.676,0.6473,0.6251,0.0,0.0,0.0,0.0,0.0,0.0,0.0,0.0,0.0,0.0,0.3694,0.2875,0.2263,0.1598,0.1286,0.1361,0.2833,0.4014,0.5005,0.5953,0.0,0.0,0.0,0.0,0.0,0.0,0.0,0.0,0.0,0.0,0.0,0.0,0.0,0.0,0.0,0.0,0.0,0.0,0.0,0.0,0.0,0.0,0.0,0.0,0.0,0.0,0.0,0.0,0.0,0.0,0.0,0.0,0.0,0.0,0.0,0.0,0.0,0.0,0.0,-0.1847,-0.2334,-0.265,-0.278,-0.2974,0.0,0.0,0.0,0.0,0.0,0.0,0.0,0.0,0.0,-0.3483,-0.3683,-0.3751,-0.3673,-0.3819,-0.386,-0.3792,-0.3965,-0.4016,-0.3958,-0.4039,-0.4161,-0.4168,-0.4168,-0.4124,-0.4046,-0.4046,-0.4076,-0.4253,0.0,0.0,0.0,0.0,-0.5328,-0.5054,0.0,0.0,0.0,0.0,0.0,0.0,0.0,0.0,0.0,0.0,0.0,0.0,0.8836,0.7605,0.6645,0.6297,0.5872,0.5331,0.4602,0.0,0.0,0.0,0.0,0.0,0.0,0.0,0.0,0.0,0.2328,0.1682,0.1226,0.061,0.0545,0.0891,0.0741,0.1499,0.3006,0.4244,0.5136,0.0,0.0,0.0,0.0,0.0,0.0,0.0,0.0,0.0,0.0,0.0,0.0,0.0,0.0,0.0,0.0,0.0,0.0,0.0,0.0,0.0,0.0,0.0,0.0,0.0,0.0,0.0,0.0,0.0,0.0,0.0,0.0,0.0,0.0,0.0,0.0,0.0,0.0,-0.2556,-0.2723,-0.2686,-0.2747,-0.2893,0.0,0.0,0.0,0.0,0.0,0.0,-0.3366,-0.369,-0.3785,-0.3639,-0.3812,-0.386,-0.3751,-0.3894,-0.3961,-0.3965,-0.4195,-0.4304,-0.4307,-0.4412,-0.4519,-0.4519,-0.4519,-0.4426,-0.4301,-0.4227,-0.4197,-0.4256,-0.4892,-0.537,-0.561,-0.5559,-0.5601,-0.5621,0.0,0.0,0.0,0.0,0.0,0.0,0.0,0.0,0.0,0.0,0.0,0.8819,0.8393,0.6913,0.5803,0.5394,0.4606,0.3267,0.128,0.0,0.0,0.0,0.0,0.0,0.0,0.0,0.0,0.2649,0.0692,-0.0249,-0.03,-0.0917,-0.0456,0.0862,0.0308,0.1041,0.27,0.2397,0.3216,0.467,0.0,0.0,0.0,0.0,0.0,0.0,0.0,0.0,0.0,0.0,0.0,0.0,0.0,0.0,0.0,0.0,0.0,0.0,0.0,0.0,0.0,0.0,0.0,0.0,0.0,0.0,0.0,0.0,0.0,0.0,0.0,0.0,0.0,0.0,0.0,0.0,0.0,0.0,0.0,-0.2649,-0.2592,0.0,0.0,0.0,0.0,-0.3082,-0.3524,-0.371,-0.3575,-0.3846,-0.3938,-0.3785,-0.407,-0.417,-0.4164,-0.4358,-0.4484,-0.4484,-0.4498,-0.4508,-0.4508,-0.4515,-0.4519,-0.4519,-0.4519,-0.4541,-0.4646,-0.4311,-0.4197,-0.4197,-0.4253,-0.4973,-0.5914,-0.561,-0.5766,-0.6109,0.0,0.0,0.0,0.0,0.0,0.0,0.0,0.0,0.0,0.9341,0.9069,0.8661,0.8108,0.6455,0.5297,0.5059,0.3171,0.1357,-0.0164,0.0,0.0,0.0,0.0,0.0,0.0,0.0,0.1654,0.0798,-0.0393,-0.0951,-0.0942,-0.1971,-0.2185,-0.1637,-0.0509,0.0263,0.0772,0.1991,0.278,0.33,0.3715,0.4201,0.0,0.0,0.0,0.0,0.0,0.0,0.0,0.0,0.0,0.0,0.0,0.0,0.0,0.0,0.0,0.0,0.0,0.0,0.0,0.0,0.0,0.0,0.0,0.0,0.0,0.0,0.0,0.0,0.0,0.0,0.0,0.0,0.0,0.0,0.0,0.0,0.0,-0.2927,-0.2913,0.0,-0.3236,-0.3354,-0.3415,-0.3415,-0.3649,-0.3768,-0.3721,-0.4002,-0.409,-0.4036,-0.428,-0.4385,-0.4385,-0.4436,-0.4519,-0.4519,-0.4519,-0.4519,-0.4519,-0.4519,-0.4519,-0.4519,-0.4519,-0.4548,-0.468,-0.4579,-0.4592,-0.4677,-0.5189,-0.5951,-0.6759,-0.6048,-0.628,-0.6763,0.0,0.0,0.0,0.0,0.0,0.0,0.0,0.0,0.0,0.9305,0.8795,0.8211,0.7655,0.6015,0.48,0.4461,0.1961,-0.037,-0.2206,0.0,0.0,0.0,0.0,0.0,0.0,0.0536,-0.0782,-0.1757,-0.2519,-0.2766,-0.2572,-0.3351,-0.3547,-0.309,-0.1717,-0.0987,-0.0663,0.0957,0.2014,0.2611,0.3038,0.3155,0.3207,0.0,0.0,0.0,0.0,0.0,0.0,0.0,0.0,0.0,0.0,0.0,0.0,0.0,0.0,0.0,0.0,0.0,0.0,0.0,0.0,0.0,0.0,0.0,0.0,0.0,0.0,0.0,0.0,0.0,0.0,0.0,0.0,0.0,0.0,-0.322,-0.3219,-0.3381,-0.3337,-0.3375,-0.3629,-0.3649,-0.3649,-0.3649,-0.3832,-0.3944,-0.3944,-0.4185,-0.4321,-0.4321,-0.4412,-0.4519,-0.4519,-0.4519,-0.4519,-0.4519,-0.4519,-0.4543,-0.4594,-0.4539,-0.4573,-0.4613,-0.4562,-0.4653,-0.484,-0.484,-0.4931,-0.5119,-0.5498,-0.6245,-0.7012,-0.6043,-0.6316,-0.7067,0.0,0.0,0.0,0.0,0.0,0.0,0.0,0.0,0.0,0.9129,0.8318,0.7547,0.7092,0.56,0.4297,0.3453,0.094,-0.1877,-0.4867,-0.0491,0.0,0.0,0.0,0.0,0.0805,-0.1792,-0.3698,-0.4806,-0.5602,-0.5753,-0.5268,-0.5137,-0.4471,-0.3413,-0.3389,-0.2714,-0.1566,-0.0822,0.0676,0.2564,0.267,0.2139,0.1499,0.0,0.0,0.0,0.0,0.0,0.0,0.0,0.0,0.0,0.0,0.0,0.0,0.0,0.0,0.0,0.0,0.0,0.0,0.0,0.0,0.0,0.0,0.0,0.0,0.0,0.0,0.0,0.0,0.0,0.0,0.0,0.0,0.0,-0.4187,-0.4071,-0.403,-0.4007,-0.3768,-0.3653,-0.3792,-0.3809,-0.3812,-0.3812,-0.4087,-0.4204,-0.4204,-0.4389,-0.4519,-0.4519,-0.4519,-0.4519,-0.4519,-0.4519,-0.4519,-0.4525,-0.4525,-0.4551,-0.4694,-0.4545,-0.4636,-0.4911,-0.4762,-0.4863,-0.5131,-0.5131,-0.522,-0.5397,-0.5043,-0.5664,-0.6567,-0.551,-0.5959,-0.6948,0.0,0.0,0.0,0.0,0.0,0.0,0.0,0.0,0.0,0.965,0.8996,0.8332,0.7914,0.6482,0.4317,0.1233,-0.0081,-0.1821,-0.4346,0.0,0.0,0.0,0.0,0.0,-0.1635,-0.3508,-0.4711,-0.516,-0.5786,-0.6251,-0.6581,-0.6684,-0.6563,-0.6256,-0.5466,-0.4923,-0.455,-0.3243,-0.187,-0.0391,0.1826,0.2144,0.1284,0.0,0.0,0.0,0.0,0.0,0.0,0.0,0.0,0.0,0.0,0.0,0.0,0.0,0.0,0.0,0.0,0.0,0.0,0.0,0.0,0.0,0.0,0.0,0.0,0.0,0.0,0.0,0.0,0.0,0.0,0.0,-0.4862,-0.4671,-0.414,-0.418,-0.4204,-0.3873,-0.3978,-0.403,-0.4066,-0.4216,-0.4333,-0.4333,-0.4355,-0.4402,-0.4402,-0.4494,-0.4519,-0.4519,-0.4519,-0.4519,-0.4519,-0.4519,-0.4573,-0.4626,-0.4626,-0.4707,-0.4853,-0.4813,-0.484,-0.4918,-0.4874,-0.4962,-0.5131,-0.5131,-0.522,-0.5418,-0.527,-0.5864,-0.6601,-0.5765,-0.5814,-0.6261,0.0,0.0,0.0,0.0,0.0,0.0,0.0,0.0,0.0,0.0,0.8974,0.7792,0.5892,0.4507,0.2814,0.058,-0.0916,-0.2401,-0.4023,0.0,0.0,0.0,0.0,-0.2919,-0.3433,-0.5129,-0.6064,-0.6175,-0.7026,-0.7567,-0.7792,-0.8287,-0.8307,-0.79,-0.7647,-0.7371,-0.7076,-0.5913,-0.449,-0.2832,-0.0754,0.035,0.0687,0.0182,0.0643,0.1496,0.1497,0.1183,0.0769,0.0745,0.0,0.0,0.0,0.0,0.0,0.0,0.0,0.0,0.0,0.0,0.0,0.0,0.0,0.0,0.0,0.0,0.0,0.0,0.0,0.0,0.0,0.0,0.0,0.0,-0.5597,-0.5594,-0.5221,-0.5046,-0.4764,-0.4146,-0.4229,-0.4338,-0.4338,-0.4412,-0.4519,-0.4519,-0.4519,-0.4519,-0.4519,-0.4519,-0.4519,-0.4519,-0.4519,-0.4519,-0.4519,-0.458,-0.4602,-0.4691,-0.4755,-0.4863,-0.5006,-0.4945,-0.4986,-0.5101,-0.5036,-0.5091,-0.5233,-0.5298,-0.5338,-0.5435,0.0,0.0,0.0,0.0,-0.5979,-0.6125,0.0,0.0,0.0,0.0,0.0,0.0,0.0,0.0,0.0,0.0,0.0,0.6367,0.2535,0.106,0.0252,0.0034,-0.191,-0.3369,0.0,0.0,0.0,-0.2074,-0.3308,-0.4292,-0.4858,-0.6734,-0.7662,-0.757,-0.8862,-0.936,-0.9174,-1.0001,-0.9956,-0.9225,-0.9991,-0.9975,-0.9347,-0.8619,-0.7132,-0.5158,-0.4231,-0.2392,-0.0208,-0.0201,-0.0197,-0.0195,-0.0187,-0.0214,-0.0207,-0.0206,0.0,0.0,0.0,0.0,0.0,0.0,0.0,0.0,0.0,0.0,0.0,0.0,0.0,0.0,0.0,0.0,0.0,0.0,0.0,0.0,0.0,0.0,0.0,0.0,-0.6259,-0.6723,-0.6818,-0.6363,-0.5682,-0.4863,-0.468,-0.4625,-0.4736,-0.4736,-0.4736,-0.4736,-0.4736,-0.468,-0.4625,-0.4625,0.0,0.0,0.0,-0.4543,-0.4543,-0.464,-0.4718,-0.4718,-0.487,-0.5016,-0.5152,-0.5026,-0.5121,-0.5446,-0.5243,-0.5267,-0.542,-0.5559,-0.5545,-0.5447,-0.5549,-0.5688,-0.5861,-0.6132,-0.6247,-0.6338,0.0,0.0,0.0,0.0,0.0,0.0,0.0,0.0,0.0,0.9867,0.7728,0.5005,0.1965,-0.047,-0.2833,-0.5173,-0.4519,-0.4036,0.0,0.0,-0.5933,-0.3669,-0.5909,-0.7005,-0.6552,-0.8491,-0.9196,-0.8605,-0.9949,-1.1051,-1.1938,-1.2096,-1.2419,-1.2811,-1.2981,-1.256,-1.168,-1.0635,-0.9506,-0.823,-0.6268,-0.3841,-0.145,-0.1447,-0.1453,-0.1441,-0.1467,-0.145,-0.1439,-0.146,-0.1362,-0.1348,-0.2015,0.0,0.0,0.0,0.0,0.0,0.0,0.0,0.0,0.0,0.0,0.0,0.0,0.0,0.0,0.0,0.0,0.0,0.0,0.0,0.0,-0.6518,-0.7058,-0.7296,-0.7227,-0.7281,-0.7072,-0.6303,-0.5655,-0.5546,-0.6154,-0.6209,-0.6209,-0.6209,-0.6209,-0.5932,-0.5324,-0.5328,-0.5119,-0.47,-0.4646,-0.4646,-0.4646,-0.4799,-0.4874,-0.4877,-0.502,0.0,-0.5315,-0.5287,-0.5376,-0.5545,-0.5515,-0.5583,-0.5718,-0.5749,-0.5817,-0.5881,-0.5671,-0.5752,-0.5993,-0.6054,-0.6156,-0.6338,0.0,0.0,0.0,0.0,0.0,0.0,0.0,0.0,0.0,0.0,0.831,0.551,0.1212,-0.0148,-0.2176,-0.5742,-0.495,0.0,0.0,-0.7911,-0.7901,-0.5983,-0.7373,-0.7946,-0.7402,-0.9175,-0.992,-0.9552,-1.0852,-1.1813,-1.2434,-1.3128,-1.3639,-1.4026,-1.4495,-1.4443,-1.391,-1.2489,-1.1492,-1.0603,-0.8459,-0.6599,-0.5045,-0.3971,-0.3565,-0.3548,-0.3548,-0.3374,-0.3149,-0.3463,-0.3506,-0.3417,-0.3651,-0.3233,-0.2603,0.0,0.0,0.0,0.0,0.0,0.0,0.0,0.0,0.0,0.0,0.0,0.0,0.0,0.0,-0.4687,0.0,0.0,-0.6536,-0.7337,-0.7729,-0.7979,-0.8056,-0.7858,-0.745,-0.6696,-0.6258,-0.6199,-0.6588,-0.6588,-0.6588,-0.6588,-0.6588,-0.6421,-0.6091,-0.6036,-0.6023,-0.5887,-0.5891,-0.5992,-0.6086,-0.6211,-0.6063,-0.5643,-0.6398,-0.6577,-0.6277,-0.6831,-0.7125,-0.715,-0.6666,-0.678,-0.7283,-0.6789,-0.666,-0.6795,-0.6113,-0.5949,-0.6146,-0.6146,-0.6196,-0.6271,0.0,0.0,0.0,0.0,0.0,0.0,0.0,0.0,0.0,0.0,0.8846,0.6393,0.1751,0.0978,-0.0948,0.0,0.0,0.0,0.0,-0.9128,-0.8895,-0.8084,-0.8367,-0.8382,-0.803,-0.9468,-1.0267,-1.0317,-1.1493,-1.2258,-1.2706,-1.3839,-1.4499,-1.4822,-1.5522,-1.5762,-1.5504,-1.416,-1.323,-1.2484,-1.0617,-0.9577,-0.8907,-0.6851,-0.5883,-0.5594,-0.5584,-0.5192,-0.4741,-0.5345,-0.5486,-0.5286,-0.4845,-0.4588,-0.4182,-0.3018,-0.2849,0.0,0.0,0.0,0.0,0.0,0.0,0.0,0.0,0.0,-0.3606,-0.3292,-0.46,-0.5709,-0.5487,-0.6597,-0.7655,-0.7963,-0.8355,-0.869,-0.8771,-0.8415,-0.7824,-0.7128,-0.6912,-0.6858,-0.702,-0.702,-0.702,-0.702,-0.702,-0.6966,-0.6804,-0.69,-0.6975,-0.7146,-0.7192,-0.73,-0.754,-0.7696,-0.7433,-0.6755,-0.79,-0.8044,-0.7482,-0.8399,-0.885,-0.8826,-0.8017,-0.8174,-0.8816,-0.8036,-0.7872,-0.7995,-0.7017,-0.6749,-0.6872,-0.6412,-0.6278,-0.6318,0.0,0.0,0.0,0.0,0.0,0.0,0.0,0.0,0.0,0.0,0.0,0.0,0.0,0.0,0.0,0.0,0.0,0.0,-0.9446,-0.9048,-0.8833,-0.8945,-0.9272,-0.9232,-0.8789,-0.9819,-1.0495,-1.0732,-1.1466,-1.284,-1.4767,-1.4869,-1.5621,-1.6863,-1.6738,-1.6278,-1.5605,-1.5389,-1.4731,-1.3677,-1.2449,-1.1752,-1.1223,-0.9526,-0.7975,-0.6717,-0.6664,-0.6147,-0.5578,-0.6293,-0.611,-0.5605,-0.5773,-0.5672,-0.5297,-0.4092,0.0,-0.3982,-0.2964,-0.2716,-0.2717,-0.2852,-0.2896,-0.2974,0.0,0.0,-0.3422,-0.3686,-0.4614,-0.5487,-0.5856,-0.6986,-0.7976,-0.8277,-0.9061,-0.9422,-0.8903,-0.9256,-0.9302,-0.8639,-0.799,-0.783,-0.848,-0.854,-0.854,-0.854,-0.854,-0.8268,-0.7616,-0.7886,-0.7779,-0.7303,-0.7502,-0.7619,-0.7701,-0.7869,-0.7986,-0.7981,-0.8302,-0.846,-0.8578,-0.8744,-0.8867,-0.9078,-0.906,-0.9145,-0.922,-0.9145,-0.91,-0.9145,-0.8969,-0.8974,-0.877,-0.6945,-0.6339,-0.6451,0.0,0.0,0.0,0.0,0.0,0.0,0.0,0.0,0.0,0.0,0.0,0.0,0.0,0.0,0.0,0.0,0.0,0.0,-0.9383,-0.8779,-0.8549,-0.8858,-0.9074,-0.9103,-0.8908,-0.9733,-1.0437,-1.097,-1.172,-1.2824,-1.4227,-1.5006,-1.5728,-1.6458,-1.6901,-1.7017,-1.6868,-1.638,-1.605,-1.5688,-1.4263,-1.3456,-1.2931,-1.1143,-0.9896,-0.8988,-0.8096,-0.7442,0.0,0.0,-0.717,-0.6915,-0.6353,-0.6121,-0.5891,-0.5075,-0.4845,0.0,-0.3671,-0.338,-0.3282,-0.3056,-0.3168,-0.3454,-0.4003,-0.4409,-0.4776,-0.5119,-0.6203,-0.6943,-0.6455,-0.7504,-0.847,0.0,-0.9254,-0.9814,-0.9969,-1.0218,-1.0191,-0.9653,-0.9526,-0.934,-0.8857,-0.8804,-0.8804,-0.8804,-0.8804,-0.8646,-0.8374,-0.8635,-0.8739,-0.8715,-0.8975,-0.9186,-0.9406,-0.9608,-0.9545,-0.9091,-1.0027,-1.0213,-0.9893,-1.039,-1.0301,-0.9908,-1.0531,-1.0586,-1.019,-1.019,-1.0279,-1.0324,-0.9575,-0.9377,-0.9411,-0.8563,-0.8299,-0.8321,0.0,0.0,0.0,0.0,0.0,0.0,0.0,0.0,0.0,0.0,0.0,0.0,0.0,0.0,0.0,0.0,0.0,0.0,0.0,-0.863,-0.8379,-0.8743,-0.8852,-0.8891,-0.8891,-0.9421,-1.0166,-1.1096,-1.1801,-1.2791,-1.4023,-1.5003,-1.564,-1.6044,-1.6795,-1.7224,-1.7348,-1.6959,-1.6894,-1.6928,-1.5393,-1.4523,-1.3894,-1.2043,-1.1122,-1.0652,-0.9503,-0.8782,0.0,0.0,-0.8733,-0.853,-0.7766,-0.744,-0.7234,-0.6614,-0.6098,-0.5591,-0.4933,-0.4605,-0.4345,-0.4026,-0.4115,-0.4406,-0.4992,-0.5523,-0.5975,-0.6256,-0.7312,-0.7926,-0.7042,-0.7937,-0.8844,-0.896,-0.9585,-1.0269,-1.0712,-1.0881,-1.0755,-1.0401,-1.0524,-1.0311,-0.9458,-0.9361,-0.9361,-0.9361,-0.9159,-0.9095,-0.9231,-0.9309,-0.9499,-0.9793,-1.0087,-1.0381,-1.0739,-1.0889,-1.0736,-1.035,-1.1383,-1.1618,-1.1112,-1.1696,-1.1618,-1.0955,-1.169,-1.1734,-1.1236,-1.1236,-1.1358,-1.1371,-1.0494,-1.0269,-1.0567,-1.0639,-1.0268,-0.9687,0.0,0.0,0.0,0.0,0.0,0.0,0.0,0.0,0.0,0.0,0.0,0.0,0.0,0.0,0.0,0.0,0.0,0.0,0.0,-0.8681,-0.8477,-0.888,-0.8891,-0.8891,-0.8891,-0.8925,-0.9653,-1.1096,-1.1533,-1.2862,-1.5056,-1.5033,-1.5459,-1.6305,-1.6578,-1.6541,-1.6295,-1.6985,-1.7167,-1.6889,-1.5538,-1.4614,-1.3919,-1.2161,-1.1318,-1.1026,-1.0674,0.0,0.0,-1.1009,-1.0961,-1.0369,-1.0514,-1.0345,0.0,-0.9038,-0.7996,-0.7107,-0.6959,-0.6464,-0.6009,-0.6009,-0.5979,-0.5975,-0.6139,-0.6271,-0.6401,-0.6577,-0.7165,-0.7717,-0.7664,-0.8262,-0.9008,-0.9658,-1.0312,-1.0762,-1.0813,-1.1005,-1.1103,-1.0806,-1.0458,-1.0344,-1.073,-1.0762,-1.0762,-1.0762,-1.0167,-0.9903,-1.023,-0.9896,-0.98,-1.0094,-1.0388,-1.0688,-1.0982,-1.0989,-1.1283,-1.1844,-1.1864,-1.2017,-1.2218,-1.2291,-1.2291,-1.2218,-1.2291,-1.2291,-1.2224,-1.2224,-1.2231,-1.2238,-1.2231,-1.241,-1.2702,-1.3008,-1.1724,-0.9958,0.0,0.0,0.0,0.0,0.0,0.0,0.0,0.0,0.0,0.0,0.0,0.0,0.0,0.0,0.0,0.0,0.0,0.0,0.0,-0.8476,-0.8297,-0.8755,-0.8936,-0.8946,-0.8771,-0.8846,-0.9335,-1.0242,-1.0559,-1.1369,-1.2674,-1.3624,-1.3957,-1.3846,-1.5323,-1.5767,-1.5425,-1.5621,-1.6353,-1.7199,-1.4825,-1.4233,-1.4479,-1.1994,-1.1262,-1.1555,0.0,0.0,0.0,-1.1404,-1.1546,-1.1546,-1.0504,-1.0407,-1.0612,-1.0418,-1.041,-1.0299,-0.9644,-0.9215,-0.8837,-0.823,-0.7857,-0.7746,-0.8393,-0.8337,-0.836,-0.8876,-0.8733,-0.8353,-0.7869,-0.8353,-0.9042,-0.951,-1.0738,-1.1921,-1.2696,-1.3226,-1.3212,-1.241,-1.248,-1.2339,-1.1759,-1.1178,-1.0813,-1.0813,-1.061,-1.0669,-1.1083,-1.1162,-1.1107,-1.0914,-1.1996,-1.2097,-1.0989,-1.2632,-1.3233,-1.2846,-1.2985,-1.3028,-1.2935,-1.2935,-1.2935,-1.2935,-1.2935,-1.305,-1.3185,-1.2811,-1.2599,-1.2619,-1.2826,-1.2839,-1.2882,-1.3313,-1.2879,-1.2043,0.0,0.0,0.0,0.0,0.0,0.0,0.0,0.0,0.0,0.0,0.0,0.0,0.0,0.0,0.0,0.0,0.0,0.0,0.0,0.0,-0.8514,-0.8766,-0.899,-0.9001,-0.8771,-0.8863,-0.9217,-0.9875,-1.0108,-1.0668,-1.1491,-1.2384,-1.2592,-1.2244,-1.3767,-1.4306,-1.4081,-1.4372,-1.4978,-1.5639,-1.3818,-1.3218,-1.3278,-1.184,-1.1565,0.0,0.0,0.0,-1.3256,-1.254,-1.2739,-1.3069,-1.1892,-1.1942,-1.2363,-1.2025,-1.2646,-1.3203,-1.2136,-1.1993,-1.1876,-1.0756,-1.0386,-1.022,-1.0181,-0.9979,-0.9859,-0.9976,-0.9391,-0.8731,-0.8268,-0.8558,-0.9055,-0.9718,-1.0751,-1.1991,-1.3305,-1.3707,-1.3817,-1.3703,-1.3627,-1.3336,-1.2816,-1.2029,-1.1534,-1.1534,-1.1325,-1.1388,-1.1961,-1.1936,-1.1898,-1.1916,-1.3037,-1.3092,-1.2123,-1.385,-1.4478,-1.3987,-1.4134,-1.4126,-1.3987,-1.3987,-1.3987,-1.3987,-1.3987,-1.3899,-1.3688,-1.3245,-1.3024,-1.2842,-1.2966,-1.3053,-1.3113,-1.35,-1.3594,-1.3492,0.0,0.0,0.0,0.0,0.0,0.0,0.0,0.0,0.0,0.0,0.0,0.0,0.0,0.0,0.0,0.0,0.0,0.0,0.0,0.0,0.0,-0.8902,-0.9033,-0.9043,-0.8891,-0.8902,-0.9259,-0.9937,-1.0146,-1.0662,-1.1447,-1.1391,-1.1386,-1.1494,-1.2089,-1.2319,-1.2365,-1.3191,-1.3171,-1.2574,-1.2595,-1.1789,-1.0735,-1.18,0.0,0.0,0.0,0.0,0.0,-1.4407,-1.4552,-1.4941,-1.4606,-1.4891,-1.5113,-1.4004,-1.4815,-1.5819,-1.4511,-1.4835,-1.5118,-1.3627,-1.34,-1.3177,-1.1558,-1.1148,-1.0867,-0.9906,-0.9334,-0.8963,0.0,0.0,-0.927,-1.0321,-1.058,-1.1178,-1.2883,-1.2854,-1.3129,0.0,0.0,0.0,0.0,0.0,-1.2891,-1.291,-1.2264,-1.2202,-1.2968,-1.2381,-1.2372,-1.3045,-1.3472,-1.383,-1.4057,-1.4563,-1.4938,-1.5376,-1.5305,-1.5305,-1.5305,-1.5305,-1.5305,-1.5305,-1.5305,-1.4736,-1.3818,-1.3833,-1.3438,-1.2898,-1.2932,-1.3205,-1.3627,-1.3654,-1.3828,-1.4068,0.0,0.0,0.0,0.0,0.0,0.0,0.0,0.0,0.0,0.0,0.0,0.0,0.0,0.0,0.0,0.0,0.0,0.0,0.0,0.0,0.0,0.0,0.0,0.0,0.0,0.0,0.0,0.0,0.0,-0.9618,-0.9606,-1.0221,-1.0255,-0.9867,-1.1094,-1.1441,-1.1072,-1.1309,-1.2279,-1.3543,0.0,-1.2165,-1.3379,0.0,0.0,0.0,0.0,0.0,0.0,0.0,0.0,0.0,-1.5853,-1.6445,-1.7267,-1.7159,-1.7996,-1.878,-1.8047,-1.8062,-1.7998,-1.6859,-1.5686,-1.4648,-1.3922,-1.2563,-1.1399,-1.1159,-1.05,-0.9922,0.0,0.0,0.0,-1.1861,-1.2648,0.0,-1.4771,-1.5259,0.0,-1.4744,0.0,-1.3968,-1.319,-1.2968,-1.3008,-1.332,-1.3179,-1.3441,-1.4285,-1.4156,-1.3985,-1.3897,-1.4906,-1.4853,-1.3613,-1.4896,-1.6179,-1.7295,-1.6576,-1.621,-1.621,-1.621,-1.621,-1.621,-1.621,-1.607,-1.5807,-1.5299,-1.4595,-1.3914,-1.4316,-1.3999,-1.3447,-1.4678,-1.4517,-1.4028,0.0,0.0,0.0,0.0,0.0,0.0,0.0,0.0,0.0,0.0,0.0,0.0,0.0,0.0,0.0,0.0,0.0,0.0,0.0,0.0,0.0,0.0,0.0,0.0,0.0,0.0,0.0,0.0,0.0,0.0,0.0,-0.9592,-0.9637,-0.9461,-1.0276,-1.0485,-1.021,-1.0268,0.0,0.0,0.0,0.0,0.0,0.0,0.0,0.0,0.0,0.0,0.0,0.0,0.0,-1.7781,-1.8177,-1.877,-1.9314,-1.9331,0.0,-2.0787,-2.0156,-2.0236,-2.024,-1.8985,-1.7712,-1.6407,-1.5147,-1.3507,-1.213,-1.1651,-1.0896,-1.0359,-1.0582,-1.0671,-1.1037,0.0,0.0,0.0,-1.4764,-1.5426,-1.5706,0.0,-1.544,0.0,-1.4165,-1.4302,-1.4374,-1.4225,-1.3767,-1.3877,-1.4736,-1.4785,-1.4888,-1.5008,-1.5869,-1.6075,-1.5453,-1.6361,-1.7196,-1.8008,-1.7501,-1.7217,-1.7217,-1.7217,-1.7217,-1.7217,-1.7217,-1.7102,-1.6838,-1.6305,-1.5814,-1.5365,-1.5522,-1.5377,-1.513,-1.606,-1.5912,-1.5383,0.0,0.0,0.0,0.0,0.0,0.0,0.0,0.0,0.0,0.0,0.0,0.0,0.0,0.0,0.0,0.0,0.0,0.0,0.0,0.0,0.0,0.0,0.0,0.0,0.0,0.0,0.0,0.0,0.0,0.0,0.0,0.0,0.0,0.0,0.0,0.0,0.0,0.0,0.0,0.0,0.0,0.0,0.0,0.0,0.0,0.0,0.0,0.0,0.0,0.0,-1.851,-1.9507,-2.0705,-2.1176,-2.1214,-2.0943,-2.152,-2.2112,-2.147,-2.1727,-2.1838,-2.0443,-1.9296,-1.793,-1.58,-1.4169,-1.2833,-1.1869,0.0,-1.0829,-1.1094,-1.0828,-1.0831,-1.1683,0.0,-1.2411,-1.4072,-1.4714,-1.5367,-1.6255,-1.632,-1.6087,-1.5534,-1.5971,-1.5947,-1.5091,-1.4275,-1.4129,-1.4824,-1.4873,-1.5234,-1.6096,-1.6494,-1.7119,-1.792,-1.793,-1.7959,-1.8008,-1.8008,-1.8008,-1.8008,-1.8008,-1.8008,-1.8018,-1.8066,-1.7805,-1.7368,-1.7003,-1.6943,-1.7052,-1.6598,-1.676,-1.7334,-1.7504,-1.7423,-1.7334,0.0,0.0,0.0,0.0,0.0,0.0,0.0,0.0,0.0,0.0,0.0,0.0,0.0,0.0,0.0,0.0,0.0,0.0,0.0,0.0,0.0,0.0,0.0,0.0,0.0,0.0,0.0,0.0,0.0,0.0,0.0,0.0,0.0,0.0,0.0,0.0,0.0,0.0,0.0,0.0,0.0,0.0,0.0,0.0,0.0,0.0,0.0,0.0,0.0,0.0,-2.0045,-2.0968,-2.1371,-2.21,-2.2822,-2.2758,-2.2864,-2.2994,-2.2864,-2.2708,-2.2443,-2.1866,-1.9792,-1.7691,-1.6728,-1.4747,0.0,0.0,-1.2819,-1.289,-1.2131,-1.2281,-1.2587,-1.2889,-1.291,-1.3521,-1.5178,-1.5492,-1.5616,0.0,-1.576,-1.5504,-1.4926,-1.5319,-1.5317,-1.4576,-1.5102,-1.541,-1.5273,-1.5303,-1.5537,-1.6105,-1.6494,-1.6982,-1.749,-1.749,-1.7666,-1.8008,-1.8008,-1.8008,-1.8008,-1.8008,-1.8008,-1.8027,-1.8379,-1.8424,-1.8341,-1.8264,-1.8173,-1.8009,-1.7619,-1.7398,-1.7423,-1.839,-1.8149,-1.7577,0.0,0.0,0.0,0.0,0.0,0.0,0.0,0.0,0.0,0.0,-0.2852,-0.1987,0.0,0.0,0.0,0.0,0.0,0.0,0.0,0.0,0.0,0.0,0.0,0.0,0.0,0.0,-0.9194,-0.9163,0.0,0.0,0.0,-0.9375,-0.9508,-0.9698,0.0,0.0,0.0,0.0,0.0,0.0,0.0,0.0,0.0,0.0,0.0,0.0,0.0,0.0,0.0,0.0,-1.9056,-1.9951,-2.1751,-2.3051,-2.3846,-2.3738,-2.3714,-2.3714,-2.3714,-2.3477,-2.3141,-2.2762,-2.0501,-1.8118,-1.7124,0.0,0.0,0.0,-1.3347,-1.3633,-1.3421,-1.3364,0.0,-1.338,-1.3061,-1.337,-1.4852,-1.5057,0.0,-1.6016,-1.6365,-1.628,-1.5691,-1.6395,-1.6503,-1.546,-1.5986,-1.5985,-1.5125,-1.5732,-1.6191,-1.6406,-1.7051,-1.749,-1.7705,-1.7705,-1.7812,-1.8008,-1.8008,-1.8008,-1.8008,-1.8008,-1.8008,-1.8018,-1.8223,-1.8437,-1.8553,-1.8398,-1.8649,-1.9099,-1.8695,-1.872,-1.9107,-1.9599,-1.952,-1.9186,0.0,0.0,0.0,0.0,0.0,0.0,0.0,-0.5209,-0.5023,-0.4254,-0.3959,-0.302,-0.0916,-0.3232,0.0,0.0,0.0,0.0,0.0,0.0,0.0,0.0,0.0,0.0,0.0,0.0,0.0,-0.9287,-0.9213,0.0,0.0,0.0,0.0,0.0,-0.9775,-0.9887,-0.9892,0.0,0.0,0.0,0.0,-1.1575,0.0,0.0,0.0,0.0,0.0,0.0,0.0,0.0,-1.7546,-1.8412,-2.1136,-2.2879,-2.3889,-2.375,-2.3933,-2.419,-2.419,-2.3955,-2.361,-2.3282,-2.0958,-1.8517,-1.7544,-1.5613,0.0,-1.3786,-1.4036,-1.4326,-1.4532,0.0,-1.378,0.0,-1.2979,-1.3006,-1.435,-1.4456,-1.4902,0.0,-1.6848,0.0,-1.6559,-1.7438,-1.7548,-1.6397,-1.6497,-1.6094,-1.4968,-1.6074,-1.6665,-1.6665,-1.7568,-1.8008,-1.8008,-1.8008,-1.8008,-1.8008,-1.8008,-1.8008,-1.8008,-1.8008,-1.8008,-1.8018,-1.8105,-1.833,-1.8613,-1.8281,-1.8789,-1.9736,-1.9316,-1.9668,-2.042,-2.042,-2.0478,-2.0566,0.0,0.0,0.0,0.0,0.0,0.0,0.0,-0.5639,-0.5526,-0.4194,-0.4507,-0.4357,-0.3041,-0.3784,0.0,0.0,0.0,0.0,0.0,0.0,0.0,0.0,0.0,0.0,0.0,0.0,0.0,-0.894,-0.9057,0.0,0.0,0.0,0.0,0.0,0.0,-0.9555,-0.9537,-0.9544,0.0,0.0,0.0,0.0,0.0,0.0,0.0,0.0,0.0,0.0,0.0,0.0,0.0,-1.76,-1.846,-2.0255,-2.2056,-2.2101,0.0,0.0,-2.419,-2.3955,-2.361,-2.3282,-2.0749,-1.8383,-1.8434,0.0,-1.5087,-1.5487,-1.5827,-1.579,-1.4923,-1.4492,-1.4127,-1.3751,0.0,-1.3152,-1.4488,-1.4563,-1.4798,-1.5671,0.0,0.0,-1.6522,-1.7087,-1.7173,-1.6477,-1.6129,-1.5804,-1.539,-1.623,-1.6665,-1.6665,-1.7568,-1.8008,-1.8008,-1.8008,-1.8008,-1.8008,-1.8008,-1.8008,-1.8008,-1.8008,-1.8008,-1.8037,-1.8418,-1.8603,-1.8633,-1.8523,-1.8877,-1.9307,-1.8867,-1.9219,-1.9971,-1.9971,-2.0225,-2.0566,0.0,0.0,0.0,0.0,0.0,0.0,0.0,-0.5682,-0.57,-0.4411,-0.4755,-0.4728,-0.3669,-0.3789,-0.4164,0.0,0.0,0.0,0.0,0.0,0.0,0.0,0.0,0.0,0.0,0.0,-0.8891,-0.8891,-0.8957,0.0,0.0,0.0,0.0,0.0,0.0,-0.9189,-0.91,-0.9283,0.0,0.0,0.0,0.0,0.0,0.0,0.0,0.0,0.0,0.0,0.0,0.0,0.0,0.0,-1.5802,-1.7202,0.0,0.0,-2.1922,-2.285,-2.3345,-2.3728,-2.3808,-2.2991,-2.0675,-1.8397,-1.7623,0.0,-1.5114,-1.5147,-1.5917,-1.6486,-1.6067,-1.5718,-1.5242,-1.4423,0.0,0.0,-1.4419,-1.3908,-1.4108,-1.5944,-1.6095,-1.6158,-1.6484,-1.6622,-1.6527,-1.6012,-1.585,-1.5782,-1.5821,-1.6396,-1.6855,-1.7119,-1.7695,-1.8008,-1.8008,-1.7764,-1.7764,-1.8008,-1.7754,-1.7764,-1.8008,-1.8008,-1.8008,-1.8018,-1.8184,-1.8262,-1.8262,-1.8262,-1.8506,-1.8877,-1.8701,-1.916,-1.9912,-1.9912,-2.0195,-2.0566,0.0,0.0,0.0,0.0,0.0,0.0,-0.476,-0.5441,-0.5702,-0.4882,-0.5105,-0.4957,-0.3938,-0.418,-0.4444,-0.4504,0.0,0.0,0.0,0.0,0.0,0.0,0.0,0.0,0.0,0.0,-0.8891,-0.8891,-0.8891,-0.883,0.0,0.0,-0.8654,-0.8306,0.0,0.0,0.0,0.0,0.0,0.0,0.0,0.0,0.0,0.0,0.0,0.0,0.0,0.0,0.0,0.0,0.0,0.0,0.0,0.0,0.0,0.0,-2.048,-2.1602,-2.2428,-2.3235,-2.3637,-2.2723,-2.0694,-1.861,0.0,0.0,-1.5334,-1.5364,-1.6214,-1.6952,-1.6952,-1.667,-1.6115,-1.5119,0.0,-1.3983,-1.4269,-1.3856,-1.4133,-1.5847,0.0,-1.6158,-1.6722,-1.6759,-1.6566,-1.6063,-1.5983,-1.6074,-1.6437,-1.6481,-1.6738,-1.7178,-1.7607,-1.7822,-1.7822,-1.7402,-1.7402,-1.7822,-1.7393,-1.7412,-1.7822,-1.7822,-1.7891,-1.8008,-1.8008,-1.8008,-1.8008,-1.8008,-1.8184,-1.8467,-1.8584,-1.9082,-1.9746,-1.9873,-2.0195,-2.0566,0.0,0.0,0.0,0.0,0.0,0.0,0.0,-0.4873,-0.5544,-0.5682,-0.5692,-0.5234,-0.4026,-0.5204,-0.5606,-0.4401,0.0,0.0,0.0,0.0,0.0,0.0,0.0,0.0,0.0,0.0,-0.8891,-0.8891,-0.8891,-0.8693,-0.83,-0.83,-0.812,-0.7823,0.0,0.0,0.0,0.0,0.0,0.0,0.0,0.0,0.0,0.0,0.0,0.0,0.0,0.0,0.0,0.0,0.0,0.0,0.0,0.0,0.0,0.0,-1.8744,-2.0686,-2.1565,-2.2391,-2.2923,-2.2578,-2.077,-1.9,0.0,-1.7144,-1.6108,-1.6831,-1.7148,-1.728,-1.728,-1.7027,-1.6549,-1.5719,-1.5534,0.0,-1.4052,-1.4742,-1.5247,0.0,-1.5856,-1.6735,-1.7313,-1.7678,-1.7559,-1.6841,-1.6599,-1.6691,-1.7162,-1.6487,-1.6279,-1.6665,-1.7168,-1.7393,-1.7393,-1.6953,-1.6953,-1.7383,-1.6943,-1.6973,-1.7393,-1.7393,-1.7617,-1.8008,-1.8008,-1.8008,-1.8008,-1.8008,-1.8008,-1.8057,-1.8467,-1.8906,-1.9346,-1.9756,-2.0195,-2.0566,0.0,0.0,0.0,0.0,0.0,0.0,0.0,-0.5733,-0.6226,-0.5216,-0.6401,-0.6576,-0.4596,-0.5403,-0.5689,-0.4661,0.0,0.0,0.0,0.0,0.0,0.0,0.0,0.0,0.0,0.0,-0.8268,-0.8494,-0.8494,-0.8416,-0.8287,-0.8287,-0.7972,-0.7398,-0.7753,-0.781,0.0,0.0,0.0,0.0,0.0,0.0,0.0,0.0,0.0,0.0,0.0,0.0,0.0,0.0,0.0,0.0,0.0,0.0,0.0,0.0,0.0,0.0,-1.9051,-1.9858,-2.0191,-1.8979,-1.7594,-1.6381,-1.5726,-1.5309,-1.5295,-1.6091,-1.6817,-1.7296,-1.7296,-1.685,-1.6254,-1.5706,-1.5389,0.0,0.0,0.0,0.0,-1.5421,-1.5978,-1.6558,-1.7123,-1.6729,-1.6461,-1.6565,-1.6058,-1.5948,-1.6397,-1.6246,-1.6269,-1.6719,-1.6865,-1.6943,-1.6943,-1.6494,-1.6494,-1.6934,-1.6484,-1.6504,-1.6953,-1.7246,-1.7295,-1.7168,-1.7754,-1.7842,-1.7607,-1.7891,-1.8008,-1.8018,-1.8154,-1.8652,-1.9268,-1.9102,-1.9687,-2.0518,0.0,0.0,0.0,0.0,0.0,0.0,0.0,-0.5672,-0.5952,-0.4832,-0.6085,-0.6453,-0.4782,-0.5453,-0.566,-0.4782,0.0,0.0,0.0,0.0,0.0,0.0,0.0,0.0,0.0,-0.7723,-0.7811,-0.7843,-0.7867,-0.7867,-0.7843,-0.7715,-0.7525,-0.732,-0.7502,-0.7547,0.0,0.0,0.0,0.0,0.0,0.0,-0.8027,0.0,0.0,0.0,0.0,0.0,0.0,0.0,0.0,0.0,0.0,0.0,0.0,0.0,-1.485,-1.6119,0.0,-1.7899,-1.806,-1.7133,-1.62,0.0,-1.4394,-1.4518,-1.4986,-1.5601,-1.6344,-1.6919,-1.7077,-1.6654,-1.6207,-1.6023,-1.5826,-1.5586,0.0,0.0,0.0,-1.596,-1.6585,-1.6955,-1.6824,-1.6577,-1.6382,-1.6221,-1.5716,-1.5527,-1.5801,-1.582,-1.5947,-1.623,-1.6396,-1.6484,-1.6484,-1.6035,-1.6045,-1.6475,-1.6035,-1.6045,-1.6484,-1.6758,-1.6924,-1.7012,-1.7549,-1.7715,0.0,-1.79,-1.8008,-1.8027,-1.8184,-1.8574,-1.9023,-1.8926,-1.9492,-2.0283,0.0,0.0,0.0,0.0,0.0,0.0,0.0,0.0,0.0,0.0,-0.5041,-0.5213,-0.472,-0.5402,-0.5595,0.0,0.0,0.0,0.0,0.0,0.0,0.0,0.0,0.0,0.0,-0.7562,-0.7561,-0.7183,-0.7206,-0.7195,-0.712,-0.6815,-0.694,-0.7426,-0.7258,-0.7348,0.0,0.0,0.0,0.0,0.0,0.0,0.0,0.0,0.0,0.0,0.0,0.0,0.0,0.0,0.0,0.0,0.0,0.0,0.0,0.0,0.0,0.0,0.0,-1.6402,-1.6443,0.0,0.0,0.0,-1.4232,-1.446,0.0,-1.5344,-1.5806,-1.6294,-1.6687,-1.6459,-1.6276,-1.6533,-1.6713,0.0,0.0,-1.6547,0.0,0.0,-1.7385,-1.754,-1.6421,-1.6956,-1.695,-1.5727,-1.5459,-1.5371,-1.5371,-1.5371,-1.5381,-1.541,-1.5801,-1.6076,-1.6076,-1.5615,-1.5615,-1.6066,-1.5605,-1.5625,-1.6076,-1.6105,-1.6494,-1.7246,-1.7305,-1.7559,-1.792,-1.7949,-1.7978,-1.8047,-1.8437,-1.8533,-1.8682,-1.9062,-1.9482,-1.9873,0.0,0.0,0.0,0.0,0.0,0.0,0.0,0.0,0.0,0.0,0.0,-0.5483,-0.5304,-0.5646,0.0,0.0,0.0,0.0,0.0,0.0,0.0,0.0,0.0,0.0,0.0,-0.7289,-0.7504,-0.7867,-0.757,-0.7416,-0.7401,-0.733,-0.7117,-0.6828,-0.7082,-0.7348,0.0,0.0,0.0,0.0,0.0,0.0,0.0,0.0,0.0,0.0,-1.0306,-1.1118,0.0,0.0,0.0,0.0,0.0,0.0,0.0,0.0,-1.3543,-1.3691,-1.4176,0.0,-1.4459,-1.3159,-1.3127,-1.3209,0.0,0.0,-1.4211,0.0,0.0,-1.5943,-1.6349,-1.6216,-1.6058,-1.6123,-1.6541,-1.6564,-1.5657,-1.5866,0.0,-1.6471,-1.617,-1.6078,-1.6338,-1.5803,-1.5444,-1.5332,-1.5054,-1.4932,-1.4932,-1.4932,-1.5078,-1.54,-1.5508,-1.5566,-1.5566,-1.5469,-1.5469,-1.5566,-1.5459,-1.5469,-1.5576,-1.5908,-1.5996,-1.5908,-1.6592,-1.6943,-1.7061,-1.7393,-1.7715,-1.8018,-1.8115,-1.835,-1.8613,-1.8389,-1.8789,-1.9434,0.0,0.0,0.0,0.0,0.0,0.0,0.0,0.0,0.0,0.0,0.0,0.0,0.0,0.0,0.0,0.0,0.0,0.0,0.0,0.0,0.0,0.0,0.0,0.0,-0.7195,-0.7382,-0.7504,-0.7549,-0.7426,-0.7265,-0.7099,-0.7212,-0.7126,-0.6898,-0.7223,0.0,0.0,0.0,0.0,0.0,-0.731,0.0,0.0,0.0,0.0,0.0,-1.0266,-1.1008,0.0,-1.2229,-1.2556,-1.2852,0.0,0.0,0.0,0.0,-1.3446,-1.3461,-1.3362,-1.3342,-1.3174,-1.2313,-1.2393,-1.2565,-1.2078,0.0,0.0,0.0,0.0,0.0,-1.6294,-1.5842,0.0,0.0,-1.6201,0.0,0.0,0.0,-1.5421,-1.5788,-1.5544,-1.5563,-1.5982,-1.5423,-1.4963,-1.4849,-1.4593,-1.4492,-1.4492,-1.4492,-1.459,-1.4824,-1.5019,-1.5215,-1.541,-1.541,-1.541,-1.541,-1.541,-1.541,-1.542,-1.5654,-1.5742,-1.5732,-1.6221,-1.6543,-1.6748,-1.6982,-1.7217,-1.7441,-1.7646,-1.7861,-1.8057,-1.8018,-1.8428,-1.8994,0.0,0.0,0.0,0.0,0.0,0.0,0.0,0.0,0.0,0.0,0.0,0.0,0.0,0.0,0.0,0.0,0.0,0.0,0.0,0.0,0.0,0.0,0.0,-0.7227,-0.7195,-0.7636,-0.7621,-0.7078,-0.7136,-0.6982,-0.6636,-0.6855,-0.7035,-0.7211,-0.7371,-0.7563,0.0,0.0,-0.7318,-0.7392,-0.7325,0.0,0.0,0.0,0.0,0.0,0.0,0.0,0.0,-1.2015,-1.254,-1.3049,-1.3311,0.0,0.0,0.0,0.0,0.0,-1.2787,-1.2607,-1.2559,-1.2465,-1.2529,-1.252,0.0,0.0,0.0,0.0,0.0,0.0,0.0,-1.5401,0.0,0.0,0.0,0.0,-1.5154,-1.4952,-1.4884,-1.5073,-1.5177,-1.524,-1.5311,-1.5105,-1.4737,-1.419,-1.409,-1.398,-1.398,-1.398,-1.4009,-1.4077,-1.4492,-1.4853,-1.5215,-1.5342,-1.541,-1.541,-1.541,-1.5381,-1.5322,-1.5381,-1.5576,-1.5929,-1.5998,-1.6221,-1.6631,-1.6631,-1.667,-1.6768,-1.7139,-1.7324,-1.7432,-1.7783,-1.8184,-1.8555,0.0,0.0,0.0,0.0,0.0,0.0,0.0,0.0,0.0,0.0,0.0,0.0,0.0,0.0,0.0,0.0,0.0,0.0,0.0,0.0,0.0,0.0,-0.6857,-0.7309,-0.7195,-0.7876,-0.8114,-0.7907,-0.7326,-0.6937,-0.677,-0.6762,-0.6912,-0.7197,-0.694,-0.7012,-0.7289,-0.7411,-0.7286,-0.6977,-0.6808,0.0,0.0,0.0,0.0,0.0,0.0,0.0,0.0,-1.2404,-1.2741,-1.3049,-1.3311,0.0,0.0,0.0,0.0,0.0,-1.1286,-1.2175,-1.3067,-1.1614,-1.1722,-1.1951,-1.1005,0.0,0.0,0.0,0.0,0.0,0.0,-1.4885,-1.4625,0.0,0.0,-1.5306,-1.6705,-1.5664,-1.4902,-1.5425,-1.4663,-1.4078,-1.4097,-1.3879,-1.357,-1.3145,-1.341,-1.3603,-1.3603,-1.3603,-1.3769,-1.4068,-1.4145,-1.4268,-1.4272,-1.5049,-1.541,-1.541,-1.541,-1.5225,-1.4893,-1.5254,-1.5254,-1.5,-1.5361,-1.5762,-1.6162,-1.6162,-1.6387,-1.6738,-1.6807,-1.7061,-1.7393,-1.7461,-1.7744,-1.8154,0.0,0.0,0.0,0.0,0.0,0.0,0.0,0.0,0.0,0.0,0.0,0.0,0.0,0.0,0.0,0.0,0.0,0.0,0.0,0.0,0.0,-0.5854,-0.6629,-0.717,-0.7351,-0.7597,-0.7691,-0.7674,-0.7082,-0.6768,-0.6751,-0.7167,-0.7169,-0.6885,-0.7168,-0.7386,-0.7532,-0.7621,-0.7621,-0.753,0.0,0.0,0.0,0.0,0.0,0.0,0.0,0.0,0.0,0.0,-1.2871,-1.3208,-1.3191,0.0,0.0,0.0,0.0,0.0,-1.072,-1.1506,-1.2259,-1.1112,-1.1963,-1.2802,-1.1814,0.0,0.0,0.0,0.0,0.0,0.0,0.0,-1.4098,-1.3812,-1.3825,-1.3979,-1.449,-1.4094,-1.3891,-1.4194,-1.3715,-1.342,-1.3768,-1.3419,-1.3096,-1.29,-1.3057,-1.3174,-1.3174,-1.3174,-1.3262,-1.3447,-1.3682,-1.3799,-1.3799,-1.4414,-1.4717,-1.4717,-1.4717,-1.4746,-1.4795,-1.498,-1.5088,-1.5127,-1.5322,-1.5527,-1.5713,-1.5713,-1.583,-1.6045,-1.6279,-1.6494,-1.6728,-1.7207,-1.7646,-1.8076,0.0,0.0,0.0,0.0,0.0,0.0,0.0,0.0,0.0,0.0,0.0,0.0,0.0,0.0,0.0,0.0,0.0,0.0,0.0,0.0,-0.6198,-0.591,-0.6266,-0.6613,-0.6927,-0.7091,-0.7159,-0.7097,-0.6631,-0.6141,-0.5667,-0.6777,-0.7188,-0.699,-0.7437,-0.7732,-0.7868,-0.7868,-0.7938,-0.8026,0.0,0.0,0.0,0.0,0.0,0.0,0.0,0.0,0.0,0.0,0.0,0.0,0.0,0.0,0.0,-1.1679,-1.1173,-1.0607,-1.0143,-1.0846,-1.1532,-1.0735,0.0,-1.3335,-1.2784,0.0,0.0,0.0,0.0,0.0,0.0,-1.4239,0.0,-1.2805,-1.2899,-1.2968,-1.2828,-1.2899,-1.3026,-1.3244,-1.3027,-1.3055,-1.3552,-1.3152,-1.2881,-1.2881,-1.2881,-1.2881,-1.2881,-1.2881,-1.2881,-1.2881,-1.3193,-1.3359,-1.3359,-1.3682,-1.3883,-1.4077,-1.4077,-1.4258,-1.4492,-1.459,-1.4756,-1.4971,-1.5068,-1.5107,-1.5117,-1.5225,-1.5205,-1.5166,-1.5703,-1.5977,-1.6233,-1.7061,-1.7588,-1.793,0.0,0.0,0.0,0.0,0.0,0.0,0.0,0.0,0.0,0.0,0.0,0.0,0.0,0.0,0.0,0.0,0.0,0.0,0.0,0.0,-0.6587,-0.6194,-0.5738,-0.5438,-0.5267,-0.6478,-0.6895,-0.6472,-0.6064,-0.4709,-0.2561,-0.4553,-0.6424,-0.8057,-0.7428,-0.7493,-0.8075,-0.8075,-0.7979,-0.7856,-0.829,0.0,0.0,0.0,0.0,0.0,0.0,0.0,0.0,0.0,0.0,0.0,0.0,0.0,-1.2293,-1.0993,-1.0821,-1.0707,-0.9003,-1.0265,-1.1754,-1.0386,-1.1146,0.0,-1.3019,-1.3221,0.0,-1.5078,0.0,0.0,0.0,-1.3181,-1.2377,-1.1943,-1.2507,-1.3375,-1.4383,-1.3616,-1.3102,-1.3679,-1.3266,-1.2929,-1.2968,-1.2929,-1.2881,-1.2881,-1.2881,-1.2881,-1.2881,-1.2881,-1.2881,-1.2881,-1.291,-1.293,-1.293,-1.2959,-1.3359,-1.4077,-1.4077,-1.3945,-1.3613,-1.4004,-1.3984,-1.3672,-1.4053,-1.4175,-1.4204,-1.4668,-1.459,-1.4253,-1.5137,-1.5703,-1.6233,-1.7061,-1.7402,-1.749,0.0,0.0,0.0,0.0,0.0,0.0,0.0,0.0,0.0,0.0,0.0,0.0,0.0,0.0,0.0,0.0,0.0,0.0,0.0,0.0,-0.6716,-0.5977,-0.5749,-0.5466,-0.51,-0.5435,-0.5632,-0.5656,-0.5213,-0.4524,-0.3644,-0.4188,-0.5564,-0.7581,-0.7683,-0.7856,-0.8102,-0.8102,-0.8131,-0.8149,-0.8004,-0.8527,0.0,0.0,0.0,0.0,0.0,0.0,0.0,0.0,-1.2607,-1.2852,-1.2588,-1.187,-1.0994,-1.0424,-0.9697,-0.9018,-0.853,-1.0097,-1.1494,-1.005,0.0,0.0,0.0,-1.3763,-1.3835,-1.4033,-1.4616,0.0,0.0,0.0,-1.2332,-1.2101,-1.2299,-1.275,-1.348,-1.32,-1.2968,-1.319,-1.3065,-1.2881,-1.2881,-1.2881,-1.2881,-1.2881,-1.2881,-1.2881,-1.2881,-1.2881,-1.2881,-1.2881,-1.2881,-1.2881,-1.2881,-1.2881,-1.3037,-1.335,-1.335,-1.3408,-1.3516,-1.3672,-1.3799,-1.3906,-1.4009,-1.4077,-1.4087,-1.4307,-1.4277,-1.4136,-1.4785,-1.5449,-1.6164,-1.6498,-1.6914,-1.7402,0.0,0.0,0.0,0.0,0.0,0.0,0.0,0.0,0.0,0.0,0.0,0.0,0.0,0.0,0.0,0.0,0.0,0.0,0.0,-0.7548,-0.7154,-0.6286,-0.6088,-0.5695,-0.5087,-0.476,-0.4461,-0.4158,-0.3434,-0.4038,-0.5878,-0.561,-0.6101,-0.7251,-0.7637,-0.7869,-0.797,-0.7856,-0.8052,-0.8396,-0.8274,-0.8823,0.0,0.0,0.0,0.0,0.0,0.0,0.0,0.0,-1.2392,-1.2553,-1.2291,-1.1423,-1.0463,-1.0175,-0.9248,-0.8347,-0.8627,-0.9996,-1.1124,0.0,0.0,0.0,-1.4288,-1.4196,-1.3988,-1.4199,-1.4304,-1.4137,-1.3442,0.0,-1.1886,-1.1817,-1.1943,-1.2143,-1.2449,-1.2508,-1.2508,-1.2508,-1.2508,-1.2508,-1.2508,-1.2588,-1.2617,-1.2518,-1.2725,-1.2822,-1.2686,-1.2803,-1.2881,-1.2881,-1.2881,-1.2881,-1.2881,-1.2881,-1.2881,-1.2881,-1.2881,-1.3027,-1.3311,-1.3311,-1.3467,-1.374,-1.374,-1.374,-1.375,-1.3887,-1.4014,-1.4107,-1.4463,-1.5019,-1.5693,-1.6027,-1.6507,-1.6992,0.0,0.0,0.0,0.0,0.0,0.0,0.0,0.0,0.0,0.0,0.0,0.0,0.0,0.0,0.0,0.0,0.0,0.0,-0.8287,-0.8287,-0.7972,-0.7242,-0.6701,-0.5969,-0.5036,-0.4631,-0.3606,-0.1922,-0.0683,-0.3112,-0.8891,-0.8895,-0.8326,-0.7291,-0.7235,-0.7377,-0.7674,-0.7348,-0.7667,-0.8475,-0.9265,-0.9725,-0.9969,0.0,0.0,0.0,0.0,0.0,0.0,0.0,-1.2356,-1.2553,-1.2271,-1.173,-1.1035,-1.0314,-0.9619,-0.9127,-0.9338,-0.9952,-1.0672,0.0,0.0,0.0,-1.4937,-1.4334,-1.4122,-1.6078,-1.4706,-1.3243,-1.3459,-1.2007,-1.0839,-1.0973,-1.1407,-1.1675,-1.1624,-1.1606,-1.1606,-1.1606,-1.1606,-1.1606,-1.1606,-1.1963,-1.2041,-1.1636,-1.242,-1.2676,-1.22,-1.2637,-1.2871,-1.2871,-1.2871,-1.2871,-1.2871,-1.2881,-1.2881,-1.2881,-1.2881,-1.2881,-1.2881,-1.2881,-1.2881,-1.2881,-1.2881,-1.2881,-1.291,-1.333,-1.375,-1.4077,-1.4077,-1.4394,-1.4893,-1.5802,-1.6115,-1.6184,0.0,0.0,0.0,0.0,0.0,0.0,0.0,0.0,0.0,0.0,0.0,0.0,0.0,0.0,0.0,0.0,0.0,0.0,-0.8287,-0.8287,-0.8026,-0.7427,-0.6898,-0.6588,-0.6538,-0.601,-0.5082,-0.3727,-0.5428,-0.7155,-0.8874,-0.8033,-0.7568,-0.742,-0.702,-0.7056,-0.7454,-0.7964,-0.8179,-0.8203,-0.8451,-0.909,-0.9916,0.0,0.0,0.0,0.0,0.0,0.0,0.0,0.0,0.0,-1.194,-1.1162,-1.0243,-1.001,-0.9149,-0.8379,-0.9019,-1.0142,0.0,0.0,0.0,0.0,0.0,-1.3173,0.0,0.0,-1.3044,-1.2321,-1.3144,-1.2307,-1.1498,-1.1413,-1.125,-1.1263,-1.1538,-1.1606,-1.1606,-1.1606,-1.1606,-1.1606,-1.1606,-1.1724,-1.1753,-1.1616,-1.1851,-1.1939,-1.1768,-1.193,-1.1998,-1.1998,-1.2256,-1.2422,-1.2422,-1.2725,-1.2881,-1.2881,-1.2881,-1.2881,-1.2881,-1.2881,-1.2881,-1.2881,-1.2881,-1.2881,-1.2891,-1.3018,-1.3311,-1.3691,-1.3691,-1.4141,-1.4814,-1.5068,-1.5547,-1.6145,0.0,0.0,0.0,0.0,0.0,0.0,0.0,0.0,0.0,0.0,0.0,0.0,0.0,0.0,0.0,0.0,0.0,0.0,0.0,0.0,-0.8332,-0.7836,-0.7513,-0.7255,-0.7085,-0.6757,-0.6302,-0.5773,-0.7873,-0.8953,-0.899,-0.7783,-0.7295,-0.7398,-0.6673,-0.6207,-0.6067,-0.7291,-0.7916,-0.8106,-0.8183,-0.8739,-0.9546,0.0,0.0,0.0,0.0,0.0,0.0,0.0,0.0,0.0,-1.1117,0.0,-0.9563,-0.9815,-0.9143,-0.8515,-0.95,-1.0603,0.0,0.0,-1.2418,-1.3551,-1.235,0.0,0.0,0.0,-1.245,-1.1864,-1.271,-1.1787,-1.0922,-1.1077,-1.0567,-1.0244,-1.0547,-1.0587,-1.0645,-1.0771,-1.0791,-1.0859,-1.1077,-1.1243,-1.1273,-1.1106,-1.141,-1.1528,-1.1309,-1.1508,-1.1606,-1.1606,-1.1826,-1.1963,-1.1963,-1.2227,-1.2451,-1.2617,-1.2617,-1.2715,-1.2881,-1.2881,-1.2881,-1.2881,-1.2881,-1.2881,-1.2881,-1.2881,-1.3027,-1.3271,-1.3447,-1.3818,-1.4297,-1.4463,-1.4853,-1.5322,0.0,0.0,0.0,0.0,0.0,0.0,0.0,0.0,0.0,0.0,0.0,0.0,0.0,0.0,0.0,0.0,0.0,0.0,0.0,0.0,-0.8766,-0.845,-0.8348,-0.7926,-0.7076,-0.7101,-0.7349,-0.782,-0.8546,-0.8996,-0.9161,-0.7919,-0.7327,-0.7251,-0.6018,-0.492,-0.4126,-0.5945,-0.7242,-0.8068,-0.8262,-0.8537,-0.8942,-0.986,0.0,0.0,0.0,0.0,0.0,0.0,0.0,0.0,-1.0088,-0.946,-0.9025,-0.9673,-0.9419,-0.9208,-1.044,0.0,0.0,0.0,-1.3047,0.0,-1.2179,-1.2726,-1.3517,-1.3409,0.0,-1.1738,-1.2241,-1.0801,-0.9701,-1.0161,-0.9484,-0.893,-0.8945,-0.8945,-0.9102,-0.9485,-0.9534,-0.9727,-1.0127,-1.0508,-1.0576,-1.0195,-1.0959,-1.1211,-1.0811,-1.1253,-1.1489,-1.1489,-1.1528,-1.1547,-1.1547,-1.1587,-1.1768,-1.2168,-1.2168,-1.2373,-1.2764,-1.2842,-1.2881,-1.2881,-1.2881,-1.2881,-1.2881,-1.2881,-1.2881,-1.292,-1.3301,-1.3477,-1.3555,-1.3936,-1.4048,-1.4136,0.0,0.0,0.0,0.0,0.0,0.0,0.0,0.0,0.0,0.0,0.0,0.0,0.0,0.0,0.0,0.0,0.0,0.0,0.0,0.0,-0.9081,-0.9462,-0.8766,-0.8357,-0.8323,-0.8161,-0.8323,-0.8798,-0.8872,-0.8968,-0.9099,-0.7566,-0.7041,-0.7248,-0.4289,-0.3386,-0.4226,-0.6621,-0.7649,-0.7709,-0.7871,-0.8098,-0.837,-0.8598,-0.9052,0.0,0.0,0.0,0.0,0.0,0.0,0.0,-1.0068,-0.9532,-0.8984,-0.939,-0.9374,-0.9421,0.0,-1.1085,0.0,0.0,-1.2562,-1.2439,-1.1809,-1.1253,-1.0892,-1.1084,-1.1368,-1.1656,-1.1738,-1.0732,-0.9845,-0.9751,-0.8914,-0.8349,-0.8489,-0.8516,-0.8672,-0.9092,-0.9141,-0.918,-0.9268,-0.9365,-0.9375,-0.9287,-0.9756,-0.9972,-0.9875,-1.0322,-1.0596,-1.0596,-1.0879,-1.1055,-1.1055,-1.143,-1.1655,-1.1753,-1.1753,-1.1792,-1.191,-1.2616,-1.2881,-1.2881,-1.2881,-1.2881,-1.2881,-1.2881,-1.2881,-1.2891,-1.2978,-1.3213,-1.3516,-1.3613,-1.3848,-1.4087,0.0,0.0,0.0,0.0,0.0,0.0,0.0,0.0,0.0,0.0,0.0,0.0,0.0,0.0,0.0,0.0,0.0,0.0,0.0,0.0,0.0,-0.9988,-0.9186,-0.8784,-0.888,-0.8665,-0.8731,-0.9088,-0.8902,0.0,0.0,0.0,0.0,-0.6953,-0.4434,-0.3668,-0.447,-0.7112,-0.7904,-0.7405,-0.7417,-0.7416,-0.7462,-0.7725,-0.8135,-0.8694,-0.9437,0.0,0.0,0.0,0.0,0.0,0.0,0.0,-0.8754,-0.9258,-0.9368,-0.9511,0.0,0.0,0.0,-1.1676,0.0,-1.1484,-1.1253,-1.0409,-0.9709,-0.9837,-0.9959,-1.0018,-1.0018,-0.9397,-0.882,-0.8544,-0.7925,-0.7545,-0.7763,-0.7764,-0.7998,-0.8633,-0.8701,-0.8779,-0.8984,-0.9004,-0.9004,-0.9004,-0.9209,-0.9326,-0.9326,-0.9736,-0.9971,-0.9971,-1.0391,-1.0605,-1.0605,-1.0871,-1.1087,-1.125,-1.125,-1.14,-1.1626,-1.2086,-1.2292,-1.2312,-1.248,-1.2568,-1.2588,-1.2793,-1.2881,-1.2881,-1.2881,-1.3018,-1.3203,-1.3203,-1.335,-1.3564,0.0,0.0,0.0,0.0,0.0,0.0,0.0,0.0,0.0,0.0,0.0,0.0,0.0,0.0,0.0,0.0,0.0,0.0,0.0,0.0,0.0,-1.0226,-0.9632,-0.9227,-0.9057,-0.8812,-0.8806,-0.9043,0.0,0.0,0.0,0.0,0.0,-0.6729,0.0,-0.4729,-0.5356,-0.7576,-0.808,-0.7335,-0.7197,-0.6967,-0.6757,-0.7164,-0.7407,-0.7659,-0.8723,-0.894,-0.874,-0.885,0.0,0.0,0.0,0.0,-0.8472,-0.909,-0.9316,-0.951,0.0,0.0,0.0,-1.0643,-1.0613,0.0,-1.0375,-0.9613,-0.893,-0.893,-0.8592,-0.8298,-0.8298,-0.7937,-0.7548,-0.7259,-0.6888,-0.6691,-0.6858,-0.6934,-0.7246,-0.7959,-0.8174,-0.8379,-0.8652,-0.874,-0.8789,-0.8789,-0.8857,-0.8896,-0.8896,-0.933,-0.9563,-0.9485,-0.9941,-1.0166,-1.0166,-1.0166,-1.0381,-1.0801,-1.0801,-1.0986,-1.1381,-1.1381,-1.1469,-1.1626,-1.1953,-1.2109,-1.2148,-1.2588,-1.2773,-1.2773,-1.2852,-1.2881,-1.2881,-1.2881,-1.2881,-1.293,0.0,0.0,0.0,0.0,0.0,0.0,0.0,0.0,0.0,0.0,0.0,0.0,0.0,0.0,0.0,0.0,0.0,0.0,-1.0503,0.0,0.0,-1.0255,-1.0158,-0.9743,-0.8863,-0.8755,-0.8717,-0.8748,0.0,0.0,0.0,0.0,0.0,-0.7125,0.0,0.0,-0.806,-0.8208,-0.814,-0.7965,-0.776,-0.7475,-0.7114,-0.7002,-0.7093,-0.727,-0.7453,-0.7733,-0.8034,-0.8063,-0.8148,0.0,0.0,0.0,-0.8227,-0.8668,-0.9032,-0.9401,0.0,0.0,0.0,0.0,-0.9599,-0.9324,0.0,0.0,-0.7476,-0.7476,-0.7932,-0.8298,-0.8298,-0.7823,-0.7295,-0.6867,-0.6363,-0.5995,-0.5987,-0.627,-0.6543,-0.666,-0.7344,-0.7695,-0.7383,-0.7656,-0.787,-0.787,-0.8252,-0.8499,-0.8499,-0.9209,-0.9427,-0.9102,-0.9466,-0.968,-0.968,-0.968,-0.9941,-1.0371,-1.0371,-1.04,-1.0449,-1.0449,-1.09,-1.1606,-1.1665,-1.1694,-1.1724,-1.2129,-1.2268,-1.2353,-1.2734,-1.2881,-1.2881,-1.2881,-1.2881,-1.2891,0.0,0.0,0.0,0.0,0.0,0.0,0.0,0.0,0.0,0.0,0.0,0.0,0.0,0.0,0.0,-0.8718,-0.9897,-1.1056,-1.2106,-1.2442,-1.2305,-1.1641,-1.0843,-1.021,-0.9767,-0.9065,-0.8741,0.0,0.0,0.0,0.0,-0.671,-0.6918,0.0,0.0,0.0,0.0,-0.839,-0.8081,-0.7695,-0.7571,-0.7296,-0.697,-0.6842,-0.7053,-0.7394,-0.7256,-0.7501,-0.7899,-0.7855,-0.7968,-0.8144,-0.8335,0.0,0.0,0.0,-0.8666,0.0,-0.8834,0.0,-0.9538,0.0,-0.8933,-0.8866,-0.8515,-0.788,-0.7366,-0.7366,-0.7358,-0.7338,-0.7338,-0.7137,-0.6939,-0.692,-0.653,-0.6281,-0.6448,-0.6431,-0.6406,-0.6406,-0.6748,-0.7021,-0.709,-0.7266,-0.7452,-0.7686,-0.79,-0.8008,-0.8008,-0.8594,-0.8848,-0.8662,-0.9062,-0.9359,-0.9592,-0.9592,-0.9853,-1.0283,-1.0283,-1.0283,-1.0283,-1.0283,-1.0528,-1.09,-1.1094,-1.1191,-1.123,-1.167,-1.2002,-1.22,-1.2441,-1.2666,-1.2881,-1.2881,-1.2881,-1.2881,0.0,0.0,0.0,0.0,0.0,0.0,0.0,0.0,0.0,0.0,0.0,0.0,0.0,0.0,0.0,0.0,-1.076,-1.1835,-1.3108,-1.293,-1.2678,-1.2547,-1.1501,-1.0837,-1.0656,-0.9557,0.0,0.0,0.0,0.0,-0.6487,-0.668,-0.7034,0.0,-0.7227,0.0,0.0,0.0,0.0,0.0,-0.731,-0.7093,-0.6765,-0.6547,-0.672,-0.7085,-0.7053,-0.7301,-0.766,-0.7781,-0.7938,-0.8131,-0.8214,-0.8296,0.0,0.0,0.0,0.0,0.0,0.0,-0.839,-0.8049,-0.8106,-0.823,0.0,0.0,-0.7226,-0.7321,-0.6947,-0.6599,-0.6599,-0.6712,-0.6797,-0.6789,-0.6735,-0.6662,-0.6538,-0.6445,-0.6328,-0.609,-0.627,-0.6543,-0.6895,-0.7031,-0.7275,-0.7666,-0.7695,-0.7695,-0.7695,-0.8145,-0.8362,-0.8223,-0.8623,-0.8994,-0.9281,-0.9485,-0.9853,-1.0283,-1.0166,-1.0176,-1.0312,-1.0166,-1.0176,-1.0303,-1.0615,-1.0752,-1.0781,-1.1221,-1.166,-1.207,-1.2141,-1.25,-1.2881,-1.2881,-1.2881,-1.2881,0.0,0.0,0.0,0.0,0.0,0.0,0.0,0.0,0.0,0.0,0.0,0.0,-1.0495,-1.0493,-1.0632,-1.0986,-1.1525,-1.2071,-1.26,-1.2791,-1.2673,-1.215,-1.2126,0.0,-1.1073,-1.0205,0.0,0.0,0.0,0.0,-0.6435,-0.7556,-0.715,-0.5481,-0.6082,-0.7268,-0.8783,0.0,0.0,0.0,0.0,-0.7042,-0.672,-0.603,-0.5737,-0.579,-0.6399,-0.6774,-0.7047,-0.7689,-0.7997,-0.8061,-0.7896,-0.7966,-0.8075,0.0,0.0,0.0,0.0,-0.7547,0.0,-0.6974,-0.6891,0.0,0.0,-0.6573,-0.6474,-0.6854,-0.6757,-0.6599,-0.6599,-0.7006,-0.7061,-0.6105,-0.6699,-0.6782,-0.5383,-0.5898,-0.6104,-0.5273,-0.5886,-0.6416,-0.6445,-0.6846,-0.7275,-0.7666,-0.7695,-0.7695,-0.7695,-0.8145,-0.8193,-0.7744,-0.8184,-0.846,-0.8469,-0.9228,-0.9853,-1.0273,-0.9863,-0.9883,-1.0273,-0.9853,-0.9893,-1.0283,-1.0303,-1.0312,-1.0342,-1.0771,-1.1201,-1.1685,-1.2061,-1.25,-1.2881,-1.2881,-1.2881,-1.2881,0.0,0.0,0.0,0.0,0.0,0.0,0.0,0.0,0.0,0.0,0.0,0.0,0.0,-1.0778,-1.0831,-1.1545,-1.2054,-1.2322,-1.2278,-1.2479,-1.2308,-1.1695,-1.1221,-1.077,-1.0286,-0.9483,0.0,0.0,0.0,-0.8274,-0.6559,-0.7856,-0.7785,-0.665,-0.8235,-0.8572,-0.7973,-0.8141,0.0,0.0,0.0,0.0,0.0,-0.6776,-0.6371,-0.6275,-0.6519,-0.7012,-0.7557,-0.7665,-0.7739,-0.7768,-0.7695,-0.7606,-0.7517,-0.7427,0.0,0.0,0.0,0.0,0.0,-0.7287,-0.6993,-0.6766,-0.67,-0.6153,-0.5794,-0.6297,-0.6217,-0.6202,-0.6536,-0.6762,-0.692,-0.7035,-0.7158,-0.7022,-0.641,-0.6361,-0.6084,-0.5215,-0.538,-0.5779,-0.6357,-0.6553,-0.6953,-0.7647,-0.7695,-0.7695,-0.7695,-0.7841,-0.7891,-0.7705,-0.8154,-0.8506,-0.8779,-0.931,-0.957,-0.9463,-0.9544,-0.968,-0.9873,-0.999,-1.0137,-1.0283,-1.0283,-1.0283,-1.0293,-1.0449,-1.0928,-1.1616,-1.1738,-1.2246,-1.2881,-1.2881,-1.2881,-1.2881,0.0,0.0,0.0,0.0,0.0,0.0,0.0,0.0,0.0,0.0,0.0,0.0,0.0,0.0,-1.1273,-1.1782,-1.2116,-1.2169,-1.1849,-1.1866,-1.1686,-1.1176,-1.0706,-1.0336,-1.0076,-0.9509,-0.9169,0.0,0.0,0.0,0.0,-0.7393,-0.73,-0.687,-0.862,-0.9044,0.0,0.0,0.0,-0.8024,0.0,0.0,-0.7819,-0.679,-0.6418,-0.6493,-0.6721,-0.7081,-0.7443,-0.7358,-0.7272,-0.7185,-0.7141,-0.7117,-0.7112,-0.7112,0.0,0.0,-0.7015,0.0,0.0,0.0,-0.6561,-0.6348,-0.5973,-0.5661,-0.5488,-0.5686,-0.5718,-0.5769,-0.6014,-0.6214,-0.649,-0.7,-0.7169,-0.7033,-0.6441,-0.6274,-0.5937,-0.5195,-0.5234,-0.5604,-0.6338,-0.6409,-0.674,-0.7453,-0.75,-0.75,-0.75,-0.7627,-0.7695,-0.7695,-0.7877,-0.8223,-0.8789,-0.9069,-0.9137,-0.9014,-0.9398,-0.9592,-0.9602,-0.9932,-1.0146,-1.0283,-1.0283,-1.0283,-1.0293,-1.0439,-1.0959,-1.1616,-1.1773,-1.2236,-1.2881,-1.2881,-1.2881,-1.2881,0.0,0.0,0.0,0.0,0.0,0.0,0.0,0.0,0.0,0.0,0.0,0.0,0.0,0.0,0.0,-1.167,-1.1625,-1.1541,-1.1296,-1.1024,-1.0821,-1.0663,-1.0673,-1.062,-1.0543,-1.027,-1.0018,0.0,0.0,0.0,0.0,0.0,-0.576,-0.5859,-0.6921,-0.85,-1.0216,0.0,-0.7519,-0.7438,0.0,-0.6797,-0.7216,-0.5945,-0.577,-0.6312,-0.6995,-0.6988,-0.6666,-0.6769,-0.6625,-0.6394,-0.6226,0.0,0.0,0.0,0.0,0.0,0.0,0.0,0.0,0.0,0.0,-0.5616,-0.4561,-0.5026,-0.5555,-0.5087,-0.5266,-0.5409,-0.5074,-0.5425,-0.5782,-0.587,-0.6677,-0.6782,-0.5343,-0.5518,-0.5615,-0.5166,-0.5508,-0.5937,-0.6367,-0.6442,-0.6656,-0.7082,-0.7089,-0.7089,-0.7089,-0.7471,-0.7705,-0.7715,-0.7333,-0.7549,-0.8369,-0.8369,-0.8565,-0.895,-0.9378,-0.9583,-0.9592,-0.9612,-0.9883,-1.0283,-1.0283,-1.0283,-1.0312,-1.0732,-1.1162,-1.1645,-1.2051,-1.25,-1.2881,-1.2881,-1.2881,-1.2881,0.0,0.0,0.0,0.0,0.0,0.0,0.0,0.0,0.0,0.0,0.0,0.0,0.0,-1.0235,-1.0034,-1.0161,-1.0093,-1.02,-1.062,-1.0581,-1.0312,-0.9782,-0.9755,-0.9535,-0.9028,-0.9035,-0.8896,-0.8578,0.0,0.0,0.0,0.0,0.0,0.0,-0.6793,-0.789,-0.9057,-0.858,0.0,-0.747,-0.7227,-0.6721,-0.6149,-0.6609,-0.6804,-0.6938,-0.766,-0.782,-0.7603,-0.706,-0.6828,-0.6634,-0.5912,0.0,0.0,0.0,0.0,0.0,-0.6099,0.0,0.0,0.0,0.0,0.0,-0.5173,-0.5144,-0.5164,-0.5023,-0.5266,-0.5474,-0.537,-0.505,-0.4965,-0.5517,-0.6234,-0.6532,-0.5982,-0.5842,-0.5615,-0.5166,-0.5215,-0.5575,-0.6338,-0.6157,-0.6296,-0.7034,-0.6841,-0.6669,-0.6669,-0.7059,-0.7544,-0.8184,-0.8091,-0.7982,-0.7904,-0.7885,-0.7756,-0.7482,-0.833,-0.8829,-0.9041,-0.9763,-1.0166,-1.0283,-1.0283,-1.0283,-1.0312,-1.0732,-1.1162,-1.1645,-1.2051,-1.25,-1.2881,-1.2881,-1.2881,-1.2881,0.0,0.0,0.0,0.0,0.0,0.0,0.0,0.0,0.0,0.0,0.0,0.0,0.0,0.0,-0.8833,-0.961,-0.9778,-0.9985,-1.0381,-1.0285,-0.9964,-0.9426,-0.9413,-0.9207,-0.8824,-0.8891,-0.884,-0.8651,0.0,0.0,0.0,0.0,0.0,0.0,0.0,0.0,0.0,0.0,0.0,0.0,-0.7259,-0.6794,-0.6557,-0.6906,-0.7146,-0.7357,-0.8035,-0.814,-0.7814,-0.6817,-0.62,-0.5749,-0.5073,-0.5191,0.0,0.0,0.0,0.0,0.0,0.0,0.0,0.0,0.0,0.0,-0.4744,-0.4945,-0.5022,-0.4383,-0.4421,-0.4582,-0.458,-0.3871,-0.3558,-0.4446,-0.5131,-0.5555,-0.5567,-0.5543,-0.541,-0.5137,-0.5273,-0.5664,-0.6338,-0.6212,-0.6304,-0.6798,-0.6631,-0.6488,-0.6488,-0.6721,-0.7167,-0.7831,-0.7676,-0.7645,-0.7686,-0.7548,-0.736,-0.7164,-0.8166,-0.8703,-0.8818,-0.9849,-1.0283,-1.0283,-1.0283,-1.0283,-1.0312,-1.0732,-1.1162,-1.1665,-1.2256,-1.2656,-1.2881,-1.2881,-1.2881,-1.2881,0.0,0.0,0.0,0.0,0.0,0.0,0.0,0.0,0.0,0.0,0.0,0.0,0.0,0.0,0.0,-0.9517,-0.9965,-1.0215,-1.0347,-1.0072,-0.978,-0.946,-0.9393,-0.9346,-0.9346,-0.928,-0.9262,-0.9256,0.0,0.0,0.0,0.0,0.0,0.0,0.0,0.0,0.0,0.0,0.0,-0.841,-0.7066,-0.7016,-0.7686,-0.6977,-0.6961,-0.7389,-0.7972,-0.7926,-0.745,-0.6285,-0.5179,-0.4295,-0.4074,-0.4434,-0.4933,-0.4924,-0.4915,0.0,0.0,0.0,0.0,-0.4488,-0.4741,0.0,-0.3922,-0.4637,-0.5115,-0.37,-0.3459,-0.3457,-0.3324,-0.262,-0.2393,-0.3384,-0.3941,-0.4349,-0.4668,-0.4895,-0.5039,-0.5039,-0.5439,-0.5879,-0.6299,-0.6386,-0.6435,-0.6487,-0.6463,-0.6427,-0.6427,-0.6427,-0.6601,-0.702,-0.673,-0.6906,-0.7636,-0.7239,-0.7188,-0.7507,-0.8433,-0.8828,-0.8805,-0.9791,-1.0196,-1.0205,-1.0166,-1.0157,-1.0234,-1.0651,-1.112,-1.1685,-1.248,-1.2842,-1.2881,-1.2881,-1.2881,-1.2881,-1.3398,0.0,0.0,0.0,0.0,0.0,0.0,0.0,0.0,0.0,0.0,0.0,0.0,0.0,0.0,0.0,-0.8708,-0.9123,-0.9932,-0.9944,-0.9881,-0.9818,-0.9388,-0.9095,-0.9,-0.8576,-0.8352,-0.8361,0.0,0.0,0.0,0.0,0.0,0.0,0.0,0.0,0.0,0.0,-0.791,-0.7485,-0.733,-0.7357,-0.7416,-0.6909,-0.6495,-0.6254,-0.659,-0.6662,-0.6509,-0.5932,-0.4894,-0.3873,-0.4033,-0.3952,-0.3806,-0.3804,-0.3805,-0.3818,-0.3824,-0.3769,-0.3735,-0.3717,-0.4099,0.0,-0.4484,-0.5013,-0.5358,-0.4836,-0.469,-0.4391,-0.3478,-0.3884,-0.4521,-0.4993,-0.4769,-0.4585,-0.4753,-0.4689,-0.4629,-0.4629,-0.4981,-0.543,-0.5881,-0.5944,-0.6083,-0.6473,-0.6204,-0.6006,-0.6006,-0.6006,-0.6213,-0.6609,-0.6841,-0.705,-0.7207,-0.6828,-0.6901,-0.7416,-0.7832,-0.8268,-0.8728,-0.9363,-0.9637,-0.9637,-0.9199,-0.9239,-0.9674,-1.0109,-1.0771,-1.1655,-1.2148,-1.2578,-1.2881,-1.2881,-1.2881,-1.2881,-1.1656,0.0,0.0,0.0,0.0,0.0,0.0,0.0,0.0,0.0,0.0,0.0,0.0,0.0,0.0,0.0,0.0,-0.9364,-0.9868,-0.9642,-0.9617,-0.9893,-0.9548,-0.9517,-0.9884,-0.9577,-0.9463,-0.9589,0.0,0.0,0.0,0.0,0.0,0.0,0.0,0.0,0.0,0.0,-0.7968,-0.8067,-0.7203,-0.6772,-0.6624,-0.6386,-0.5843,-0.5316,-0.6188,-0.6338,-0.6073,-0.5868,-0.4595,-0.3165,-0.3538,-0.3497,-0.3334,-0.3468,-0.3284,-0.3063,-0.3099,-0.3102,-0.3123,-0.3265,-0.3502,0.0,0.0,-0.4235,-0.4447,-0.4407,-0.4451,-0.4368,-0.397,-0.4751,-0.5507,-0.5684,-0.4741,-0.4126,-0.45,-0.4378,-0.4288,-0.439,-0.4464,-0.4668,-0.5098,-0.5329,-0.5749,-0.6448,-0.6311,-0.6183,-0.6183,-0.6006,-0.6098,-0.6488,-0.6691,-0.6907,-0.7089,-0.6907,-0.7007,-0.7414,-0.7613,-0.8056,-0.8724,-0.8958,-0.9239,-0.9478,-0.8918,-0.8837,-0.9136,-0.9319,-1.0119,-1.124,-1.1574,-1.2187,-1.2881,-1.2471,-1.2569,-1.2881,-0.9536,0.0,0.0,0.0,0.0,0.0,0.0,0.0,0.0,0.0,0.0,0.0,0.0,0.0,0.0,0.0,0.0,-0.9679,-0.988,-0.929,-0.9127,-0.9579,-0.9527,-0.9773,-1.0372,-1.0389,-1.0563,-1.0909,0.0,0.0,0.0,0.0,0.0,0.0,0.0,0.0,0.0,0.0,0.0,-0.8439,-0.6772,-0.6123,-0.6105,-0.586,-0.5374,-0.4922,-0.5592,-0.5667,-0.5482,-0.5705,-0.449,-0.2931,-0.3336,-0.3264,-0.3064,-0.3342,-0.2989,-0.2527,-0.2583,-0.2611,-0.2649,-0.281,-0.2917,-0.3013,0.0,0.0,0.0,-0.3707,-0.3887,-0.409,-0.4463,-0.5162,-0.5682,-0.5732,-0.4503,-0.3723,-0.421,-0.4064,-0.4014,-0.423,-0.4029,-0.4037,-0.4485,-0.4875,-0.5442,-0.6304,-0.6442,-0.6503,-0.651,-0.6183,-0.6129,-0.6366,-0.654,-0.6755,-0.7106,-0.7095,-0.721,-0.7424,-0.7531,-0.7903,-0.8447,-0.8521,-0.8797,-0.9159,-0.8626,-0.8431,-0.8561,-0.8585,-0.9419,-1.0597,-1.0809,-1.1618,-1.2618,-1.185,-1.2008,-1.251,-0.8203,-0.8867,0.0,0.0,0.0,0.0,0.0,0.0,0.0,0.0,0.0,0.0,0.0,0.0,0.0,0.0,0.0,-0.8889,-0.9843,-0.8951,0.0,-0.8487,-0.8909,-0.8948,-0.8517,-0.9013,-0.96,-1.0219,0.0,0.0,0.0,0.0,0.0,0.0,-0.7009,0.0,0.0,0.0,-0.6603,-0.6657,-0.6006,-0.6234,-0.6846,-0.5718,-0.5581,-0.5715,-0.3503,-0.3169,-0.3941,-0.5015,-0.4833,-0.4212,-0.4386,-0.3617,-0.2722,-0.3054,-0.2709,-0.2244,-0.2247,-0.2259,-0.2215,-0.1997,-0.2206,-0.256,-0.2869,0.0,-0.3171,-0.3905,0.0,-0.4071,-0.4577,0.0,0.0,-0.5152,-0.4584,-0.413,-0.4191,-0.3883,-0.3768,-0.4092,-0.3883,-0.3942,-0.4541,-0.4905,-0.5324,-0.5842,-0.6269,-0.6493,-0.6502,-0.6457,-0.6275,-0.5975,-0.6661,-0.7068,-0.7112,-0.7107,-0.7274,-0.7567,-0.7602,-0.7581,-0.757,-0.785,-0.8036,-0.8036,-0.744,-0.7489,-0.8017,-0.8263,-0.8944,-0.9831,-0.9873,-1.0694,-1.1823,-1.1166,-1.0973,-1.1124,-0.9364,-1.133,0.0,0.0,0.0,0.0,0.0,0.0,0.0,0.0,0.0,0.0,0.0,0.0,0.0,0.0,0.0,-0.9416,-0.9868,-0.9177,0.0,-0.9215,-0.9328,-0.9429,-0.9465,-1.0066,-1.0442,-1.0562,-1.072,0.0,0.0,0.0,0.0,0.0,-0.6777,0.0,-0.7377,0.0,-0.7041,-0.7142,-0.7018,-0.7223,-0.7413,-0.5884,-0.4189,-0.2459,-0.133,-0.1979,-0.3471,-0.3965,-0.429,-0.4416,-0.4205,-0.3876,-0.3563,-0.3473,-0.3219,-0.2924,-0.276,-0.2846,-0.2795,-0.2196,-0.2304,-0.2572,-0.2599,-0.2555,-0.2614,-0.3034,0.0,0.0,0.0,0.0,0.0,0.0,-0.3719,-0.3533,-0.3963,-0.3447,-0.3232,-0.3801,-0.4042,-0.4349,-0.4846,-0.4811,-0.4791,-0.4929,-0.6114,-0.6737,-0.6457,-0.6692,-0.6781,-0.6609,-0.6931,-0.7101,-0.7107,-0.7329,-0.7355,-0.7196,-0.7389,-0.7447,-0.7393,-0.7373,-0.7572,-0.787,-0.7273,-0.7147,-0.737,-0.7503,-0.8231,-0.9198,-0.8788,-0.9707,-1.1166,-1.0914,-1.0813,-1.0864,-1.1133,0.0,0.0,0.0,0.0,0.0,0.0,0.0,0.0,0.0,0.0,0.0,-0.9898,-0.961,0.0,0.0,-0.9629,-0.9592,-0.988,-0.9253,-0.9137,-0.9691,-0.9682,-0.9713,-0.9802,-1.0625,-1.1006,-1.0897,-1.0968,0.0,0.0,0.0,0.0,0.0,0.0,-0.6503,-0.7186,0.0,-0.701,-0.7013,-0.7004,-0.6915,-0.6751,-0.6271,-0.3998,-0.0976,-0.0263,-0.1036,-0.2485,-0.3091,-0.3827,-0.4445,-0.431,-0.4144,-0.3941,-0.3639,-0.3584,-0.3523,-0.3128,-0.3327,-0.343,-0.2435,-0.2317,-0.2412,-0.2274,-0.2166,-0.2146,-0.2352,-0.2485,0.0,0.0,0.0,-0.3087,-0.3244,0.0,-0.2896,-0.3495,-0.3116,-0.303,-0.3683,-0.4363,-0.4694,-0.4492,-0.4514,-0.443,-0.4202,-0.5593,-0.6415,-0.6333,-0.669,-0.6921,-0.6931,-0.7059,-0.7059,-0.6931,-0.7344,-0.7272,-0.6811,-0.7198,-0.7297,-0.7075,-0.7011,-0.7238,-0.7621,-0.7196,-0.6979,-0.6985,-0.7108,-0.7709,-0.8616,-0.8385,-0.9131,-1.0261,-1.0261,-1.0261,-1.0261,-1.3107,-1.3185,0.0,0.0,0.0,0.0,0.0,0.0,0.0,-0.9907,-0.9893,-0.9897,-0.9897,-0.9889,-0.9879,-0.9905,-0.8951,-0.8788,-0.983,-0.8914,-0.8597,-0.9191,-0.9664,-0.9366,-0.8286,-0.9697,-1.0581,-1.0897,-1.053,-1.0332,0.0,0.0,0.0,0.0,-0.7506,-0.7063,-0.7325,-0.6356,-0.5684,-0.5237,-0.4865,-0.444,-0.4308,-0.6856,-0.6146,-0.3444,-0.0904,-0.0047,-0.0428,-0.2578,-0.3795,-0.4531,-0.5233,-0.4437,-0.3226,-0.3218,-0.3541,-0.3726,-0.3018,-0.3424,-0.3778,-0.2523,-0.2004,-0.1835,-0.182,-0.182,-0.1931,-0.232,-0.2298,-0.2328,-0.2664,-0.2821,-0.2859,-0.274,-0.2553,0.0,0.0,-0.305,-0.3445,-0.3848,-0.4829,-0.4781,-0.3043,-0.3913,-0.4409,-0.3947,-0.445,-0.5199,-0.6164,-0.6338,-0.6453,-0.6523,-0.6901,-0.6901,-0.6518,-0.6901,-0.691,-0.6513,-0.7111,-0.6992,-0.6267,-0.676,-0.7021,-0.7021,-0.7021,-0.6979,-0.7041,-0.7335,-0.7642,-0.8051,-0.8958,-0.9127,-0.8857,-0.8857,-0.8857,-0.8956,0.0,0.0,0.0,0.0,0.0,0.0,0.0,-1.1446,-1.2092,-1.2074,-1.2089,-1.207,-1.2086,-1.0781,-0.9888,-0.9905,-0.9566,-0.9516,-0.988,-0.9905,-0.9678,-0.9217,-0.9775,-0.9629,-0.8632,-0.9077,-0.9387,-0.9518,-0.9375,-0.9295,0.0,0.0,0.0,0.0,0.0,-0.6763,0.0,0.0,-0.6547,-0.5043,-0.6281,-0.6158,-0.5221,-0.5242,-0.4694,-0.3551,-0.094,0.0,-0.0112,-0.0861,-0.1786,-0.2783,-0.374,-0.4202,-0.418,-0.312,-0.3168,-0.3848,-0.5164,-0.498,-0.4287,-0.3612,-0.3184,-0.2717,-0.1964,-0.1809,-0.1835,-0.1975,-0.1964,-0.1978,-0.2078,-0.2148,-0.203,-0.1576,-0.1781,-0.2026,0.0,-0.2637,-0.3043,-0.3091,-0.3728,-0.4274,-0.4562,-0.4026,-0.3716,-0.3828,-0.4121,-0.4787,-0.5878,-0.5907,-0.6303,-0.7266,-0.7157,-0.7157,-0.7294,-0.7442,-0.7157,-0.6496,-0.7111,-0.6992,-0.6209,-0.676,-0.6979,-0.6979,-0.6979,-0.6979,-0.7041,-0.7341,-0.7649,-0.7963,-0.8497,-0.8748,-0.8857,-0.9309,-0.9159,-0.8857,-1.1058,0.0,0.0,0.0,0.0,-1.1545,-1.14,-1.2438,-1.3205,-1.3189,-1.2509,-1.2195,-1.2581,-1.099,-0.99,-0.9905,-0.9905,-0.9904,-0.9911,-1.0067,-1.0031,-0.9686,-0.9697,-0.9379,-0.8645,-0.8734,-0.8789,-0.8789,-0.8529,-0.8417,-0.8378,0.0,0.0,0.0,0.0,-0.6887,-0.6182,-0.7617,-0.6715,-0.4467,-0.59,-0.5963,-0.5089,-0.4224,-0.3329,-0.2298,-0.0609,0.0,0.0,0.0,-0.0487,-0.1222,-0.1911,-0.2912,-0.3627,-0.2588,-0.2461,-0.3053,-0.4872,-0.5391,-0.5163,-0.4094,-0.3756,-0.3429,-0.2478,-0.218,-0.213,-0.2128,-0.195,-0.1871,-0.2072,-0.1817,-0.153,-0.1398,-0.1605,-0.1811,0.0,-0.2283,-0.2553,-0.2471,-0.3029,-0.3694,-0.4362,-0.3758,-0.3366,-0.3501,-0.3789,-0.4408,-0.5457,-0.5608,-0.6092,-0.7029,-0.7098,-0.7148,-0.7264,-0.7572,-0.7384,-0.6655,-0.729,-0.7167,-0.6364,-0.6807,-0.6979,-0.6979,-0.6979,-0.6979,-0.7041,-0.7341,-0.7649,-0.7915,-0.8257,-0.855,-0.8857,-0.9263,-0.9159,-0.8804,-1.308,-1.1469,-1.0124,-1.0081,-1.0661,-1.1349,-1.2038,-1.273,-1.3213,-1.3204,-1.1359,-1.0421,-1.1422,-1.0562,-0.9906,-0.9892,-0.9893,-0.99,-0.9893,-0.9509,-0.9611,-1.0327,-0.9357,-0.8628,-0.8251,-0.854,-0.8695,-0.8695,-0.7993,-0.7656,-0.7627,0.0,0.0,0.0,-0.8058,0.0,-0.6146,-0.7336,-0.6087,-0.3362,-0.3742,-0.3891,-0.39,-0.3897,-0.2438,-0.0356,-0.0096,0.0,0.0,0.0,0.0,0.0,0.0,-0.0744,-0.1611,-0.1611,-0.1436,-0.1423,-0.2251,-0.4555,-0.6196,-0.3995,-0.3735,-0.3864,-0.3271,-0.2959,-0.2747,-0.2721,-0.2263,-0.2044,-0.2554,-0.1892,-0.1472,-0.209,-0.1987,-0.1859,-0.1976,-0.2003,-0.2003,-0.1986,-0.2738,-0.3072,-0.2536,-0.3072,-0.3339,-0.3071,-0.3441,-0.4052,-0.4996,-0.5474,-0.579,-0.5921,-0.6661,-0.688,-0.6518,-0.7386,-0.7507,-0.6893,-0.763,-0.7517,-0.66,-0.6887,-0.6979,-0.6979,-0.6979,-0.7027,-0.7068,-0.7368,-0.7675,-0.7935,-0.8283,-0.8564,-0.8804,-0.8804,-0.8804,-0.8804,-1.1062,-1.2303,-1.3351,-1.2515,-1.2797,-1.2961,-1.2404,-1.2826,-1.3192,-1.3193,-1.2723,-1.1852,-1.0492,-1.0088,-0.9897,-0.9906,-0.9907,-0.9905,-0.9888,-1.0306,-0.9916,-0.8477,-0.8614,-0.8308,-0.7423,-0.7198,-0.71,-0.71,-0.6901,-0.682,-0.6811,0.0,0.0,0.0,0.0,-0.7259,-0.5711,-0.6559,-0.4594,-0.1074,-0.3095,-0.3899,-0.3901,-0.3896,-0.4713,-0.5365,-0.1416,0.0,0.0,0.0,0.0,0.0,0.0,-0.0197,-0.0437,-0.0437,-0.0389,-0.0387,-0.0608,-0.248,-0.4524,-0.5222,-0.4848,-0.4217,-0.3844,-0.371,-0.355,-0.3093,-0.3048,-0.284,-0.215,-0.206,-0.2053,-0.1933,-0.1961,-0.2033,-0.2077,-0.2191,-0.2181,-0.1893,-0.2456,-0.2705,-0.2315,-0.2533,-0.2967,-0.3688,-0.335,-0.3853,-0.5568,-0.509,-0.5257,-0.6312,-0.6548,-0.6609,-0.6518,-0.7669,-0.7637,-0.6469,-0.752,-0.7517,-0.66,-0.6887,-0.6979,-0.6979,-0.6979,-0.7148,-0.7375,-0.7682,-0.7989,-0.829,-0.8584,-0.8744,-0.8804,-0.8804,-0.8804,-0.8804,-1.1575,-1.2849,-1.4258,-1.4576,-1.4075,-1.3395,-1.2831,-1.3285,-1.3556,-1.3246,-1.3203,-1.2737,-1.1469,-1.0988,-1.0509,-0.9955,-0.9907,-0.9904,-0.9895,-0.9988,-0.9334,-0.7759,-0.8059,-0.7819,-0.6857,-0.6507,-0.6334,-0.6334,-0.6267,-0.6165,-0.6022,0.0,0.0,0.0,0.0,-0.6947,-0.5677,-0.4979,-0.287,-0.0127,-0.1605,-0.2196,0.0,-0.3469,-0.484,-0.5752,-0.2773,-0.0968,0.0,0.0,0.0,0.0,0.0,0.0,0.0,0.0,0.0,0.0,0.0,-0.1163,-0.2845,-0.485,-0.4874,-0.4379,-0.4341,-0.4249,-0.412,-0.3929,-0.3531,-0.3175,-0.2973,-0.2589,-0.2242,-0.2018,-0.2059,-0.2114,-0.2115,-0.1906,-0.1651,-0.1431,-0.1936,-0.2297,-0.2287,-0.2496,-0.2834,-0.3401,-0.3323,-0.3869,-0.5273,-0.5032,-0.5189,-0.596,-0.6305,-0.6585,-0.675,-0.7626,-0.7705,-0.7059,-0.7678,-0.7539,-0.6787,-0.6947,-0.6979,-0.6979,-0.6979,-0.7194,-0.7533,-0.7802,-0.8103,-0.8404,-0.8697,-0.8804,-0.8791,-0.8664,-0.8697,-0.8791,-1.3167,-1.3286,-1.3963,-1.572,-1.4698,-1.3521,-1.3233,-1.3747,-1.3976,-1.3452,-1.3285,-1.3191,-1.3186,-1.2358,-1.1289,-1.0003,-0.9906,-0.9901,-0.9912,-0.9306,-0.8561,-0.7734,-0.7685,-0.7324,-0.6504,-0.6171,-0.6013,-0.5991,-0.5883,-0.5672,0.0,0.0,0.0,0.0,0.0,0.0,0.0,-0.3622,-0.1779,-0.0409,-0.0115,0.0,-0.0249,-0.2522,-0.3595,-0.3903,-0.3903,-0.2225,0.0,0.0,0.0,0.0,0.0,0.0,0.0,0.0,0.0,0.0,0.0,-0.0378,-0.1336,-0.37,-0.4412,-0.4583,-0.4823,-0.471,-0.4624,-0.4842,-0.4024,-0.3493,-0.4278,-0.3344,-0.2463,-0.2349,-0.2321,-0.2192,-0.1844,-0.1166,-0.0706,-0.0678,-0.1185,0.0,-0.217,-0.2538,-0.2733,-0.2693,-0.3272,-0.3906,-0.4526,-0.502,-0.5295,-0.5302,-0.6037,-0.6591,-0.6909,-0.7369,-0.7666,-0.7833,-0.7868,-0.7579,-0.6979,-0.6979,-0.6979,-0.6979,-0.6979,-0.7214,-0.7548,-0.7822,-0.813,-0.8457,-0.8664,-0.8751,-0.8717,-0.8424,-0.8477,-0.8664,-1.2969,-1.3737,-1.4262,-1.37,-1.4893,-1.5318,-1.3464,-1.3287,-1.3599,-1.4206,-1.3656,-1.3202,-1.3191,-1.2359,-1.1305,-1.002,-0.9902,-0.9906,-0.9903,-0.9768,-0.9108,-0.7773,-0.7711,-0.7328,-0.6516,-0.5815,-0.5437,-0.5432,-0.5408,-0.5384,0.0,0.0,0.0,0.0,0.0,0.0,-0.6661,-0.5433,-0.4071,-0.2566,-0.0736,0.0,-0.0055,-0.0507,-0.2023,-0.3898,-0.3898,-0.2226,0.0,0.0,0.0,0.0,0.0,0.0,0.0,0.0,0.0,0.0,0.0,-0.0082,-0.0722,-0.3074,-0.441,-0.5167,-0.5188,-0.5352,-0.5377,-0.4986,-0.5063,-0.5028,-0.4514,-0.4179,-0.3826,-0.3198,-0.3338,-0.2702,-0.0437,0.0036,0.0268,0.0541,0.0065,-0.0529,-0.1111,-0.1672,-0.2186,-0.267,-0.3009,-0.357,-0.4394,-0.4624,-0.4897,-0.5277,-0.5765,-0.5976,-0.5937,-0.7064,-0.7336,-0.6862,-0.7551,-0.7579,-0.6979,-0.6979,-0.6979,-0.6979,-0.6979,-0.7335,-0.7849,-0.7862,-0.825,-0.8711,-0.8524,-0.845,-0.8417,-0.8116,-0.8043,-0.8116,-1.2946,-1.3346,0.0,-1.3059,-1.3861,-1.4688,-1.4869,-1.3939,-1.3348,-1.3776,-1.4266,-1.3768,-1.171,-1.1654,-1.1548,-1.0952,-1.0284,-0.9894,-0.9893,-0.9888,-0.9574,-0.8863,-0.8851,-0.8306,-0.7146,-0.644,-0.596,-0.5705,-0.5449,-0.5201,-0.5057,-0.5204,0.0,0.0,0.0,-0.653,-0.6608,-0.6082,-0.5535,-0.4821,-0.2611,-0.1022,0.0,0.0,-0.0784,-0.1879,-0.1879,-0.1073,0.0,0.0,0.0,0.0,0.0,0.0,0.0,0.0,-0.1301,-0.2743,-0.2743,-0.2443,-0.2505,-0.4057,-0.4632,-0.4919,-0.5219,-0.5391,-0.5504,-0.5548,-0.5493,-0.5245,-0.4729,-0.4571,-0.4312,-0.3756,-0.3542,-0.2566,-0.0038,0.1301,0.1928,0.1559,0.0617,-0.0203,-0.0692,-0.166,-0.2334,-0.2527,-0.2668,-0.3254,-0.4437,-0.4574,-0.4954,-0.5759,-0.5964,-0.6215,-0.6586,-0.6899,-0.7141,-0.7268,-0.7376,-0.728,-0.6979,-0.6979,-0.6979,-0.6979,-0.6979,-0.7324,-0.7895,-0.8096,-0.833,-0.8557,-0.8257,-0.8143,-0.811,-0.7802,-0.7689,-0.7709,-1.2914,-1.2882,-1.2913,-1.2882,-1.2884,-1.3731,-1.6147,-1.4626,-1.3212,-1.3194,-1.4002,-1.3361,-1.0239,-1.0793,-1.1402,-1.1402,-1.0479,-0.9906,-0.9905,-0.9901,-0.9898,-0.9898,-0.9906,-0.9277,-0.7974,-0.715,-0.6523,-0.6106,-0.5578,-0.5174,-0.4907,-0.517,-0.5157,-0.4943,-0.5944,-0.6293,-0.615,-0.5961,-0.5738,-0.5363,-0.3651,-0.1773,0.0,0.0,0.0,0.0,0.0,0.0,0.0,0.0,0.0,0.0,0.0,0.0,0.0,0.0,-0.2165,-0.4652,-0.5159,-0.4842,-0.4515,-0.5144,-0.4943,-0.472,-0.5181,-0.5309,-0.5463,-0.5988,-0.5721,-0.539,-0.5299,-0.5176,-0.494,-0.4356,-0.3796,-0.2676,-0.0469,0.1569,0.2747,0.2441,0.1366,0.0329,-0.0507,-0.1521,-0.2148,-0.2211,-0.2415,-0.306,-0.4272,-0.4498,-0.5049,-0.5992,-0.6115,-0.6549,-0.7231,-0.6816,-0.6975,-0.7704,-0.7231,-0.6979,-0.6979,-0.6979,-0.6979,-0.6979,-0.6979,-0.7328,-0.7856,-0.8156,-0.8277,-0.825,-0.7949,-0.7829,-0.7796,-0.7482,-0.7412,-0.7412,-1.2879,-1.2878,-1.2894,-1.2899,-1.2899,-1.3731,-1.6147,-1.4626,-1.3208,-1.3208,-1.1608,-1.0317,-0.9955,-0.9995,-1.0079,-1.0079,-0.9979,-0.9893,-0.9893,-0.9905,-0.9892,-0.9892,-0.9898,-0.9512,-0.8706,-0.7272,-0.639,-0.6097,-0.5569,-0.5273,-0.5237,-0.5295,-0.5295,-0.5269,-0.5751,-0.574,-0.5365,-0.4992,-0.3722,-0.1975,-0.1884,-0.1114,0.0,0.0,0.0,0.0,0.0,0.0,0.0,0.0,0.0,0.0,0.0,0.0,0.0,0.0,-0.1014,-0.2588,-0.4726,-0.5244,-0.5198,-0.5274,-0.5269,-0.5225,-0.5287,-0.5309,-0.5371,-0.5691,-0.6115,-0.6435,-0.6422,-0.6639,-0.6435,-0.5372,-0.4831,-0.3846,-0.1888,-0.0478,0.1123,0.3194,0.3081,0.1908,-0.0388,-0.0382,-0.0624,-0.1522,-0.2426,-0.3072,-0.3407,-0.4163,-0.4856,-0.5372,-0.59,-0.6368,-0.6659,-0.6626,-0.6774,-0.7063,-0.7021,-0.6979,-0.6979,-0.6979,-0.6979,-0.6979,-0.6979,-0.7208,-0.758,-0.7842,-0.7922,-0.7943,-0.7629,-0.7553,-0.752,-0.7174,-0.7061,-0.7061,-1.4764,-1.3903,-1.2879,-1.2879,-1.4093,-1.4917,-1.4583,-1.3748,-1.3206,-1.32,-1.1265,-0.991,-0.9904,-0.9907,-0.9907,-0.9907,-0.9907,-0.9907,-0.9893,-0.9905,-0.9905,-0.9905,-0.9904,-0.955,-0.8816,-0.7711,-0.6892,-0.6334,-0.5798,-0.5544,-0.5538,-0.5538,-0.5444,-0.5316,-0.5899,-0.5815,-0.5239,-0.5405,-0.4192,-0.2071,-0.1086,-0.0402,0.0,0.0,0.0,0.0,0.0,0.0,0.0,0.0,0.0,-0.054,-0.3648,-0.4627,-0.4216,-0.2159,-0.29,-0.4514,-0.513,-0.5295,-0.5352,-0.5492,-0.5526,-0.5599,-0.5787,-0.5671,-0.5671,-0.6146,-0.629,-0.6441,-0.6765,-0.622,-0.5756,-0.5838,-0.5193,-0.4078,-0.2357,-0.0893,0.0697,0.2662,0.3169,0.2699,0.09,0.0275,-0.0372,-0.1305,-0.2276,-0.3015,-0.3455,-0.3969,-0.4728,-0.5821,-0.574,-0.6031,-0.6847,-0.6524,-0.6575,-0.6979,-0.6979,-0.6979,-0.6979,-0.6979,-0.6979,-0.6992,-0.7208,-0.7355,-0.752,-0.7602,-0.7649,-0.7622,-0.7315,-0.7201,-0.7188,-0.7068,-0.6979,-0.6979,-1.6185,-1.5119,-1.397,-1.397,-1.5367,-1.5731,-1.3523,-1.3198,-1.3201,-1.3205,-1.1265,-0.9909,-0.9903,-0.9905,-0.9892,-0.9904,-0.9905,-0.9892,-0.9904,-0.9892,-0.9905,-0.9905,-0.9905,-0.9542,-0.8816,-0.7998,-0.7249,-0.6488,-0.5895,-0.5585,-0.5585,-0.5585,-0.5478,-0.5322,-0.5812,-0.5783,-0.5412,-0.5344,-0.4553,-0.3156,-0.1177,-0.023,0.0,0.0,0.0,-0.0135,-0.1186,-0.1557,-0.1421,-0.0556,-0.0663,-0.1905,-0.631,-0.7698,-0.7231,-0.4806,-0.4978,-0.5864,-0.5605,-0.5362,-0.5244,-0.5618,-0.5711,-0.5792,-0.6129,-0.5884,-0.5691,-0.6011,-0.5991,-0.6044,-0.6422,-0.568,-0.5189,-0.575,-0.5161,-0.4202,-0.308,-0.1219,0.0679,0.252,0.3166,0.3137,0.2256,0.1358,0.0204,-0.1183,-0.2165,-0.2916,-0.3443,-0.3846,-0.4557,-0.5642,-0.5437,-0.5782,-0.6768,-0.6392,-0.6477,-0.6979,-0.6934,-0.6894,-0.6894,-0.6894,-0.6847,-0.6787,-0.7174,-0.7332,-0.7258,-0.7301,-0.7335,-0.7315,-0.7101,-0.6979,-0.6979,-0.6979,-0.6979,-0.6979,-1.6502,-1.6473,-1.6466,-1.6466,-1.6475,-1.575,-1.3528,-1.3216,-1.3187,-1.3207,-1.1255,-0.9908,-0.9901,-0.9905,-0.9904,-0.9897,-0.9903,-0.9904,-0.9909,-0.9903,-0.9905,-0.9905,-0.9905,-0.9542,-0.8816,-0.7998,-0.7249,-0.6488,-0.571,-0.5316,-0.5316,-0.5316,-0.5316,-0.5309,-0.5316,-0.5522,-0.5785,-0.435,-0.425,-0.4847,-0.2312,-0.0767,0.0,0.0,0.0,-0.0465,-0.3984,-0.5232,-0.4797,-0.188,-0.2206,-0.4304,-0.6884,-0.7698,-0.7681,-0.765,-0.663,-0.5583,-0.5984,-0.5475,-0.4953,-0.5564,-0.5711,-0.5792,-0.6129,-0.5745,-0.5252,-0.4974,-0.5109,-0.5308,-0.5303,-0.5303,-0.5232,-0.4974,-0.4613,-0.438,-0.4369,-0.1836,0.0892,0.3315,0.3296,0.3229,0.3527,0.3029,0.1555,-0.109,-0.2176,-0.282,-0.3085,-0.3782,-0.4248,-0.4426,-0.5,-0.561,-0.6227,-0.6184,-0.6477,-0.6979,-0.6727,-0.6593,-0.6593,-0.6593,-0.6478,-0.6236,-0.6774,-0.686,-0.662,-0.6907,-0.7027,-0.7027,-0.7021,-0.6979,-0.6979,-0.6979,-0.6979,-0.6979,-1.6519,-1.6501,-1.6507,-1.6507,-1.649,-1.5761,-1.3557,-1.3204,-1.32,-1.3194,-1.2576,-1.2169,-1.2156,-1.0795,-0.9891,-0.9915,-0.8975,-0.8823,-0.9839,-0.9429,-0.9367,-0.9867,-0.9698,-0.9316,-0.8816,-0.8273,-0.7521,-0.6488,-0.6163,-0.583,-0.5578,-0.582,-0.5699,-0.5322,-0.5484,-0.5686,-0.5861,-0.506,-0.5038,-0.536,-0.3483,-0.1983,-0.0816,-0.0227,0.0,-0.0471,-0.4024,-0.5298,-0.5244,-0.4847,-0.4598,-0.4817,-0.7022,-0.7703,-0.7644,-0.7369,-0.6905,-0.643,-0.6277,-0.6271,-0.6297,-0.6324,-0.66,-0.6822,-0.6753,-0.63,-0.5704,-0.5035,-0.4773,-0.4826,-0.5216,-0.4661,-0.4513,-0.5603,-0.4708,-0.4132,-0.4919,-0.2835,-0.0044,0.3194,0.3527,0.3463,0.3605,0.3432,0.229,-0.0241,-0.182,-0.275,-0.2835,-0.3289,-0.3669,-0.3851,-0.4049,-0.4797,-0.6179,-0.5787,-0.6081,-0.6979,-0.6727,-0.6587,-0.6587,-0.6587,-0.6647,-0.6747,-0.6734,-0.6583,-0.6312,-0.6398,-0.6215,-0.5862,-0.6301,-0.6477,-0.652,-0.6852,-0.6774,-0.6459,-1.772,-1.706,-1.6422,-1.6256,-1.5689,-1.4809,-1.3411,-1.321,-1.2905,-1.2073,-1.2691,-1.3205,-1.3204,-1.1236,-0.9684,-0.9124,-0.8725,-0.8925,-0.9852,-0.9298,-0.9224,-0.9867,-0.9449,-0.9128,-0.9035,-0.8368,-0.7589,-0.6704,-0.6172,-0.5809,-0.5551,-0.5773,-0.5665,-0.5322,-0.5471,-0.5607,-0.5629,-0.5132,-0.5267,-0.5753,-0.4691,-0.3645,-0.2592,-0.1429,-0.0979,-0.1305,-0.3868,-0.5133,-0.5654,-0.6037,-0.5903,-0.5814,-0.7012,-0.7503,-0.7629,-0.7594,-0.7442,-0.7265,-0.7136,-0.7107,-0.713,-0.6955,-0.7153,-0.7226,-0.6523,-0.6081,-0.5572,-0.4632,-0.4234,-0.4224,-0.4574,-0.41,-0.3972,-0.5058,-0.432,-0.3847,-0.4556,-0.2893,-0.0623,0.1925,0.306,0.3615,0.3615,0.2773,0.1622,0.0121,-0.1046,-0.1986,-0.2669,-0.2791,-0.3077,-0.3598,-0.3619,-0.4232,-0.5524,-0.5264,-0.5518,-0.6263,-0.6097,-0.605,-0.6106,-0.6364,-0.6466,-0.6501,-0.6446,-0.6262,-0.6002,-0.5925,-0.5653,-0.5346,-0.5701,-0.6002,-0.6221,-0.6562,-0.6598,-0.6502,-1.971,-1.811,-1.6542,-1.5905,-1.437,-1.3221,-1.3204,-1.3208,-1.2465,-1.0401,-1.193,-1.3217,-1.3201,-1.1354,-0.9504,-0.7978,-0.9103,-0.989,-0.9897,-0.9473,-0.9401,-0.9841,-0.9197,-0.8953,-0.9316,-0.8277,-0.7482,-0.6966,-0.5867,-0.5309,-0.5309,-0.5309,-0.5309,-0.5309,-0.5309,-0.5309,-0.5275,-0.4724,-0.5117,-0.6074,-0.5802,-0.5446,-0.4889,-0.3409,-0.2768,-0.2781,-0.376,-0.4999,-0.6108,-0.5805,-0.6312,-0.7084,-0.7035,-0.7273,-0.7705,-0.8211,-0.8166,-0.801,-0.8193,-0.7817,-0.7378,-0.734,-0.7362,-0.7018,-0.5679,-0.5346,-0.5005,-0.3884,-0.3622,-0.3581,-0.3581,-0.3581,-0.3622,-0.3653,-0.3609,-0.3609,-0.3653,-0.2348,-0.1018,-0.0089,0.1835,0.3152,0.3325,0.1337,0.0,0.0,0.0,-0.0781,-0.2523,-0.2326,-0.2592,-0.3544,-0.3548,-0.3803,-0.4353,-0.4684,-0.4904,-0.5039,-0.5097,-0.5144,-0.5261,-0.5854,-0.5937,-0.5705,-0.5965,-0.5901,-0.5589,-0.5349,-0.5216,-0.5173,-0.5216,-0.5567,-0.6093,-0.6136,-0.6441,-0.6751,-1.9693,-1.9299,-1.8263,-1.6153,-1.4359,-1.3207,-1.3213,-1.319,-1.3002,-1.2499,-1.2881,-1.3201,-1.3205,-1.2729,-1.1609,-0.9557,-0.9696,-0.9888,-0.9904,-0.9451,-0.9295,-0.9502,-0.9062,-0.8717,-0.8561,-0.8308,-0.7647,-0.6622,-0.6029,-0.5617,-0.5309,-0.5309,-0.5309,-0.5309,-0.5309,-0.5309,-0.5302,-0.5483,-0.571,-0.5933,-0.5771,-0.5267,-0.4677,-0.5057,-0.4368,-0.3466,-0.5467,-0.6415,-0.672,-0.673,-0.6897,-0.7214,-0.7858,-0.8332,-0.8546,-0.8029,-0.7658,-0.7304,-0.6916,-0.7088,-0.7308,-0.6887,-0.6949,-0.6886,-0.6161,-0.5615,-0.5087,-0.4351,-0.388,-0.3581,-0.3581,-0.3581,-0.3716,-0.4009,-0.3696,-0.3658,-0.4336,-0.3626,-0.2289,-0.0223,-0.1119,-0.115,0.0686,0.0338,0.0,0.0,0.0,-0.0477,-0.1568,-0.2221,-0.2728,-0.3119,-0.3192,-0.3504,-0.4095,-0.4169,-0.4338,-0.4583,-0.493,-0.4963,-0.4781,-0.5082,-0.5287,-0.54,-0.5266,-0.5037,-0.4714,-0.463,-0.4351,-0.4056,-0.4439,-0.4691,-0.487,-0.5351,-0.5414,-0.5221,-1.815,-1.7932,-1.7468,-1.6037,-1.5031,-1.4124,-1.3317,-1.3198,-1.32,-1.3207,-1.319,-1.3201,-1.3194,-1.2295,-1.1197,-1.0008,-0.9905,-0.9903,-0.9905,-0.967,-0.9538,-0.9607,-0.9,-0.8585,-0.8393,-0.8322,-0.7801,-0.6781,-0.6366,-0.6068,-0.5859,-0.5712,-0.5619,-0.5554,-0.5369,-0.5313,-0.5309,-0.5522,-0.5617,-0.5643,-0.5761,-0.5396,-0.4905,-0.5691,-0.5378,-0.4751,-0.6596,-0.7162,-0.7035,-0.729,-0.7373,-0.7508,-0.817,-0.8323,-0.8192,-0.7774,-0.7772,-0.778,-0.7287,-0.7293,-0.734,-0.7044,-0.6797,-0.6579,-0.6253,-0.5831,-0.5266,-0.4544,-0.418,-0.388,-0.3667,-0.3564,-0.3577,-0.3776,-0.3493,-0.3435,-0.3971,-0.3723,-0.3013,-0.1775,-0.2293,-0.2423,-0.1519,-0.0576,0.0,0.0,-0.076,-0.1241,-0.1281,-0.2209,-0.2797,-0.305,-0.3085,-0.3275,-0.3578,-0.3542,-0.3785,-0.4317,-0.4369,-0.4428,-0.4532,-0.4794,-0.4963,-0.5114,-0.4796,-0.4555,-0.4391,-0.4136,-0.388,-0.3622,-0.3924,-0.4176,-0.443,-0.4783,-0.4955,-0.506,-1.625,-1.5787,-1.5795,-1.5779,-1.5794,-1.522,-1.348,-1.3183,-1.3198,-1.3198,-1.3195,-1.3088,-1.2741,-1.1314,-1.0252,-0.9935,-0.9896,-0.9904,-0.9905,-0.9901,-0.99,-0.9905,-0.9147,-0.8677,-0.8619,-0.8402,-0.7898,-0.7109,-0.6751,-0.6548,-0.6488,-0.6265,-0.6082,-0.5975,-0.5552,-0.538,-0.5372,-0.5309,-0.5309,-0.5334,-0.5602,-0.5461,-0.5168,-0.5677,-0.5845,-0.5952,-0.7174,-0.743,-0.7246,-0.7598,-0.7666,-0.7675,-0.817,-0.7879,-0.7387,-0.7471,-0.7956,-0.8357,-0.7951,-0.7508,-0.716,-0.716,-0.6704,-0.6277,-0.6269,-0.602,-0.5539,-0.4703,-0.4478,-0.4212,-0.3679,-0.3482,-0.3337,-0.3249,-0.3135,-0.3105,-0.3225,-0.3265,-0.334,-0.3561,-0.2694,-0.2324,-0.3016,-0.1532,-0.0426,-0.0296,-0.165,-0.2239,-0.1635,-0.2324,-0.2861,-0.3075,-0.3076,-0.3052,-0.3052,-0.2957,-0.3262,-0.399,-0.3701,-0.3779,-0.424,-0.4567,-0.4701,-0.4665,-0.438,-0.4235,-0.426,-0.3767,-0.3558,-0.3581,-0.3581,-0.388,-0.4264,-0.4264,-0.4691,-0.5181,-1.5866,-1.5802,-1.5787,-1.5814,-1.5804,-1.522,-1.348,-1.3183,-1.3198,-1.3198,-1.3195,-1.2479,-1.0607,-1.1777,-1.1947,-1.0064,-0.9902,-0.99,-0.9892,-0.9892,-0.989,-0.9911,-0.9766,-0.9488,-0.9104,-0.8572,-0.7898,-0.7109,-0.702,-0.6841,-0.6488,-0.6449,-0.6419,-0.6397,-0.5991,-0.5813,-0.5797,-0.5435,-0.5309,-0.5269,-0.4864,-0.4709,-0.4729,-0.5109,-0.5482,-0.5922,-0.6841,-0.7376,-0.7598,-0.7666,-0.7471,-0.729,-0.7752,-0.7543,-0.7131,-0.7099,-0.7191,-0.709,-0.6307,-0.602,-0.595,-0.595,-0.626,-0.6546,-0.656,-0.6321,-0.5956,-0.5298,-0.4739,-0.4172,-0.3489,-0.3323,-0.3229,-0.3018,-0.2994,-0.3035,-0.3034,-0.3083,-0.3263,-0.3561,-0.3432,-0.3278,-0.3132,-0.2902,-0.2445,-0.1593,-0.1527,-0.1957,-0.2921,-0.296,-0.3011,-0.3113,-0.2879,-0.2751,-0.2751,-0.2856,-0.2978,-0.309,-0.3275,-0.3371,-0.3481,-0.3684,-0.3803,-0.3796,-0.3553,-0.3581,-0.3697,-0.3436,-0.3463,-0.3581,-0.3581,-0.3667,-0.3707,-0.3707,-0.3848,-0.4069,-1.5802,-1.5801,-1.5786,-1.5816,-1.5003,-1.4137,-1.3317,-1.3183,-1.3198,-1.3198,-1.3183,-1.2818,-1.1804,-1.2589,-1.2303,-1.01,-1.0973,-1.1694,-1.1683,-1.0554,-0.9907,-0.9889,-0.9915,-0.9719,-0.9321,-0.8628,-0.8109,-0.7744,-0.752,-0.7314,-0.7136,-0.7136,-0.7038,-0.6811,-0.6562,-0.6236,-0.589,-0.5703,-0.5491,-0.5289,-0.5036,-0.5067,-0.5319,-0.5483,-0.5928,-0.6556,-0.6953,-0.7373,-0.7695,-0.7695,-0.7569,-0.747,-0.7677,-0.7395,-0.6983,-0.6951,-0.6627,-0.6229,-0.5814,-0.5598,-0.5518,-0.5671,-0.5919,-0.6159,-0.6357,-0.6305,-0.6083,-0.5603,-0.5042,-0.4502,-0.3968,-0.3495,-0.3169,-0.3122,-0.2954,-0.2835,-0.2857,-0.2692,-0.2805,-0.3507,-0.3514,-0.3405,-0.3273,-0.3283,-0.3096,-0.2637,-0.2455,-0.2665,-0.3279,-0.3142,-0.3056,-0.3082,-0.2988,-0.2917,-0.2917,-0.2988,-0.3025,-0.3108,-0.3286,-0.3395,-0.3476,-0.3548,-0.3534,-0.3456,-0.347,-0.3466,-0.3456,-0.347,-0.3517,-0.3581,-0.3581,-0.3581,-0.3581,-0.3581,-0.367,-0.3792,-1.5799,-1.5799,-1.5801,-1.5814,-1.4353,-1.32,-1.3198,-1.3187,-1.3198,-1.3198,-1.3221,-1.319,-1.3207,-1.3207,-1.253,-1.0828,-1.2216,-1.3212,-1.3191,-1.1123,-0.9904,-0.9905,-0.9905,-0.9788,-0.9523,-0.8784,-0.8365,-0.829,-0.7899,-0.7695,-0.7695,-0.7695,-0.753,-0.7237,-0.7032,-0.6674,-0.616,-0.5975,-0.5734,-0.5428,-0.534,-0.5491,-0.5765,-0.5765,-0.6244,-0.6961,-0.6961,-0.7285,-0.7695,-0.7695,-0.7704,-0.7703,-0.7607,-0.7275,-0.6901,-0.6722,-0.6157,-0.5611,-0.5611,-0.5451,-0.5351,-0.5638,-0.5711,-0.5792,-0.6129,-0.6243,-0.6168,-0.579,-0.5311,-0.4883,-0.444,-0.3693,-0.3162,-0.3252,-0.2757,-0.2416,-0.2527,-0.2248,-0.2439,-0.3456,-0.348,-0.3388,-0.3396,-0.3392,-0.3354,-0.332,-0.331,-0.3327,-0.3363,-0.3238,-0.3152,-0.3225,-0.3158,-0.3082,-0.3082,-0.3115,-0.3192,-0.3306,-0.3388,-0.3509,-0.3581,-0.3581,-0.3514,-0.3366,-0.349,-0.348,-0.3366,-0.3493,-0.3548,-0.3581,-0.3581,-0.3581,-0.3585,-0.3615,-0.3676,-0.3748,-1.5799,-1.5799,-1.5787,-1.5804,-1.4355,-1.3201,-1.3213,-1.3185,-1.3198,-1.3198,-1.322,-1.3207,-1.3198,-1.3185,-1.3148,-1.2967,-1.3121,-1.319,-1.3195,-1.1145,-0.9892,-0.9904,-0.9905,-0.9878,-0.987,-0.9147,-0.8606,-0.829,-0.7899,-0.7695,-0.7695,-0.7695,-0.7695,-0.7637,-0.7246,-0.705,-0.6961,-0.6213,-0.5882,-0.5828,-0.546,-0.5309,-0.534,-0.534,-0.5859,-0.6548,-0.6548,-0.7038,-0.7695,-0.7695,-0.7746,-0.7707,-0.7275,-0.7103,-0.695,-0.6191,-0.5676,-0.5342,-0.5342,-0.5329,-0.5351,-0.5638,-0.5711,-0.5792,-0.6129,-0.6404,-0.6409,-0.5831,-0.5475,-0.5052,-0.4339,-0.3716,-0.3249,-0.3118,-0.2139,-0.1578,-0.208,-0.1953,-0.228,-0.347,-0.3571,-0.3507,-0.3323,-0.348,-0.3543,-0.3389,-0.3334,-0.3395,-0.3585,-0.3412,-0.3356,-0.3541,-0.3269,-0.3082,-0.3082,-0.3219,-0.3296,-0.3309,-0.3493,-0.3568,-0.3581,-0.3581,-0.3571,-0.3554,-0.338,-0.34,-0.3554,-0.3376,-0.3449,-0.3581,-0.3581,-0.3581,-0.3595,-0.3727,-0.37,-0.3612,-1.5799,-1.5799,-1.5816,-1.5797,-1.4349,-1.3194,-1.3216,-1.3213,-1.3198,-1.3198,-1.3198,-1.3198,-1.3198,-1.3187,-1.3196,-1.3185,-1.3187,-1.3181,-1.3206,-1.1118,-0.9905,-0.9895,-0.945,-0.9417,-0.9882,-0.9174,-0.8734,-0.8606,-0.7984,-0.7715,-0.7695,-0.7442,-0.7471,-0.7695,-0.753,-0.7344,-0.7059,-0.6518,-0.6129,-0.5859,-0.546,-0.5309,-0.5309,-0.5309,-0.5797,-0.6488,-0.6488,-0.7008,-0.7695,-0.7695,-0.7713,-0.7746,-0.7862,-0.7528,-0.6983,-0.6345,-0.6003,-0.582,-0.5598,-0.5544,-0.5638,-0.6077,-0.6229,-0.6344,-0.6629,-0.6639,-0.6547,-0.6309,-0.5867,-0.5412,-0.496,-0.4328,-0.3772,-0.344,-0.2927,-0.2412,-0.1984,-0.2472,-0.3074,-0.3561,-0.3581,-0.3558,-0.3497,-0.3548,-0.3598,-0.354,-0.3493,-0.3517,-0.3578,-0.3524,-0.352,-0.3578,-0.3466,-0.3405,-0.3405,-0.3463,-0.3493,-0.3493,-0.3551,-0.3581,-0.3581,-0.3581,-0.3527,-0.3396,-0.3476,-0.3473,-0.3396,-0.3476,-0.3527,-0.3581,-0.3581,-0.3581,-0.3588,-0.3639,-0.3626,-0.3588,-1.5799,-1.5799,-1.5786,-1.5816,-1.4817,-1.383,-1.3266,-1.3183,-1.32,-1.32,-1.3195,-1.3198,-1.3198,-1.3198,-1.3198,-1.3198,-1.3213,-1.3207,-1.3206,-1.1119,-0.9695,-0.9225,-0.8723,-0.8682,-0.9192,-0.9166,-0.9065,-0.8944,-0.8088,-0.7695,-0.7695,-0.7275,-0.7305,-0.7695,-0.7695,-0.7539,-0.7246,-0.673,-0.6336,-0.6068,-0.5641,-0.5491,-0.5491,-0.5617,-0.6098,-0.67,-0.67,-0.7127,-0.7695,-0.7695,-0.788,-0.8123,-0.832,-0.7866,-0.7173,-0.683,-0.6485,-0.6149,-0.5912,-0.5919,-0.6037,-0.6347,-0.6439,-0.6535,-0.6825,-0.674,-0.6587,-0.6587,-0.6219,-0.576,-0.5363,-0.4716,-0.4126,-0.3693,-0.3496,-0.3137,-0.248,-0.3098,-0.3602,-0.3612,-0.3581,-0.3581,-0.3581,-0.3581,-0.3581,-0.3581,-0.3581,-0.3581,-0.3581,-0.3581,-0.3581,-0.3581,-0.3581,-0.3581,-0.3581,-0.3581,-0.3581,-0.3581,-0.3581,-0.3581,-0.3581,-0.3581,-0.352,-0.3383,-0.3534,-0.352,-0.3386,-0.3534,-0.3581,-0.3581,-0.3581,-0.3581,-0.3585,-0.3629,-0.3619,-0.3588,-1.5799,-1.5799,-1.5786,-1.5801,-1.5785,-1.5233,-1.3467,-1.324,-1.3238,-1.3193,-1.3196,-1.3198,-1.3198,-1.3198,-1.3198,-1.3198,-1.3198,-1.3185,-1.3192,-1.1122,-0.9242,-0.7776,-0.7702,-0.7702,-0.7729,-0.9153,-0.9671,-0.92,-0.8205,-0.7695,-0.7695,-0.7275,-0.7305,-0.7695,-0.7695,-0.7695,-0.7637,-0.6829,-0.6488,-0.6457,-0.6068,-0.5913,-0.5944,-0.6336,-0.676,-0.7109,-0.7109,-0.7373,-0.7695,-0.7695,-0.826,-0.8926,-0.8506,-0.8033,-0.761,-0.7602,-0.6956,-0.6203,-0.6196,-0.6411,-0.6526,-0.627,-0.6196,-0.6277,-0.6526,-0.6593,-0.6593,-0.6593,-0.6375,-0.6007,-0.5389,-0.4826,-0.422,-0.3667,-0.3581,-0.3581,-0.3581,-0.3581,-0.3581,-0.3581,-0.3581,-0.3581,-0.3581,-0.3581,-0.3581,-0.3581,-0.3581,-0.3581,-0.3581,-0.3581,-0.3581,-0.3581,-0.3581,-0.3581,-0.3581,-0.3581,-0.3581,-0.3581,-0.3581,-0.3581,-0.3581,-0.3581,-0.3581,-0.3581,-0.3581,-0.3581,-0.3581,-0.3581,-0.3581,-0.3581,-0.3581,-0.3581,-0.3598,-0.3737,-0.37,-0.3598,-1.5799,-1.5799,-1.5785,-1.5801,-1.5802,-1.5621,-1.5084,-1.5008,-1.4584,-1.3376,-1.319,-1.3192,-1.322,-1.3198,-1.3198,-1.3198,-1.3198,-1.2556,-1.0994,-1.0272,-0.9702,-0.9269,-0.8241,-0.8182,-0.9224,-0.9174,-0.9158,-0.92,-0.8566,-0.8062,-0.7695,-0.7275,-0.7178,-0.7275,-0.7275,-0.7127,-0.6829,-0.6313,-0.6244,-0.6457,-0.6068,-0.6068,-0.6336,-0.6457,-0.676,-0.7109,-0.7109,-0.7373,-0.7695,-0.7695,-0.787,-0.8114,-0.832,-0.8369,-0.8304,-0.7973,-0.7338,-0.672,-0.652,-0.6673,-0.6902,-0.7018,-0.6915,-0.6909,-0.7414,-0.7182,-0.6894,-0.6894,-0.6835,-0.6465,-0.5475,-0.5173,-0.47,-0.3751,-0.3581,-0.3581,-0.3581,-0.3581,-0.3581,-0.3581,-0.3581,-0.3581,-0.3581,-0.3581,-0.3581,-0.3581,-0.3581,-0.3581,-0.3581,-0.3581,-0.3581,-0.3581,-0.3581,-0.3581,-0.3581,-0.3581,-0.3581,-0.3581,-0.3581,-0.3581,-0.3581,-0.3581,-0.3581,-0.3581,-0.3581,-0.3636,-0.3721,-0.3622,-0.3639,-0.3721,-0.3619,-0.3581,-0.3585,-0.3629,-0.3615,-0.3585,-1.5785,-1.5786,-1.5787,-1.5785,-1.5802,-1.5802,-1.5802,-1.5813,-1.5398,-1.4379,-1.3644,-1.3211,-1.3183,-1.3216,-1.3216,-1.3192,-1.2418,-1.132,-1.0,-0.9909,-0.9912,-0.9882,-0.9062,-0.8993,-0.9885,-0.9467,-0.917,-0.9033,-0.8666,-0.8228,-0.7695,-0.7275,-0.7109,-0.7109,-0.7109,-0.6871,-0.6488,-0.606,-0.6121,-0.6488,-0.6244,-0.6366,-0.676,-0.6918,-0.7127,-0.7344,-0.7344,-0.75,-0.7695,-0.7695,-0.7919,-0.8277,-0.8698,-0.8901,-0.8876,-0.8182,-0.7665,-0.728,-0.6848,-0.6887,-0.7058,-0.7192,-0.7127,-0.7105,-0.7447,-0.7273,-0.6979,-0.6979,-0.6979,-0.6634,-0.5518,-0.5303,-0.4918,-0.3799,-0.3581,-0.3581,-0.3581,-0.3581,-0.3581,-0.3581,-0.3581,-0.3581,-0.3581,-0.3581,-0.3581,-0.3581,-0.3176,-0.3095,-0.3588,-0.3597,-0.3628,-0.3718,-0.3624,-0.3651,-0.3715,-0.3639,-0.3609,-0.3663,-0.3663,-0.3663,-0.3663,-0.3663,-0.3632,-0.3581,-0.3581,-0.3659,-0.3782,-0.3639,-0.3663,-0.3778,-0.3636,-0.3581,-0.3581,-0.3581,-0.3581,-0.3581,-1.5609,-1.5669,-1.5802,-1.5815,-1.5799,-1.5799,-1.5799,-1.5802,-1.58,-1.5785,-1.4438,-1.3376,-1.3238,-1.3196,-1.3209,-1.3214,-1.1171,-0.9888,-0.989,-0.9892,-0.9904,-0.9884,-0.989,-0.9904,-0.9897,-0.9897,-0.953,-0.8778,-0.8585,-0.8222,-0.7695,-0.7275,-0.7089,-0.7059,-0.6999,-0.676,-0.6366,-0.6006,-0.6098,-0.6488,-0.6488,-0.6751,-0.7178,-0.7569,-0.7695,-0.7695,-0.7695,-0.7695,-0.7695,-0.7695,-0.824,-0.8954,-0.9289,-0.9358,-0.9116,-0.8185,-0.787,-0.7704,-0.7147,-0.6979,-0.6979,-0.6979,-0.6979,-0.6979,-0.6979,-0.6979,-0.6979,-0.6979,-0.6979,-0.6592,-0.5518,-0.526,-0.4874,-0.3799,-0.3581,-0.3581,-0.3581,-0.3581,-0.3581,-0.3581,-0.3581,-0.3581,-0.3581,-0.3592,-0.3554,-0.3462,-0.2425,-0.2256,-0.323,-0.3388,-0.35,-0.3687,-0.3684,-0.3701,-0.3883,-0.3569,-0.354,-0.3792,-0.3778,-0.3778,-0.3792,-0.3792,-0.3727,-0.3619,-0.3619,-0.37,-0.3819,-0.3663,-0.3683,-0.3795,-0.3639,-0.3581,-0.3581,-0.3595,-0.3643,-0.3646,-1.4026,-1.4841,-1.5802,-1.5815,-1.5799,-1.5799,-1.5799,-1.5786,-1.5787,-1.58,-1.549,-1.4736,-1.3343,-1.3196,-1.3207,-1.32,-1.1176,-0.9892,-0.9912,-0.9912,-0.9892,-0.9891,-0.9892,-0.9892,-0.9891,-0.9891,-0.9463,-0.8574,-0.8524,-0.822,-0.7695,-0.7275,-0.6931,-0.6601,-0.6305,-0.5944,-0.5554,-0.5467,-0.5859,-0.6488,-0.6488,-0.6918,-0.7569,-0.7666,-0.7695,-0.7695,-0.7695,-0.7695,-0.7695,-0.7695,-0.7862,-0.8102,-0.8405,-0.8193,-0.7858,-0.787,-0.7572,-0.7147,-0.7021,-0.6979,-0.6979,-0.6979,-0.6979,-0.6979,-0.6979,-0.6979,-0.6979,-0.6979,-0.6647,-0.6173,-0.5437,-0.4913,-0.4395,-0.3711,-0.3581,-0.3581,-0.3581,-0.3581,-0.3581,-0.3581,-0.3581,-0.3581,-0.3581,-0.3595,-0.319,-0.2248,-0.1944,-0.1486,-0.0836,-0.1682,-0.2186,-0.2236,-0.3343,-0.3813,-0.3689,-0.2674,-0.2668,-0.3657,-0.3638,-0.3683,-0.3792,-0.3792,-0.3839,-0.3924,-0.3924,-0.4009,-0.4076,-0.3856,-0.3832,-0.3944,-0.3683,-0.3581,-0.3595,-0.3704,-0.3797,-0.3808,-1.3378,-1.4609,-1.5812,-1.5802,-1.5786,-1.5815,-1.5802,-1.5787,-1.5802,-1.581,-1.5794,-1.5143,-1.3402,-1.3196,-1.3204,-1.3221,-1.1167,-0.9892,-0.9885,-0.9897,-0.9905,-0.9905,-0.9905,-0.9905,-0.9905,-0.9673,-0.9218,-0.8497,-0.8213,-0.7848,-0.7403,-0.6999,-0.6601,-0.6213,-0.6006,-0.5672,-0.5309,-0.5309,-0.5641,-0.6213,-0.6213,-0.67,-0.7412,-0.7412,-0.7539,-0.7725,-0.7969,-0.8009,-0.795,-0.8073,-0.8039,-0.7884,-0.7862,-0.7951,-0.7944,-0.7556,-0.7447,-0.7363,-0.7063,-0.6979,-0.6979,-0.6979,-0.6979,-0.6979,-0.6979,-0.7134,-0.7194,-0.7054,-0.6662,-0.6144,-0.5415,-0.4826,-0.422,-0.3667,-0.3581,-0.3581,-0.3581,-0.3639,-0.368,-0.368,-0.3744,-0.3788,-0.3788,-0.3687,-0.3095,-0.1905,-0.1265,-0.0667,-0.005,-0.0615,-0.0929,-0.0928,-0.1706,-0.2717,-0.4002,-0.2564,-0.2415,-0.358,-0.3605,-0.3714,-0.4011,-0.4087,-0.4069,-0.4019,-0.4019,-0.4056,-0.4177,-0.3995,-0.3988,-0.4056,-0.3835,-0.3748,-0.3664,-0.3051,-0.3371,-0.4007,-1.32,-1.4365,-1.5458,-1.5739,-1.5802,-1.5801,-1.5787,-1.5533,-1.5367,-1.537,-1.5342,-1.4826,-1.3356,-1.3196,-1.3209,-1.3207,-1.1184,-0.9848,-0.9709,-0.9831,-0.988,-0.9828,-0.9867,-0.9905,-0.9905,-0.9427,-0.8993,-0.8546,-0.7991,-0.7521,-0.708,-0.67,-0.6275,-0.5882,-0.5828,-0.5609,-0.5309,-0.5309,-0.5522,-0.5913,-0.5913,-0.6336,-0.6999,-0.708,-0.7305,-0.7646,-0.8104,-0.8196,-0.8126,-0.8337,-0.8174,-0.7851,-0.7551,-0.7873,-0.8148,-0.7259,-0.7363,-0.7621,-0.7147,-0.6979,-0.7034,-0.7088,-0.7101,-0.7108,-0.7161,-0.7328,-0.7426,-0.7088,-0.6774,-0.6343,-0.5479,-0.4826,-0.422,-0.3667,-0.3602,-0.3615,-0.3615,-0.3741,-0.3829,-0.3829,-0.3941,-0.4019,-0.4019,-0.3807,-0.3159,-0.1884,-0.0683,0.0,0.0,0.0,0.0,0.0,0.0,-0.1198,-0.3713,-0.2434,-0.2186,-0.2997,-0.3171,-0.3486,-0.3824,-0.4264,-0.4313,-0.4097,-0.4097,-0.4168,-0.4217,-0.4094,-0.406,-0.418,-0.3959,-0.3863,-0.3636,-0.2076,-0.2478,-0.3866,-1.3187,-1.3395,-1.4042,-1.5531,-1.5802,-1.5814,-1.5815,-1.451,-1.3561,-1.3544,-1.3536,-1.3474,-1.3238,-1.3196,-1.3209,-1.3207,-1.1167,-0.9641,-0.8998,-0.9557,-0.9764,-0.9487,-0.9738,-0.9905,-0.9905,-0.9427,-0.9043,-0.875,-0.8382,-0.783,-0.708,-0.67,-0.6275,-0.5882,-0.5522,-0.534,-0.5309,-0.5309,-0.5522,-0.5913,-0.5913,-0.6183,-0.6601,-0.6969,-0.7148,-0.7246,-0.7665,-0.7791,-0.7743,-0.7619,-0.7483,-0.7394,-0.7334,-0.7115,-0.6894,-0.6989,-0.7063,-0.7112,-0.7021,-0.6979,-0.7088,-0.7341,-0.7453,-0.7475,-0.7749,-0.7629,-0.7426,-0.7088,-0.6774,-0.6343,-0.5479,-0.4826,-0.422,-0.3667,-0.3683,-0.3765,-0.3765,-0.3894,-0.3988,-0.3988,-0.4009,-0.4019,-0.4019,-0.3968,-0.3353,-0.1899,-0.0709,0.0,0.0,0.0,0.0,0.0,0.0,-0.0223,-0.0617,-0.1389,-0.1366,-0.0479,-0.1538,-0.2078,-0.2162,-0.3612,-0.4321,-0.4416,-0.4406,-0.447,-0.4412,-0.4134,-0.4066,-0.4184,-0.3801,-0.3632,-0.3357,-0.1094,-0.1187,-0.2616,-1.3183,-1.3181,-1.3758,-1.5506,-1.5815,-1.5802,-1.5785,-1.5134,-1.4296,-1.3331,-1.3203,-1.3183,-1.3183,-1.3208,-1.3203,-1.3221,-1.1186,-0.959,-0.8844,-0.9489,-0.9738,-0.9408,-0.9712,-0.9905,-0.9905,-0.9292,-0.8903,-0.8789,-0.8231,-0.7772,-0.7413,-0.6579,-0.606,-0.5882,-0.5491,-0.5309,-0.5309,-0.5554,-0.5734,-0.5913,-0.5913,-0.6152,-0.6518,-0.6691,-0.6901,-0.7148,-0.7538,-0.8019,-0.8337,-0.7749,-0.7392,-0.713,-0.7147,-0.699,-0.6854,-0.6987,-0.6979,-0.6979,-0.6979,-0.7141,-0.7301,-0.7479,-0.7595,-0.7663,-0.7348,-0.7356,-0.7402,-0.7498,-0.6954,-0.6331,-0.5769,-0.48,-0.3993,-0.3856,-0.3805,-0.3822,-0.3907,-0.4053,-0.4175,-0.4256,-0.4267,-0.4267,-0.4267,-0.4294,-0.3675,-0.213,-0.0777,0.0,0.0,0.0,0.0,0.0,0.0,0.0,0.0,-0.0505,-0.0501,-0.0,-0.0557,-0.077,-0.0796,-0.1515,-0.2811,-0.4487,-0.4484,-0.4477,-0.4463,-0.4338,-0.4324,-0.4372,-0.4197,-0.3069,-0.1451,-0.0381,-0.0433,-0.1064]}]]